[[{"header":{"parameterUnit":"m.s-1","parameterCategory":1,"la1":30.6,"la2":28.766,"lo1":-90.7593,"lo2":-88.6598,"dy":0.0162,"dx":0.0183,"nx":116,"ny":114,"refTime":"2024-02-11T18:00:00:Z","depth":0,"parameterNumber":2,"parameterNumberName":"U-component_of_WINDS"},"data":[0.0,0.0,0.0,0.0,0.0,0.0,0.0,0.0,0.0,0.0,0.0,0.0,0.0,0.0,0.0,0.0,0.0,0.0,0.0,0.0,0.0,0.0,0.0,0.0,0.0,0.0,0.0,0.0,0.0,0.0,0.0,0.0,0.0,0.0,0.0,0.0,0.0,0.0,0.0,0.0,0.0,0.0,0.0,0.0,0.0,0.0,0.0,0.0,0.0,0.0,0.0,0.0,0.0,0.0,0.0,0.0,0.0,0.0,0.0,0.0,0.0,0.0,0.0,0.0,0.0,0.0,0.0,0.0,0.0,0.0,0.0,0.0,0.0,0.0,0.0,0.0,0.0,0.0,0.0,0.0,0.0,0.0,0.0,0.0,0.0,0.0,0.0,0.0,0.0,0.0,0.0,0.0,0.0,0.0,0.0,0.0,0.0,0.0,0.0,0.0,0.0,0.0,0.0,0.0,0.0,0.0,0.0,0.0,0.0,0.0,0.0,0.0,0.0,0.0,0.0,0.0,0.0,0.0,0.0,0.0,0.0,0.0,0.0,0.0,0.0,0.0,0.0,0.0,0.0,0.0,0.0,0.0,0.0,0.0,0.0,0.0,0.0,0.0,0.0,0.0,0.0,0.0,0.0,0.0,0.0,0.0,0.0,0.0,0.0,0.0,0.0,0.0,0.0,0.0,0.0,0.0,0.0,0.0,0.0,0.0,0.0,0.0,0.0,0.0,0.0,0.0,0.0,0.0,0.0,0.0,0.0,0.0,0.0,0.0,0.0,0.0,0.0,0.0,0.0,0.0,0.0,0.0,0.0,0.0,0.0,0.0,0.0,0.0,0.0,0.0,0.0,0.0,0.0,0.0,0.0,0.0,0.0,0.0,0.0,0.0,0.0,0.0,0.0,0.0,0.0,0.0,0.0,0.0,0.0,0.0,0.0,0.0,0.0,0.0,0.0,0.0,0.0,0.0,0.0,0.0,0.0,0.0,0.0,0.0,0.0,0.0,0.0,0.0,0.0,0.0,0.0,0.0,0.0,0.0,0.0,0.0,0.0,0.0,0.0,0.0,0.0,0.0,0.0,0.0,0.0,0.0,0.0,0.0,0.0,0.0,0.0,0.0,0.0,0.0,0.0,0.0,0.0,0.0,0.0,0.0,0.0,0.0,0.0,0.0,0.0,0.0,0.0,0.0,0.0,0.0,0.0,0.0,0.0,0.0,0.0,0.0,0.0,0.0,0.0,0.0,0.0,0.0,0.0,0.0,0.0,0.0,0.0,0.0,0.0,0.0,0.0,0.0,0.0,0.0,0.0,0.0,0.0,0.0,0.0,0.0,0.0,0.0,0.0,0.0,0.0,0.0,0.0,0.0,0.0,0.0,0.0,0.0,0.0,0.0,0.0,0.0,0.0,0.0,0.0,0.0,0.0,0.0,0.0,0.0,0.0,0.0,0.0,0.0,0.0,0.0,0.0,0.0,0.0,0.0,0.0,0.0,0.0,0.0,0.0,0.0,0.0,0.0,0.0,0.0,0.0,0.0,0.0,0.0,0.0,0.0,0.0,0.0,0.0,0.0,0.0,0.0,0.0,0.0,0.0,0.0,0.0,0.0,0.0,0.0,0.0,0.0,0.0,0.0,0.0,0.0,0.0,0.0,0.0,0.0,0.0,0.0,0.0,0.0,0.0,0.0,0.0,0.0,0.0,0.0,0.0,0.0,0.0,0.0,0.0,0.0,0.0,0.0,0.0,0.0,0.0,0.0,0.0,0.0,0.0,0.0,0.0,0.0,0.0,0.0,0.0,0.0,0.0,0.0,0.0,0.0,0.0,0.0,0.0,0.0,0.0,0.0,0.0,0.0,0.0,0.0,0.0,0.0,0.0,0.0,0.0,0.0,0.0,0.0,0.0,0.0,0.0,0.0,0.0,0.0,0.0,0.0,0.0,0.0,0.0,0.0,0.0,0.0,0.0,0.0,0.0,0.0,0.0,0.0,0.0,0.0,0.0,0.0,0.0,0.0,0.0,0.0,0.0,0.0,0.0,0.0,0.0,0.0,0.0,0.0,0.0,0.0,0.0,0.0,0.0,0.0,0.0,0.0,0.0,0.0,0.0,0.0,0.0,0.0,0.0,0.0,0.0,0.0,0.0,0.0,0.0,0.0,0.0,0.0,0.0,0.0,0.0,0.0,0.0,0.0,0.0,0.0,0.0,0.0,0.0,0.0,0.0,0.0,0.0,0.0,0.0,0.0,0.0,0.0,0.0,0.0,0.0,0.0,0.0,0.0,0.0,0.0,0.0,0.0,0.0,0.0,0.0,0.0,0.0,0.0,0.0,0.0,0.0,0.0,0.0,0.0,0.0,0.0,0.0,0.0,0.0,0.0,0.0,0.0,0.0,0.0,0.0,0.0,0.0,0.0,0.0,0.0,0.0,0.0,0.0,0.0,0.0,0.0,0.0,0.0,0.0,0.0,0.0,0.0,0.0,0.0,0.0,0.0,0.0,0.0,0.0,0.0,0.0,0.0,0.0,0.0,0.0,0.0,0.0,0.0,0.0,0.0,0.0,0.0,0.0,0.0,0.0,0.0,0.0,0.0,0.0,0.0,0.0,0.0,0.0,0.0,0.0,0.0,0.0,0.0,0.0,0.0,0.0,0.0,0.0,0.0,0.0,0.0,0.0,0.0,0.0,0.0,0.0,0.0,0.0,0.0,0.0,0.0,0.0,0.0,0.0,0.0,0.0,0.0,0.0,0.0,0.0,0.0,0.0,0.0,0.0,0.0,0.0,0.0,0.0,0.0,0.0,0.0,0.0,0.0,0.0,0.0,0.0,0.0,0.0,0.0,0.0,0.0,0.0,0.0,0.0,0.0,0.0,0.0,0.0,0.0,0.0,0.0,0.0,0.0,0.0,0.0,0.0,0.0,0.0,0.0,0.0,0.0,0.0,0.0,0.0,0.0,0.0,0.0,0.0,0.0,0.0,0.0,0.0,0.0,0.0,0.0,0.0,0.0,0.0,0.0,0.0,0.0,0.0,0.0,0.0,0.0,0.0,0.0,0.0,0.0,0.0,0.0,0.0,0.0,0.0,0.0,0.0,0.0,0.0,0.0,0.0,0.0,0.0,0.0,0.0,0.0,0.0,0.0,0.0,0.0,0.0,0.0,0.0,0.0,0.0,0.0,0.0,0.0,0.0,0.0,0.0,0.0,0.0,0.0,0.0,0.0,0.0,0.0,0.0,0.0,0.0,0.0,0.0,0.0,0.0,0.0,0.0,0.0,0.0,0.0,0.0,0.0,0.0,0.0,0.0,0.0,0.0,0.0,0.0,0.0,0.0,0.0,0.0,0.0,0.0,0.0,0.0,0.0,0.0,0.0,0.0,0.0,0.0,0.0,0.0,0.0,0.0,0.0,0.0,0.0,0.0,0.0,0.0,0.0,0.0,0.0,0.0,0.0,0.0,0.0,0.0,0.0,0.0,0.0,0.0,0.0,0.0,0.0,0.0,0.0,0.0,0.0,0.0,0.0,0.0,0.0,0.0,0.0,0.0,0.0,0.0,0.0,0.0,0.0,0.0,0.0,0.0,0.0,0.0,0.0,0.0,0.0,0.0,0.0,0.0,0.0,0.0,0.0,0.0,0.0,0.0,0.0,0.0,0.0,0.0,0.0,0.0,0.0,0.0,0.0,0.0,0.0,0.0,0.0,0.0,0.0,0.0,0.0,0.0,0.0,0.0,0.0,0.0,0.0,0.0,0.0,0.0,0.0,0.0,0.0,0.0,0.0,0.0,0.0,0.0,0.0,0.0,0.0,0.0,0.0,0.0,0.0,0.0,0.0,0.0,0.0,0.0,0.0,0.0,0.0,0.0,0.0,0.0,0.0,0.0,0.0,0.0,0.0,0.0,0.0,0.0,0.0,0.0,0.0,0.0,0.0,0.0,0.0,0.0,0.0,0.0,0.0,0.0,0.0,0.0,0.0,0.0,0.0,0.0,0.0,0.0,0.0,0.0,0.0,0.0,0.0,0.0,0.0,0.0,0.0,0.0,0.0,0.0,0.0,0.0,0.0,0.0,0.0,0.0,0.0,0.0,0.0,0.0,0.0,0.0,0.0,0.0,0.0,0.0,0.0,0.0,0.0,0.0,0.0,0.0,0.0,0.0,0.0,0.0,0.0,0.0,0.0,0.0,0.0,0.0,0.0,0.0,0.0,0.0,0.0,0.0,0.0,0.0,0.0,0.0,0.0,0.0,0.0,0.0,0.0,0.0,0.0,0.0,0.0,0.0,0.0,0.0,0.0,0.0,0.0,0.0,0.0,0.0,0.0,0.0,0.0,0.0,0.0,0.0,0.0,0.0,0.0,0.0,0.0,0.0,0.0,0.0,0.0,0.0,0.0,0.0,0.0,0.0,0.0,0.0,0.0,0.0,0.0,0.0,0.0,0.0,0.0,0.0,0.0,0.0,0.0,0.0,0.0,0.0,0.0,0.0,0.0,0.0,0.0,0.0,0.0,0.0,0.0,0.0,0.0,0.0,0.0,0.0,0.0,0.0,0.0,0.0,0.0,0.0,0.0,0.0,0.0,0.0,0.0,0.0,0.0,0.0,0.0,0.0,0.0,0.0,0.0,0.0,0.0,0.0,0.0,0.0,0.0,0.0,0.0,0.0,0.0,0.0,0.0,0.0,0.0,0.0,0.0,0.0,0.0,0.0,0.0,0.0,0.0,0.0,0.0,0.0,0.0,0.0,0.0,0.0,0.0,0.0,0.0,0.0,0.0,0.0,0.0,0.0,0.0,0.0,0.0,0.0,0.0,0.0,0.0,0.0,0.0,0.0,0.0,0.0,0.0,0.0,0.0,0.0,0.0,0.0,0.0,0.0,0.0,0.0,0.0,0.0,0.0,0.0,0.0,0.0,0.0,0.0,0.0,0.0,0.0,0.0,0.0,0.0,0.0,0.0,0.0,0.0,0.0,0.0,0.0,0.0,0.0,0.0,0.0,0.0,0.0,0.0,0.0,0.0,0.0,0.0,0.0,0.0,0.0,0.0,0.0,0.0,0.0,0.0,0.0,0.0,0.0,0.0,0.0,0.0,0.0,0.0,0.0,0.0,0.0,0.0,0.0,0.0,0.0,0.0,0.0,0.0,0.0,0.0,0.0,0.0,0.0,0.0,0.0,0.0,0.0,0.0,0.0,0.0,0.0,0.0,0.0,0.0,0.0,0.0,0.0,0.0,0.0,0.0,0.0,0.0,0.0,0.0,0.0,0.0,0.0,0.0,0.0,0.0,0.0,0.0,0.0,0.0,0.0,0.0,0.0,0.0,0.0,0.0,0.0,0.0,0.0,0.0,0.0,0.0,0.0,0.0,0.0,0.0,0.0,0.0,0.0,0.0,0.0,0.0,0.0,0.0,0.0,0.0,0.0,0.0,0.0,0.0,0.0,0.0,0.0,0.0,0.0,0.0,0.0,0.0,0.0,0.0,0.0,0.0,0.0,0.0,0.0,0.0,0.0,0.0,0.0,0.0,0.0,0.0,0.0,0.0,0.0,0.0,0.0,0.0,0.0,0.0,0.0,0.0,0.0,0.0,0.0,0.0,0.0,0.0,0.0,0.0,0.0,0.0,0.0,0.0,0.0,0.0,0.0,0.0,0.0,0.0,0.0,0.0,0.0,0.0,0.0,0.0,0.0,0.0,0.0,0.0,0.0,0.0,0.0,0.0,0.0,0.0,0.0,0.0,0.0,0.0,0.0,0.0,0.0,0.0,0.0,0.0,0.0,0.0,0.0,0.0,0.0,0.0,0.0,0.0,0.0,0.0,0.0,0.0,0.0,0.0,0.0,0.0,0.0,0.0,0.0,0.0,0.0,0.0,0.0,0.0,0.0,0.0,0.0,0.0,0.0,0.0,0.0,0.0,0.0,0.0,0.0,0.0,0.0,0.0,0.0,0.0,0.0,0.0,0.0,0.0,0.0,0.0,0.0,0.0,0.0,0.0,0.0,0.0,0.0,0.0,0.0,0.0,0.0,0.0,0.0,0.0,0.0,0.0,0.0,0.0,0.0,0.0,0.0,0.0,0.0,0.0,0.0,0.0,0.0,0.0,0.0,0.0,0.0,0.0,0.0,-6.0232,-6.0234,0.0,0.0,0.0,0.0,0.0,0.0,0.0,0.0,0.0,0.0,0.0,0.0,0.0,0.0,0.0,0.0,0.0,0.0,0.0,0.0,0.0,0.0,0.0,0.0,0.0,0.0,0.0,0.0,0.0,0.0,0.0,0.0,0.0,0.0,-6.2573,-6.3463,-6.4509,-6.5586,-6.5586,-6.5586,-6.5625,-6.5969,-6.6115,-6.6193,0.0,0.0,0.0,0.0,0.0,0.0,0.0,0.0,0.0,0.0,0.0,0.0,0.0,0.0,0.0,0.0,0.0,0.0,0.0,0.0,0.0,0.0,0.0,0.0,0.0,0.0,0.0,0.0,0.0,0.0,0.0,0.0,0.0,0.0,0.0,0.0,0.0,0.0,0.0,0.0,0.0,0.0,0.0,0.0,0.0,0.0,0.0,0.0,0.0,0.0,0.0,0.0,0.0,0.0,0.0,0.0,0.0,0.0,0.0,0.0,0.0,0.0,0.0,0.0,0.0,0.0,0.0,0.0,0.0,0.0,-6.0258,-6.0428,0.0,0.0,0.0,0.0,0.0,0.0,0.0,0.0,0.0,0.0,0.0,0.0,0.0,0.0,0.0,0.0,0.0,0.0,0.0,0.0,0.0,0.0,0.0,-6.0781,-6.0804,-6.0823,-6.0816,-6.1112,0.0,0.0,0.0,0.0,0.0,-6.1749,-6.2852,-6.3811,-6.4739,-6.5586,-6.5469,-6.5469,-6.5586,-6.5586,-6.5586,-6.5625,-6.6367,0.0,0.0,0.0,0.0,0.0,0.0,0.0,0.0,0.0,0.0,0.0,0.0,0.0,0.0,0.0,0.0,0.0,0.0,0.0,0.0,0.0,0.0,0.0,0.0,0.0,0.0,0.0,0.0,0.0,0.0,0.0,0.0,0.0,0.0,0.0,0.0,0.0,0.0,0.0,0.0,0.0,0.0,0.0,0.0,0.0,0.0,0.0,0.0,0.0,0.0,0.0,0.0,0.0,0.0,0.0,0.0,0.0,0.0,0.0,0.0,0.0,0.0,0.0,-6.105,-6.0815,-6.0661,-6.0048,-5.9576,-5.9312,-6.0808,-6.0871,-5.9969,-6.0137,0.0,0.0,0.0,0.0,0.0,0.0,0.0,0.0,0.0,0.0,0.0,0.0,0.0,0.0,0.0,0.0,0.0,0.0,0.0,0.0,0.0,-6.0781,-6.0856,-6.0973,-6.086,-6.0894,-6.1137,-6.0927,-6.0905,-6.1137,-6.1772,-6.2677,-6.3868,-6.4782,-6.5366,-6.5586,-6.4844,-6.4844,-6.5586,-6.5586,-6.5586,-6.5625,-6.5703,-6.5351,-6.4648,0.0,0.0,0.0,0.0,0.0,0.0,0.0,0.0,0.0,0.0,0.0,0.0,0.0,0.0,0.0,0.0,0.0,0.0,0.0,0.0,0.0,0.0,0.0,0.0,0.0,0.0,0.0,0.0,0.0,0.0,0.0,0.0,0.0,0.0,0.0,0.0,0.0,0.0,0.0,0.0,0.0,-6.0025,-5.915,0.0,0.0,0.0,0.0,0.0,0.0,0.0,0.0,0.0,0.0,0.0,0.0,0.0,-6.1445,-6.1485,-6.1498,-6.1573,-6.1679,-6.2343,-6.2656,-6.2654,-6.2976,-6.2735,-6.2063,-6.2027,0.0,-5.9869,-6.0599,0.0,0.0,0.0,0.0,0.0,0.0,0.0,0.0,0.0,0.0,0.0,0.0,0.0,0.0,0.0,0.0,0.0,0.0,0.0,0.0,0.0,-6.086,-6.0925,-6.0988,-6.1824,-6.1998,-6.1074,-6.1863,-6.1959,-6.1036,-6.1538,-6.2313,-6.3338,-6.3806,-6.4331,-6.4883,-6.5469,-6.5703,-6.5625,-6.6094,-6.582,-6.4883,-6.4883,-6.4922,-6.4961,-6.3984,0.0,0.0,0.0,0.0,0.0,0.0,0.0,0.0,0.0,0.0,0.0,0.0,0.0,0.0,0.0,0.0,0.0,0.0,0.0,0.0,0.0,0.0,0.0,0.0,0.0,0.0,0.0,0.0,0.0,0.0,0.0,0.0,0.0,0.0,0.0,0.0,0.0,0.0,0.0,-5.9726,-5.9583,-5.9631,-5.9547,-5.9455,0.0,0.0,0.0,0.0,0.0,0.0,0.0,0.0,0.0,-6.3553,-6.3124,-6.3169,-6.3817,-6.3817,-6.3589,-6.3164,-6.4531,-6.4646,-6.3652,-6.4372,-6.4132,-6.3154,-6.2994,-6.2509,-6.1669,-6.0616,-6.0036,-5.9856,0.0,0.0,0.0,0.0,-6.1128,-6.1081,0.0,0.0,0.0,0.0,0.0,0.0,0.0,0.0,0.0,0.0,0.0,0.0,-6.0781,-6.0935,-6.1109,-6.1391,-6.2593,-6.2804,-6.1553,-6.2375,-6.2396,-6.1196,-6.1549,-6.2116,-6.2857,-6.2965,-6.3555,-6.4648,-6.5703,-6.6133,-6.5937,-6.6367,-6.5898,-6.4609,-6.418,-6.4219,-6.4531,-6.3203,-6.2656,-6.2617,0.0,0.0,0.0,0.0,0.0,0.0,0.0,0.0,0.0,0.0,0.0,0.0,0.0,0.0,0.0,0.0,0.0,0.0,0.0,0.0,0.0,0.0,0.0,0.0,0.0,0.0,0.0,0.0,0.0,0.0,0.0,0.0,0.0,0.0,0.0,0.0,0.0,-5.9439,-5.9462,-5.9887,-5.9536,-5.9391,0.0,0.0,0.0,0.0,0.0,0.0,-6.3189,-6.3349,-6.4127,-6.5748,-6.5165,-6.5298,-6.625,-6.6055,-6.582,-6.5625,-6.6719,-6.6637,-6.5477,-6.5889,-6.5431,-6.4317,-6.4015,-6.3688,-6.314,-6.1254,-6.0281,-6.0,-6.0288,-6.0179,-5.9946,-6.0702,-6.0965,-6.0877,0.0,0.0,0.0,0.0,0.0,0.0,0.0,0.0,0.0,0.0,0.0,-5.9896,-6.0704,-6.0906,-6.1415,-6.2438,-6.2606,-6.2668,-6.2698,-6.1726,-6.1218,-6.1446,-6.2148,-6.2668,-6.2968,-6.3008,-6.3828,-6.5547,-6.4805,-6.5273,-6.6836,-6.6015,-6.5625,-6.5469,-6.3789,-6.2617,-6.1875,-6.1797,-6.1758,-6.1835,-6.2464,0.0,0.0,0.0,0.0,0.0,0.0,0.0,0.0,0.0,0.0,0.0,0.0,0.0,0.0,0.0,0.0,0.0,0.0,0.0,0.0,0.0,0.0,0.0,0.0,0.0,0.0,0.0,0.0,0.0,0.0,0.0,0.0,0.0,0.0,0.0,0.0,0.0,0.0,-5.9336,-5.9883,0.0,0.0,0.0,0.0,-6.1348,-6.2203,-6.3481,-6.535,-6.5468,-6.5859,-6.6797,-6.6797,-6.7187,-6.8047,-6.7265,-6.7617,-6.914,-6.8476,-6.8515,-6.9218,-6.821,-6.7227,-6.6186,-6.517,-6.418,-6.3281,-6.3152,-6.2178,-6.0819,-6.1663,-6.0997,-5.9627,-6.0473,-6.0793,-6.0573,0.0,0.0,0.0,0.0,0.0,0.0,0.0,0.0,-5.9776,-6.0074,-6.024,-6.0666,-6.1562,-6.1775,-6.2233,-6.3161,-6.3704,-6.3581,-6.2567,-6.2677,-6.2374,-6.1398,-6.1771,-6.2055,-6.2148,-6.2695,-6.3281,-6.3945,-6.4726,-6.5156,-6.5234,-6.5469,-6.5,-6.3906,-6.3281,-6.2539,-6.1719,-6.1719,-6.1719,-6.1719,-6.1988,-6.2278,0.0,0.0,0.0,0.0,0.0,0.0,0.0,0.0,0.0,0.0,0.0,0.0,0.0,0.0,0.0,0.0,0.0,0.0,0.0,0.0,0.0,0.0,0.0,0.0,0.0,0.0,0.0,0.0,0.0,0.0,0.0,0.0,0.0,0.0,0.0,0.0,0.0,-6.2383,-6.2226,0.0,-6.2377,-6.2141,-6.261,-6.4017,-6.4954,-6.6442,-6.875,-6.8398,-6.875,-7.0156,-6.914,-6.8984,-6.9805,-6.9492,-6.9375,-6.9453,-7.0273,-7.0234,-6.9492,-6.9645,-6.8811,-6.7217,-6.6839,-6.5702,-6.4128,-6.4128,-6.314,-6.1601,-6.137,-6.087,-6.0385,-6.0704,-6.0435,-5.9896,0.0,0.0,0.0,0.0,0.0,0.0,0.0,0.0,-5.9509,-5.9823,-6.0162,-6.0819,-6.1985,-6.22,-6.2778,-6.3892,-6.4274,-6.4006,-6.2889,-6.2885,-6.2468,-6.1398,-6.158,-6.1719,-6.1719,-6.2265,-6.2851,-6.3437,-6.4297,-6.4726,-6.4726,-6.4726,-6.4101,-6.3008,-6.2695,-6.2226,-6.1719,-6.1719,-6.1719,-6.1719,-6.1719,-6.2043,-6.2489,0.0,0.0,0.0,0.0,0.0,0.0,0.0,0.0,0.0,0.0,0.0,0.0,0.0,0.0,0.0,0.0,0.0,0.0,0.0,0.0,0.0,0.0,0.0,0.0,0.0,0.0,0.0,0.0,0.0,0.0,0.0,0.0,0.0,0.0,-6.1488,-6.3113,-6.4961,-6.4687,-6.4765,-6.5898,-6.5234,-6.5469,-6.7187,-6.8125,-6.9375,-7.1055,-7.1172,-7.1445,-7.1992,-7.1211,-7.0898,-7.1133,-7.1133,-7.0859,-7.0351,-7.1484,-7.1406,-7.0351,-7.0273,-6.946,-6.8073,-6.7522,-6.6248,-6.4589,-6.4282,-6.3358,-6.2062,-6.1447,-6.105,-6.0742,-6.0473,-6.0012,-5.9396,0.0,0.0,0.0,0.0,0.0,0.0,0.0,-5.887,-5.9465,-5.9427,-5.9502,-6.0242,-6.1947,-6.2248,-6.302,-6.4628,-6.4163,-6.3761,-6.3761,-6.2211,-6.1349,-6.1501,-6.1594,-6.168,-6.1719,-6.1719,-6.2539,-6.4219,-6.3437,-6.3867,-6.543,-6.3789,-6.3008,-6.293,-6.207,-6.1719,-6.1719,-6.1719,-6.1758,-6.1719,-6.1758,-6.2139,-6.275,0.0,0.0,0.0,0.0,0.0,0.0,0.0,0.0,0.0,0.0,0.0,0.0,0.0,0.0,0.0,0.0,0.0,0.0,0.0,0.0,0.0,0.0,0.0,0.0,0.0,0.0,0.0,0.0,0.0,0.0,0.0,0.0,0.0,-6.0419,-6.2648,-6.5039,-6.6797,-6.7031,-6.7695,-6.9375,-6.8828,-6.9023,-7.0703,-7.164,-7.2148,-7.2148,-7.375,-7.3867,-7.2187,-7.289,-7.289,-7.2031,-7.1992,-7.1992,-7.1992,-7.1992,-7.1992,-7.1953,-7.0234,-6.9225,-6.8819,-6.7172,-6.5735,-6.4474,-6.3666,-6.282,-6.2062,-6.2062,-6.1562,-6.0704,-5.9819,-5.9473,-5.905,0.0,0.0,0.0,0.0,0.0,0.0,-5.8877,-6.0194,-6.1012,-6.0335,-6.0915,-6.1781,-6.2858,-6.3018,-6.3488,-6.4567,-6.3902,-6.3183,-6.2614,-6.1655,-6.1201,-6.1498,-6.1007,-6.1055,-6.168,-6.2305,-6.2578,-6.2422,-6.3437,-6.3555,-6.2773,-6.293,-6.2656,-6.2031,-6.1797,-6.1719,-6.1758,-6.2383,-6.2573,-6.2508,-6.2615,-6.2275,-6.1778,0.0,0.0,0.0,0.0,0.0,0.0,0.0,0.0,0.0,0.0,0.0,0.0,0.0,0.0,0.0,0.0,0.0,0.0,0.0,0.0,0.0,0.0,0.0,0.0,0.0,0.0,0.0,0.0,0.0,0.0,0.0,-6.0282,-6.1683,-6.2142,-6.4491,-6.7031,-6.9375,-6.9648,-7.0312,-7.207,-7.2031,-7.2344,-7.3437,-7.4336,-7.5117,-7.5742,-7.5625,-7.5312,-7.4844,-7.3828,-7.3164,-7.293,-7.2305,-7.1992,-7.1992,-7.1992,-7.1992,-7.1953,-7.0859,-6.9811,-6.8858,-6.7801,-6.5937,-6.3628,-6.3385,-6.2435,-6.1166,-6.1166,-6.1012,-6.0704,-5.9819,-5.8742,-5.7407,0.0,0.0,0.0,0.0,0.0,0.0,-5.9184,-6.0545,-6.1469,-6.1184,-6.153,-6.2311,-6.368,-6.3205,-6.3281,-6.4474,-6.3474,-6.2589,-6.2139,-6.1503,-6.1382,-6.2005,-6.1321,-6.1367,-6.2226,-6.2734,-6.2889,-6.2722,-6.3397,-6.3354,-6.2574,-6.2495,-6.2147,-6.1631,-6.1679,-6.1914,-6.2305,-6.3164,-6.3467,-6.3377,-6.3847,-6.3332,-6.2379,-6.2496,-6.2315,-6.1945,-6.1548,-6.1741,-6.2109,-6.1678,0.0,0.0,0.0,0.0,0.0,0.0,0.0,0.0,0.0,0.0,0.0,0.0,0.0,0.0,0.0,0.0,0.0,0.0,0.0,0.0,0.0,0.0,0.0,0.0,-6.1431,-6.3271,-6.4922,-6.6797,-6.8945,-7.1484,-7.1797,-7.2773,-7.5234,-7.5156,-7.543,-7.664,-7.6875,-7.7031,-7.7187,-7.6719,-7.6094,-7.539,-7.4375,-7.3672,-7.3281,-7.2422,-7.1992,-7.1992,-7.1992,-7.1992,-7.1953,-7.0742,-6.9733,-6.8819,-6.7295,-6.5355,-6.3281,-6.2935,-6.2012,0.0,0.0,0.0,0.0,0.0,-5.7588,-5.6214,0.0,0.0,0.0,0.0,0.0,0.0,-5.9441,-6.0559,-6.1525,-6.1995,-6.175,-6.2357,-6.4398,-6.3166,-6.282,-6.432,-6.3089,-6.2216,-6.2101,-6.1599,-6.1712,-6.268,-6.2132,-6.2225,-6.3083,-6.3202,-6.3464,-6.3904,-6.3343,-6.3238,-6.3474,-6.2228,-6.1587,-6.1507,-6.1632,-6.2187,-6.3047,-6.4023,-6.4358,-6.4294,-6.5149,-6.4734,-6.3554,-6.277,-6.2851,-6.3322,-6.2423,-6.2181,-6.2268,-6.2206,0.0,0.0,0.0,0.0,0.0,0.0,0.0,0.0,0.0,0.0,0.0,0.0,0.0,0.0,0.0,0.0,0.0,0.0,0.0,0.0,0.0,0.0,0.0,0.0,-6.3456,-6.5624,-6.8241,-6.9375,-7.0781,-7.3164,-7.3633,-7.5,-7.8203,-7.789,-7.8047,-7.9453,-7.8906,-7.8125,-7.7265,-7.7187,0.0,0.0,0.0,-7.4336,-7.3476,-7.2578,-7.2109,-7.1992,-7.1914,-7.1836,-7.1797,-7.0117,-6.915,-6.8649,-6.6172,-6.4433,-6.3253,-6.2459,-6.1601,-6.0781,-6.0704,-6.0127,-5.9165,-5.7484,-5.6329,-5.5318,0.0,0.0,0.0,0.0,0.0,0.0,-6.1043,-6.2262,-6.3077,-6.2881,-6.3133,-6.3632,-6.4513,-6.3666,-6.3205,-6.3512,-6.3281,-6.2781,-6.2139,-6.1466,-6.1444,-6.2354,-6.2522,-6.2932,-6.3619,-6.4453,-6.4177,-6.2802,-6.338,-6.3019,-6.1795,-6.15,-6.1409,-6.1504,-6.1517,-6.2094,-6.3086,-6.4507,-6.502,-6.4971,-6.5693,-6.4627,-6.2568,-6.2391,-6.2365,-6.227,-6.1412,-6.1527,-6.2056,-6.164,-6.1415,-6.1328,-6.1532,-6.1568,0.0,0.0,0.0,0.0,0.0,0.0,0.0,0.0,0.0,0.0,0.0,0.0,0.0,0.0,0.0,0.0,0.0,0.0,0.0,-6.3751,-6.5855,-6.8117,-7.066,-7.1907,-7.3008,-7.4219,-7.5586,-7.6992,-7.8359,-7.8945,-7.9062,-7.875,-7.8594,-7.8125,-7.7265,-7.7187,-7.7031,-7.6719,-7.6015,-7.5234,-7.4375,-7.3476,-7.2695,-7.1992,-7.1289,0.0,-7.0898,-6.9219,-6.8308,-6.7992,-6.5984,-6.452,-6.3468,-6.2513,-6.1601,-6.0742,-6.0012,-5.9242,-5.8319,-5.6588,-5.5434,-5.4587,0.0,0.0,0.0,0.0,0.0,0.0,-6.1484,-6.2522,-6.3385,-6.3876,-6.4048,-6.4595,-6.5953,-6.482,-6.4128,-6.4551,-6.382,-6.2974,-6.2139,-6.2238,-6.2489,-6.2933,-6.3178,-6.3647,-6.4429,-6.4938,-6.4705,-6.3658,-6.3729,-6.3298,-6.2305,-6.1589,-6.1328,-6.1392,-6.1485,-6.2264,-6.3614,-6.4794,-6.5421,-6.5607,-6.5544,-6.4416,-6.2766,-6.2362,-6.2431,-6.2627,-6.2204,-6.2413,-6.2838,-6.2631,-6.2035,-6.146,-6.1634,-6.1638,-6.1579,0.0,0.0,0.0,0.0,0.0,0.0,0.0,0.0,0.0,0.0,0.0,0.0,0.0,0.0,-6.0924,-6.2735,0.0,-6.33,-6.6367,-6.8099,-6.9796,-7.1905,-7.3491,-7.4637,-7.5195,-7.6406,-7.7695,-7.8984,-7.9844,-8.0195,-7.9765,-7.9765,-7.918,-7.793,-7.7851,-7.7656,-7.7226,-7.6367,-7.5469,-7.4609,-7.375,-7.2656,-7.1328,-7.0898,-7.0508,-7.0078,-6.8789,-6.7843,-6.712,-6.5255,-6.3881,-6.2876,-6.1869,-6.0935,-6.0089,-5.9242,-5.8665,-5.8088,-5.6357,-5.5434,-5.4972,0.0,0.0,0.0,0.0,0.0,0.0,0.0,-6.2401,-6.3211,-6.4398,-6.437,-6.4992,-6.6996,-6.5556,-6.4821,-6.582,-6.432,-6.3166,-6.287,-6.3433,-6.3777,-6.3797,-6.4077,-6.4549,-6.5258,-6.5295,-6.5141,-6.4773,-6.4208,-6.3726,-6.3281,-6.2185,-6.1705,-6.1746,-6.187,-6.2781,-6.4357,-6.5117,-6.5713,-6.6032,-6.5374,-6.437,-6.3243,-6.2589,-6.2743,-6.3281,-6.3128,-6.3279,-6.3545,-6.3539,-6.2601,-6.1498,-6.1637,-6.1836,-6.1874,-6.1546,-6.1958,0.0,0.0,0.0,0.0,0.0,0.0,0.0,0.0,0.0,-6.1617,-6.286,-6.2354,-6.2521,-6.5086,-6.5136,-6.5771,-6.8812,-7.016,-7.1397,-7.292,-7.4527,-7.5666,-7.6001,-7.7029,-7.8203,-7.957,-8.0625,-8.1172,-8.1015,-8.0859,-8.0078,-7.8594,-7.8359,-7.793,-7.7226,-7.6367,-7.5469,-7.4609,-7.375,-7.2422,-7.0703,-7.0547,-7.0039,-6.9219,-6.8359,-6.7377,-6.6282,-6.4374,-6.2988,-6.1977,-6.0944,-6.0127,-5.9396,-5.8434,-5.805,-5.7857,-5.6088,-5.5472,-5.5357,0.0,0.0,0.0,0.0,0.0,0.0,0.0,0.0,-6.3026,-6.3654,-6.3712,-6.4229,-6.5653,-6.466,-6.4432,-6.5795,-6.432,-6.3935,-6.5359,-6.4857,-6.4484,-6.4484,-6.5353,-6.5847,-6.5816,-6.5915,-6.5556,-6.4638,-6.4559,-6.4111,-6.332,-6.3149,-6.3162,-6.3348,-6.3374,-6.3961,-6.5031,-6.5716,-6.6069,-6.609,-6.5874,-6.478,-6.3269,-6.3192,-6.3243,-6.3205,-6.2474,-6.2728,-6.3257,-6.2796,-6.2073,-6.1359,-6.1631,-6.2226,-6.2652,-6.1621,-6.1923,-6.2316,-6.1144,-6.0962,-6.1116,-6.1,-6.1105,-6.1428,0.0,0.0,-6.2808,-6.4494,-6.4582,-6.4928,-6.6806,-6.8181,-6.9387,-7.0504,-7.2175,-7.3654,-7.4594,-7.5081,-7.5644,-7.6443,-7.8245,-7.9492,-7.9687,-8.1172,-8.1836,-8.1054,-8.0273,-7.9453,-7.8555,-7.7773,-7.7305,-7.7187,-7.6367,-7.5469,-7.4609,-7.375,-7.2422,-7.0703,-6.9961,-6.918,-6.832,-6.7422,-6.6562,-6.5584,-6.3592,-6.2133,-6.1057,-6.0057,-5.9588,-5.9358,-5.7742,-5.7137,-5.6945,-5.5241,-5.4626,-5.4626,0.0,0.0,0.0,0.0,0.0,0.0,0.0,0.0,0.0,-6.3798,-6.4173,-6.4839,-6.616,-6.6385,-6.6507,-6.6577,-6.5936,-6.5628,-6.5859,-6.6013,-6.5859,-6.5397,-6.6675,-6.742,-6.7359,-6.742,-6.6996,-6.6051,-6.559,-6.4897,-6.4051,-6.3538,-6.3395,-6.3612,-6.3612,-6.4093,-6.4954,-6.5198,-6.5575,-6.5936,-6.5382,-6.4705,-6.4012,-6.3512,-6.3628,-6.4012,-6.3666,-6.3435,0.0,-6.3184,-6.2327,-6.1323,-6.1517,-6.1816,-6.2041,-6.1549,-6.1918,-6.233,-6.1824,-6.1657,-6.1667,-6.1735,-6.251,-6.3322,-6.3726,-6.4217,-6.4986,-6.6295,-6.6437,-6.6864,-6.8674,-6.9419,-7.0311,-7.2197,-7.3111,-7.4038,-7.5401,-7.5752,-7.5853,-7.586,-7.7597,-7.9001,-7.9467,-8.0738,-8.1406,-8.1015,-8.1133,-8.0429,-7.8594,-7.8594,-7.7969,-7.6484,-7.6094,-7.5234,-7.3867,-7.2969,-7.168,-6.9922,-6.914,-6.8281,-6.7422,-6.6523,-6.5349,-6.3884,-6.2538,-6.1645,-6.1087,-6.0101,-5.9379,-5.8781,-5.751,-5.6676,-5.6175,-5.5472,-5.4895,-5.4511,0.0,0.0,0.0,0.0,0.0,0.0,0.0,0.0,0.0,0.0,-6.4092,-6.4852,-6.6311,-6.7381,-6.7832,-6.75,-6.7244,-6.6859,-6.6282,-6.6551,-6.659,-6.6244,-6.7398,-6.8167,-6.8385,-6.8385,-6.809,-6.7475,-6.6859,-6.6282,-6.5628,-6.5013,-6.4775,-6.4935,-6.4935,-6.5245,-6.5786,-6.5554,-6.5754,-6.6167,-6.5282,-6.482,-6.4551,-6.4166,-6.4282,-6.4589,-6.4589,-6.4051,-6.3356,-6.3796,-6.2873,-6.1635,-6.2011,-6.2282,-6.2391,-6.1855,-6.1808,-6.1892,-6.1892,-6.2004,-6.2232,-6.2568,-6.3719,-6.4865,-6.5403,-6.6003,-6.6806,-6.7954,-6.792,-6.8179,-6.9833,-7.0135,-7.0809,-7.2988,-7.3662,-7.4395,-7.5798,-7.5979,-7.5749,-7.5258,-7.6319,-7.7463,-7.8516,-8.0061,-8.1094,-8.1328,-8.1484,-8.0781,-7.8945,-7.8945,-7.8047,-7.5976,-7.5664,-7.4687,-7.2969,-7.207,-7.0781,-6.9062,-6.8476,-6.7734,-6.6875,-6.5742,-6.4371,-6.2781,-6.1903,-6.1311,-6.0905,-5.9897,-5.8963,-5.8087,-5.7081,-5.6318,-5.573,-5.5696,-5.5318,-5.4818,0.0,0.0,0.0,0.0,0.0,0.0,0.0,0.0,0.0,0.0,0.0,0.0,0.0,-6.637,-6.725,-6.8254,-6.759,-6.709,-6.7051,-6.6359,-6.6282,-6.7013,-6.709,-6.7552,-6.8385,-6.8385,-6.8385,-6.8359,-6.8346,-6.8321,-6.8269,-6.8282,-6.8244,-6.8257,-6.8257,-6.8257,-6.8257,-6.7372,-6.7026,-6.6974,-6.6205,-6.5359,-6.4705,-6.5513,-6.532,-6.4589,-6.4589,-6.4051,-6.3433,-6.4415,-6.366,-6.2426,-6.3404,-6.4318,-6.4643,-6.2818,-6.16,-6.0831,-6.0831,-6.153,-6.2489,-6.3341,-6.431,-6.5482,-6.6971,-6.7348,-6.7778,-6.9335,-6.895,-6.8693,-6.9727,-7.0591,-7.1433,-7.2313,-7.3861,-7.519,-7.5904,-7.5465,-7.5044,-7.5006,-7.4511,-7.4799,-7.6512,-7.9293,-8.1367,-8.2187,-8.0703,-7.9765,-7.9687,-7.8164,-7.6836,-7.5937,-7.5078,-7.3789,-7.207,-7.1172,-6.9883,-6.8242,-6.8203,-6.7734,-6.6836,-6.5117,-6.3867,-6.2929,-6.1922,-6.1033,-6.0165,-5.9163,-5.8209,-5.7331,-5.6342,-5.5907,-5.5883,-5.5768,-5.5665,-5.5665,0.0,0.0,0.0,0.0,0.0,0.0,0.0,0.0,0.0,0.0,0.0,0.0,0.0,0.0,0.0,0.0,-6.759,-6.709,-6.709,-6.6359,-6.6244,-6.7051,-6.709,-6.7782,-6.9244,-6.9244,-6.9244,-6.9244,-6.9244,-6.8975,-6.8385,-6.8385,-6.8706,-6.9244,-6.9244,-6.9552,-7.0014,-6.9167,-6.9129,-6.9436,-6.7475,-6.6859,-6.709,-6.6782,-6.6167,-6.5513,0.0,-6.4974,-6.3371,-6.3708,-6.3127,-6.2352,-6.2701,-6.3386,-6.3964,-6.3201,-6.2363,-6.179,-6.2478,-6.3229,-6.4056,-6.4996,-6.7142,-6.8938,-6.8921,-6.9784,-7.0401,-6.9809,-6.9013,-6.8385,-6.8277,-6.8365,-6.8992,-7.0483,-7.2189,-7.3823,-7.5151,-7.6245,-7.6334,-7.4736,-7.5761,0.0,-7.5996,-7.7219,0.0,-8.011,-7.9785,-7.9265,-7.8718,-7.7769,-7.6523,-7.5078,-7.418,-7.289,-7.1133,-7.0273,-6.9297,-6.8203,-6.7617,-6.6875,-6.6015,-6.4844,-6.3828,-6.2969,-6.2027,-6.1126,-6.0264,-5.9235,-5.834,-5.751,-5.6486,-5.6116,-5.6091,-5.5891,-5.5843,-5.5671,0.0,0.0,0.0,0.0,0.0,0.0,0.0,0.0,0.0,0.0,0.0,0.0,0.0,0.0,0.0,0.0,0.0,-6.6974,-6.6667,-6.6205,-6.6397,-6.7513,-6.7552,-6.8513,-7.0552,-7.0591,-7.0744,-7.1052,-7.0744,-7.0321,-6.9744,-6.9436,-6.9744,-7.0591,-7.0591,-7.1052,-7.1783,-7.0937,-7.1052,-7.1629,-6.936,-6.8783,-6.9206,-6.8359,-6.7513,0.0,-6.7013,-6.5859,-6.4166,-6.3858,-6.3257,-6.2663,-6.2663,-6.2828,-6.3029,-6.2918,-6.2512,-6.229,-6.324,-6.427,-6.5447,-6.7023,-6.9154,-7.086,-7.0629,-7.1437,-7.1629,-6.9667,-6.8552,-6.7653,-6.6651,-6.6366,-6.6803,-6.8287,-6.9721,-7.159,-7.4186,-7.518,-7.5644,-7.5694,-7.6454,-7.6826,0.0,-7.6373,0.0,-7.9041,-7.9315,-7.8909,-7.7816,-7.7099,-7.5937,-7.418,-7.3281,-7.2148,-7.0703,-6.9531,-6.8555,-6.7734,-6.7187,-6.6289,-6.5117,-6.457,-6.3633,-6.25,-6.1601,-6.0742,-5.9883,-5.8934,-5.8064,-5.7239,-5.6539,-5.626,-5.6246,-5.6058,-5.5991,-5.5799,0.0,0.0,0.0,0.0,0.0,0.0,0.0,0.0,0.0,0.0,0.0,0.0,0.0,0.0,0.0,0.0,0.0,0.0,-6.5936,-6.5859,-6.6551,-6.8205,-6.8282,-6.9436,-7.1937,-7.2052,-7.2514,-7.3437,-7.2552,-7.2168,-7.2245,-7.136,-7.1437,-7.2322,-7.2322,-7.2822,-7.3591,-7.2706,-7.2822,-7.3476,-7.1668,-7.0975,-7.0937,-7.009,-6.9206,-6.8359,-6.7475,-6.6628,-6.582,-6.4897,-6.4051,-6.3346,-6.3346,-6.2858,-6.2255,-6.2293,-6.2255,-6.2397,-6.3281,-6.4743,-6.6628,-6.909,-7.036,-7.1168,-7.1898,-7.2052,-7.136,-6.8821,-6.7552,-6.6459,0.0,0.0,-6.5073,-6.5935,-6.6884,-6.9004,-7.3297,-7.2718,-7.3487,0.0,-7.6654,-7.6147,-7.7664,-7.6772,0.0,-7.8956,-7.9216,-7.8546,-7.6985,-7.6238,-7.5078,-7.3437,-7.2461,-7.1562,-7.0703,-6.9023,-6.7773,-6.6914,-6.6914,-6.6015,-6.4375,-6.4336,-6.3359,-6.1719,-6.0781,-5.9922,-5.914,-5.832,-5.7461,-5.6679,-5.6575,-5.6514,-5.6464,-5.6329,-5.6241,-5.6047,0.0,0.0,0.0,0.0,0.0,0.0,0.0,0.0,0.0,0.0,0.0,0.0,0.0,0.0,0.0,0.0,0.0,0.0,-6.5897,-6.5282,-6.5397,-6.6474,-6.6551,-6.7436,-6.9321,-7.0014,-7.1052,-7.2514,-7.1668,-7.1898,-7.3168,-7.2283,-7.2629,-7.4053,-7.4053,-7.4553,-7.5322,-7.4437,-7.4553,-7.5168,-7.2822,-7.2245,-7.2668,-7.1168,-7.009,-6.9244,-6.8398,-6.7513,-6.6551,-6.5089,-6.4436,-6.4282,-6.4282,-6.4128,-6.4089,-6.4743,-6.4474,-6.4282,-6.5743,-6.6936,-6.809,-6.9398,-7.0783,-7.1591,-7.0552,-7.0321,-6.959,-6.7051,-6.532,-6.396,-6.2975,-6.2805,-6.3499,-6.5608,-6.7856,0.0,-7.4375,-7.6337,0.0,-7.8351,-7.8823,-7.8761,-7.7898,-7.7855,-7.7834,-7.7795,-7.7503,-7.7118,-7.669,-7.5555,-7.4726,-7.4297,-7.2773,-7.1562,-7.0703,-6.9023,-6.7773,-6.6914,-6.6914,-6.6328,-6.5234,-6.4609,-6.3711,-6.2578,-6.1055,-5.9922,-5.918,-5.8945,-5.8359,-5.7617,-5.824,-5.8082,-5.7494,-5.7367,-5.6907,-5.611,0.0,0.0,0.0,0.0,0.0,0.0,0.0,0.0,0.0,0.0,0.0,0.0,0.0,0.0,0.0,0.0,0.0,0.0,0.0,-6.5436,-6.5551,-6.6397,-6.6782,-6.7782,-6.9475,-6.9975,-7.1437,-7.386,-7.186,-7.2168,-7.4553,-7.2937,-7.2967,-7.4373,-7.458,-7.5027,-7.56,-7.5364,-7.5784,0.0,0.0,-7.4168,-7.4399,-7.2706,-7.1514,-7.0591,-6.8975,-6.7628,-6.6436,-6.5474,-6.4666,-6.4089,-6.4474,-6.4359,-6.4282,-6.5513,-6.5551,-6.5551,-6.7205,-6.8321,-6.9244,-7.0475,-7.1514,-7.186,-7.0514,-6.9937,-6.8859,-6.5936,-6.4243,-6.2935,-6.1743,-6.1524,-6.2243,0.0,0.0,0.0,-7.3998,-7.6067,-7.7801,0.0,-8.0246,0.0,-7.9579,-7.8912,-7.8284,-7.7861,-7.7398,-7.6653,-7.5524,-7.4921,-7.4258,-7.3476,-7.2148,-7.0859,-6.9609,-6.9062,-6.8125,-6.6914,-6.6914,-6.625,-6.5,-6.4531,-6.3633,-6.2344,-6.0976,-6.0156,-5.9687,-5.9336,-5.8906,-5.8515,-5.9023,-5.8672,-5.789,-5.7802,-5.7249,-5.6229,0.0,0.0,0.0,0.0,0.0,0.0,0.0,0.0,0.0,0.0,0.0,0.0,0.0,0.0,0.0,0.0,0.0,0.0,0.0,0.0,-6.6397,-6.7244,-6.8129,-6.9244,-7.0706,-7.086,-7.2399,-7.5515,-7.2399,-7.2591,-7.5784,-7.3279,-7.2747,-7.3926,-7.4274,-7.4625,-7.4974,-7.558,-7.6322,-7.7053,-7.6284,-7.5938,-7.5668,0.0,-7.2976,-7.186,-6.9321,-6.7475,-6.6205,-6.609,-6.4974,-6.382,-6.4666,-6.4359,-6.4012,-6.5859,-6.6397,-6.6744,-6.8321,-6.936,-7.036,-7.1668,-7.1937,-7.1591,-7.0629,-6.9783,-6.8244,-6.4936,-6.3666,-6.2666,-6.1089,-6.0781,-6.1473,-6.3474,0.0,-6.6957,-7.3235,-7.417,-7.606,-8.1021,-8.0786,-8.0473,-8.1251,-7.9506,-7.8284,-7.8169,-7.7715,-7.6467,-7.4304,-7.4327,-7.3632,-7.2031,-7.1133,-6.9961,-6.8359,-6.8984,-6.8515,-6.6914,-6.6797,-6.5898,-6.4297,-6.418,-6.3242,-6.164,-6.0781,-6.039,-6.0351,-5.9648,-5.9375,-5.9375,-5.9492,-5.8945,-5.8086,-5.8086,-5.7461,-5.6367,0.0,0.0,0.0,0.0,0.0,0.0,0.0,0.0,0.0,0.0,-6.4766,-6.5648,0.0,0.0,0.0,0.0,0.0,0.0,0.0,0.0,0.0,-6.8129,-6.9013,-6.9629,-6.9898,-7.0552,-7.1552,-7.286,-7.1552,-7.2283,-7.4885,-7.2608,-7.2393,-7.3868,-7.325,-7.3403,-7.4114,-7.4697,-7.5438,-7.6207,-7.6053,-7.5553,-7.4822,-7.386,0.0,0.0,-6.9321,-6.8205,-6.7859,-6.7128,-6.6244,-6.559,-6.6397,-6.609,-6.5936,-6.8321,-6.9052,-6.9244,-7.0206,-7.1091,-7.1668,-7.1245,-7.0629,-6.9706,-6.8129,-6.7128,0.0,-6.3089,-6.2397,-6.2012,-6.0973,-6.0781,-6.205,-6.582,-6.6013,-6.8075,-7.489,-7.5284,-7.6039,0.0,-7.9338,-7.9132,-7.9287,-7.8206,0.0,0.0,-7.5821,-7.5381,-7.5082,-7.3913,-7.2869,-7.2031,-7.1133,-7.0195,-6.9219,-6.8672,-6.789,-6.6875,-6.6172,-6.5273,-6.4297,-6.3555,-6.2656,-6.164,-6.0781,0.0,-6.039,-6.0234,-6.0195,-6.0273,-6.0976,-6.0312,-5.8984,-5.8984,-5.7969,-5.6445,0.0,0.0,0.0,0.0,0.0,0.0,0.0,-6.278,-6.299,-6.3543,-6.4772,-6.5571,-6.5479,-6.582,-6.6005,0.0,0.0,0.0,0.0,0.0,0.0,0.0,-6.9244,-6.9706,-6.9706,-7.009,-7.1129,-7.2899,0.0,-7.1646,-7.4248,-7.2578,-7.2181,-7.2813,-7.2996,-7.3385,-7.3962,-7.4467,-7.5207,-7.6015,-7.6015,-7.5745,-7.5284,0.0,0.0,0.0,0.0,-6.8783,-6.8398,-6.8436,-6.7898,-6.7359,-6.8205,-6.7898,-6.7705,-7.0244,-7.0667,-7.0629,-7.1898,-7.2552,-7.2783,-7.236,-7.1283,-6.9898,-6.8167,0.0,0.0,-6.3166,-6.2397,-6.1985,-6.155,-6.1089,-6.1743,-6.4666,-6.5166,-6.7153,-7.2698,-7.3983,-7.5371,-7.8049,-7.86,-7.8784,-7.8784,-7.7896,-7.713,-7.6707,-7.5143,-7.4104,-7.3867,-7.288,-7.2234,-7.1992,-7.1133,-7.0273,-6.9414,-6.8594,-6.7773,-6.6875,-6.6015,-6.5156,-6.4258,-6.3398,-6.2539,-6.168,-6.125,-6.1094,-6.1094,-6.1094,-6.1094,-6.1055,-6.1055,-6.0273,-5.914,-5.8672,-5.7695,-5.6484,0.0,0.0,0.0,0.0,0.0,0.0,0.0,-6.3099,-6.3272,-6.3882,-6.4961,-6.5578,-6.5247,-6.5397,-6.5638,0.0,0.0,0.0,0.0,0.0,0.0,0.0,0.0,0.0,-6.9975,0.0,0.0,-7.2937,-7.0937,0.0,0.0,0.0,0.0,0.0,-7.245,-7.3099,-7.3677,-7.4221,-7.5053,0.0,0.0,-7.5703,0.0,0.0,0.0,0.0,0.0,-6.9513,-6.9013,-6.9513,-6.936,-6.9052,-6.9744,-6.936,-6.9167,-7.1745,-7.1975,-7.1745,-7.3129,-7.363,-7.3745,-7.3538,-7.2052,-7.0244,-6.8744,-6.709,0.0,-6.3666,-6.2935,-6.2589,-6.2397,-6.1666,-6.1704,-6.3551,-6.3974,-6.559,-7.0014,-7.181,-7.3596,-7.6138,-7.7183,0.0,-7.7906,-7.72,0.0,-7.6746,-7.4553,-7.2971,-7.2328,-7.1922,-7.1727,-7.1719,-7.0898,-7.0039,-6.914,-6.832,-6.7461,-6.6601,-6.5937,-6.5039,-6.3984,-6.332,-6.2539,-6.1719,-6.1719,-6.1719,-6.1719,-6.1719,-6.1719,-6.1601,-6.0742,-5.9922,-5.9101,-5.8203,-5.7344,-5.6484,0.0,0.0,0.0,0.0,0.0,0.0,0.0,-6.398,-6.4262,-6.5048,-6.57,-6.5935,-6.5596,-6.6353,-6.6641,0.0,0.0,0.0,0.0,0.0,0.0,0.0,0.0,0.0,0.0,0.0,0.0,-7.1129,-7.0898,0.0,0.0,0.0,0.0,0.0,0.0,-7.1252,-7.2779,-7.3353,0.0,0.0,0.0,0.0,0.0,0.0,0.0,0.0,0.0,-7.0744,-7.0552,-6.9937,0.0,-7.0667,-7.0744,-7.0244,-7.009,-7.2629,0.0,0.0,-7.3476,-7.4053,-7.4399,-7.3668,-7.1629,-6.9552,-6.8629,0.0,-6.5397,-6.3666,-6.3858,-6.4128,-6.3358,-6.2512,-6.2793,-6.5243,-6.3782,-6.4089,-6.909,-6.9271,-6.9836,-7.2377,0.0,0.0,-7.5033,-7.499,-7.4938,-7.4938,-7.3322,-7.2105,-7.1629,-7.1663,-7.1412,-7.0859,-7.0039,-6.918,-6.832,-6.7461,-6.6562,-6.5703,-6.5625,-6.4726,-6.3125,-6.3047,-6.2539,-6.1719,-6.1719,-6.1719,0.0,-6.1719,-6.1719,-6.1601,-6.0742,-5.9922,-5.9101,-5.8203,-5.7344,-5.6601,0.0,0.0,0.0,0.0,0.0,0.0,-6.398,-6.409,-6.4383,-6.5191,-6.6453,-6.7263,-6.7104,-6.7553,-6.7359,-6.6013,0.0,0.0,0.0,0.0,0.0,0.0,0.0,0.0,0.0,0.0,-7.0898,-7.0898,-7.0898,0.0,0.0,0.0,0.0,0.0,0.0,-7.1254,-7.3123,-7.3006,0.0,0.0,0.0,0.0,0.0,0.0,0.0,0.0,0.0,0.0,-7.086,-7.0514,0.0,0.0,-7.1514,-7.1091,0.0,0.0,-7.3091,-7.363,-7.4091,-7.4861,-7.5284,-7.4437,-7.2322,-7.0052,-6.8706,0.0,-6.5551,-6.432,-6.4359,-6.4474,-6.4166,-6.3012,-6.2447,-6.3447,-6.2332,-6.2358,-6.5436,-6.6013,-6.7244,-7.0321,-7.1437,-7.2476,0.0,0.0,-7.3745,-7.3245,-7.2091,-7.1228,-7.0756,-7.1276,-7.132,-7.0703,-6.9922,-6.9062,-6.8203,-6.6836,-6.5937,-6.5586,-6.4531,-6.3672,-6.2969,-6.2461,-6.2031,-6.1719,-6.1719,-6.1719,0.0,-6.1719,-6.1719,-6.1562,-6.0195,-5.9492,-5.9023,-5.7617,-5.6914,-5.6601,0.0,0.0,0.0,0.0,0.0,-6.3172,-6.4273,-6.4457,-6.4901,-6.6098,-6.7516,-6.8524,-6.8698,-6.874,-6.8321,-6.7128,-6.632,0.0,0.0,0.0,0.0,0.0,0.0,0.0,0.0,0.0,-7.0898,-7.0898,-7.0898,-7.0734,0.0,0.0,-7.0681,-7.033,0.0,0.0,0.0,0.0,0.0,0.0,0.0,0.0,0.0,0.0,0.0,0.0,0.0,0.0,0.0,0.0,0.0,0.0,-7.1629,-7.1398,-7.1052,0.0,-7.2629,-7.3245,-7.3822,-7.4784,-7.5399,-7.4553,-7.2629,-7.0514,0.0,0.0,-6.5743,-6.5128,-6.4974,-6.4974,-6.4974,-6.3589,-6.2435,-6.2435,-6.1512,-6.1281,-6.2743,-6.3666,-6.5128,-6.7513,0.0,-6.9821,-7.1822,-7.2668,-7.2745,-7.186,-7.1014,-7.034,-6.9823,-7.0155,-7.022,-6.9961,-6.914,-6.832,-6.7422,-6.5976,-6.5078,-6.4805,-6.3867,-6.3125,-6.2617,-6.2265,-6.1953,-6.1719,-6.1719,-6.1719,0.0,-6.1719,-6.1719,-6.1562,-6.0117,-5.9531,-5.9336,-5.7617,-5.6992,-5.6953,0.0,0.0,0.0,0.0,0.0,0.0,-6.5044,-6.5301,-6.6047,-6.8193,-6.8956,-6.9473,-7.0006,-6.9826,-6.9667,-6.9667,-6.7359,0.0,0.0,0.0,0.0,0.0,0.0,0.0,0.0,0.0,-7.0898,-7.0898,-7.0898,-7.0898,-7.0898,-7.0898,-7.0898,-7.0898,0.0,0.0,0.0,0.0,0.0,0.0,0.0,0.0,0.0,0.0,0.0,0.0,0.0,0.0,0.0,0.0,0.0,0.0,0.0,-7.0898,-7.1052,-7.1937,-7.2206,-7.2206,-7.2206,-7.3437,-7.4514,-7.3692,-7.2206,-7.0706,0.0,-6.7705,-6.5897,-6.5897,-6.5897,-6.5897,-6.5897,-6.4474,-6.3269,-6.3269,-6.1897,-6.1089,-6.1985,-6.282,-6.332,0.0,-6.4128,-6.5667,-6.8205,-7.0744,-7.186,-7.0975,-7.0167,0.0,-6.8935,-6.8093,-6.7803,-6.8203,-6.7383,-6.6523,-6.5625,-6.4765,-6.3867,-6.3047,-6.3867,-6.3398,-6.1758,-6.2617,-6.2539,-6.1719,-6.1719,-6.1719,0.0,-6.1719,-6.1719,-6.1601,-6.0742,-6.039,-6.0195,-5.8515,-5.789,-5.7773,0.0,0.0,0.0,0.0,0.0,0.0,0.0,-6.4494,-6.5262,-6.7398,-6.8152,-6.9114,-7.0823,-7.0209,-7.0167,-7.1321,-6.909,0.0,0.0,0.0,0.0,0.0,0.0,0.0,0.0,-7.0898,-7.0898,-7.0898,-7.0898,-7.0898,-7.0898,-7.1514,-7.1783,-7.1822,-7.1965,-7.2763,0.0,0.0,0.0,0.0,0.0,0.0,0.0,0.0,0.0,0.0,0.0,0.0,0.0,0.0,0.0,0.0,0.0,0.0,0.0,-7.1245,-7.1745,-7.2206,-7.2206,-7.2591,-7.2937,-7.2668,-7.1321,-6.986,-6.9013,-6.7744,-6.6551,-6.6013,-6.5897,-6.5897,-6.5897,-6.4474,-6.3308,-6.3308,-6.1897,-6.0896,-6.1166,0.0,0.0,-6.4859,-6.7321,-6.9013,0.0,0.0,-6.986,-6.8398,-6.7552,-6.6863,-6.6322,-6.5486,-6.5702,-6.7265,-6.6484,-6.5586,-6.4726,-6.3867,-6.3281,-6.3008,-6.2695,-6.2226,-6.1719,-6.1992,-6.1953,-6.1719,-6.1719,-6.1719,-6.1719,-6.1719,-6.1719,-6.1601,-6.0742,-6.039,-6.0273,-5.918,-5.8398,-5.7851,0.0,0.0,0.0,0.0,0.0,0.0,0.0,-6.409,-6.4808,-6.6836,-6.7413,-6.8508,-7.0926,-7.0297,-7.036,-7.2052,-7.0437,0.0,0.0,0.0,0.0,0.0,0.0,0.0,-7.0898,-7.0898,-7.0898,-7.0898,-7.0898,-7.0744,-7.0475,-7.1321,-7.1706,-7.1731,-7.2226,-7.3139,0.0,0.0,0.0,0.0,0.0,0.0,-7.5336,0.0,0.0,0.0,0.0,0.0,0.0,0.0,0.0,0.0,0.0,0.0,0.0,0.0,-7.1052,-7.1321,-7.1629,-7.1937,-7.2129,-7.1783,-7.0937,-6.986,-6.8667,-6.7744,-6.6859,-6.6051,-6.5897,-6.5782,-6.5474,-6.4243,-6.3192,-6.2897,-6.1704,-6.0781,-6.0781,0.0,0.0,-6.4705,-6.7321,0.0,0.0,-6.8282,-6.7821,-6.6744,-6.5551,-6.4816,-6.461,-6.3774,-6.3943,-6.539,-6.4883,-6.4375,-6.3828,-6.2969,-6.25,-6.25,-6.1953,-6.1719,-6.1719,-6.1719,-6.1719,-6.1719,-6.1719,-6.1719,0.0,-6.1367,-6.1406,-6.1562,-6.039,-6.0117,-6.0273,-5.914,-5.8359,-5.7851,0.0,0.0,0.0,0.0,0.0,0.0,0.0,-6.403,-6.4705,-6.6458,-6.6748,-6.7782,-7.0445,-7.0129,-7.0321,-7.1898,0.0,0.0,0.0,0.0,0.0,0.0,0.0,0.0,-7.0898,-7.0898,-7.0898,-7.0898,-7.0975,-7.0591,-6.9821,-7.0667,-7.1091,-7.1129,-7.1975,-7.286,0.0,0.0,0.0,0.0,-7.6258,-7.6191,0.0,0.0,0.0,0.0,0.0,0.0,0.0,0.0,0.0,0.0,0.0,0.0,0.0,0.0,0.0,0.0,0.0,-7.1321,-7.1668,-7.1052,-7.0744,-7.0244,-6.8744,-6.7744,0.0,-6.6051,-6.5897,-6.5628,-6.4743,-6.3897,-6.3051,-6.2216,-6.1358,-6.0781,0.0,-6.1716,0.0,0.0,-6.5089,0.0,-6.5897,-6.5897,-6.5859,-6.5705,-6.4166,-6.3338,-6.3586,-6.2821,-6.2565,-6.289,-6.2812,-6.2812,-6.289,-6.2109,-6.1719,-6.1719,-6.1719,-6.1719,-6.1719,-6.1719,-6.1719,0.0,-6.1719,-6.164,-6.1562,-6.0781,-6.0898,-6.1367,-5.9883,-5.9726,-6.0117,-5.8555,-5.7969,-5.7773,0.0,0.0,0.0,0.0,0.0,0.0,0.0,0.0,0.0,0.0,-6.6251,-6.713,-6.8806,-6.9398,-6.986,0.0,0.0,0.0,0.0,0.0,0.0,0.0,0.0,0.0,-7.0898,-7.0898,-7.0898,-7.0898,-7.1552,-7.1475,-7.0667,-7.2168,-7.2899,-7.2937,-7.3745,-7.4591,0.0,0.0,0.0,0.0,-7.5862,-7.5775,0.0,0.0,0.0,0.0,-7.4476,-7.3899,0.0,0.0,0.0,0.0,0.0,0.0,0.0,0.0,-7.1283,-7.0514,-7.009,0.0,-6.8706,-7.0475,-6.9436,-6.8052,0.0,-6.7744,0.0,0.0,0.0,0.0,0.0,0.0,0.0,-6.2216,-6.1358,-6.0781,-6.0781,-6.3243,0.0,-6.5282,-6.7359,-6.8052,-6.609,-6.5897,-6.5359,-6.4012,-6.2974,-6.2183,-6.1685,-6.1469,-6.1525,-6.1837,-6.1123,-6.1114,-6.1992,-6.1797,-6.1719,-6.1719,-6.1719,-6.1719,-6.1719,-6.1719,-6.1719,-6.1719,-6.1719,-6.1328,-6.0742,-6.1211,-6.0742,-5.9805,-6.0039,-5.9844,-5.9414,-5.9023,-5.8476,-5.7851,0.0,0.0,0.0,0.0,0.0,0.0,0.0,0.0,0.0,0.0,0.0,0.0,0.0,0.0,0.0,0.0,0.0,0.0,0.0,0.0,0.0,0.0,0.0,-7.0898,-7.0898,-7.0898,-7.1091,-7.1514,-7.1975,-7.1937,-7.1514,-7.2476,-7.3129,-7.3553,-7.4745,-7.5553,-7.6015,-7.6438,-7.6394,-7.6126,-7.6463,0.0,0.0,0.0,0.0,0.0,-7.4861,-7.4437,0.0,-7.4053,-7.4053,-7.4053,0.0,0.0,0.0,0.0,-7.1321,-7.0244,-6.9821,-6.9013,-6.8629,-7.0014,-6.9013,-6.7821,-6.8269,-6.7744,0.0,0.0,0.0,0.0,0.0,0.0,0.0,-6.1704,-6.1089,0.0,0.0,0.0,-6.5013,-6.5782,-6.7128,-6.7552,0.0,-6.5397,-6.432,-6.3346,-6.2166,-6.134,-6.1027,-6.0997,-6.1111,-6.1392,-6.0482,-6.0504,-6.1588,-6.1139,-6.1139,-6.1629,-6.1629,-6.1635,-6.1719,-6.1719,-6.1719,-6.1719,-6.1719,-6.1211,-6.039,-6.0508,-6.0039,-5.914,-5.8789,-5.8633,-5.8555,-5.8164,-5.7695,-5.7305,0.0,0.0,0.0,0.0,0.0,0.0,0.0,0.0,0.0,0.0,0.0,0.0,0.0,0.0,0.0,0.0,0.0,0.0,0.0,0.0,0.0,0.0,-7.1629,-7.1091,-7.1091,-7.1245,-7.1668,-7.2399,-7.2514,-7.2514,-7.2399,-7.2399,-7.2783,-7.3591,-7.5245,-7.6015,-7.6053,-7.6938,-7.7284,-7.7323,-7.7438,0.0,0.0,0.0,0.0,0.0,0.0,0.0,0.0,-7.4899,-7.4822,-7.4707,-7.4707,0.0,0.0,0.0,0.0,0.0,-6.9744,-6.959,-6.9513,-6.9513,-6.8744,-6.8052,-6.8167,0.0,0.0,0.0,0.0,0.0,0.0,-6.3308,0.0,0.0,0.0,0.0,-6.2524,-6.3281,-6.4282,-6.5897,-6.609,0.0,-6.6859,-6.4705,-6.3308,-6.3308,-6.1743,-6.0856,-6.0973,-6.0827,-6.0854,-6.1052,-6.0067,-6.0022,-6.1034,-6.0336,-6.0511,-6.1504,-6.1504,-6.1577,-6.1719,-6.1719,-6.164,-6.1484,-6.1484,0.0,-5.9961,-5.9414,-5.9023,-5.8672,-5.7305,-5.7187,-5.7617,-5.7031,-5.6719,-5.6601,0.0,0.0,0.0,0.0,0.0,0.0,0.0,0.0,0.0,0.0,0.0,0.0,0.0,0.0,0.0,0.0,0.0,0.0,0.0,0.0,0.0,-7.4245,-7.2822,-7.2014,-7.2014,-7.2706,-7.3168,-7.3322,-7.3976,-7.3976,-7.3322,-7.3322,-7.336,-7.3591,-7.5245,-7.6015,-7.6053,-7.6938,-7.7284,-7.7361,-7.8015,0.0,0.0,0.0,0.0,0.0,0.0,0.0,0.0,-7.5784,-7.5322,-7.4707,-7.4707,0.0,0.0,0.0,0.0,0.0,-6.9898,-6.9167,-6.859,-6.859,-6.7436,-6.6474,-6.7128,-6.6667,-6.6051,0.0,0.0,0.0,0.0,-6.3308,-6.2743,0.0,0.0,-6.2716,0.0,0.0,-6.5859,-6.6782,0.0,-6.6705,-6.6128,-6.4397,-6.3308,-6.3308,-6.1743,-6.0804,-6.0811,-6.0118,-5.9832,-6.0002,-5.8355,-5.7939,-5.894,-5.9652,-6.0511,-6.1504,-6.1504,-6.1577,-6.1719,-6.1719,-6.1289,-6.0586,0.0,-5.9726,-5.832,-5.8945,-5.832,-5.7031,-5.7539,-5.7344,-5.6875,-5.7461,-5.7226,-5.6601,0.0,0.0,0.0,0.0,0.0,0.0,0.0,0.0,0.0,0.0,0.0,0.0,0.0,0.0,0.0,0.0,0.0,0.0,0.0,0.0,-7.2745,-7.4014,-7.4168,-7.3822,-7.2937,-7.3283,-7.3692,-7.4168,-7.4514,-7.4976,-7.5553,-7.5553,-7.5053,-7.4207,-7.5438,-7.6015,-7.6053,-7.6938,-7.7553,-7.7977,0.0,0.0,0.0,0.0,0.0,0.0,0.0,0.0,0.0,0.0,-7.5438,-7.4707,-7.4707,0.0,0.0,0.0,0.0,0.0,-6.9937,-6.9398,-6.8898,-6.7936,-6.6436,-6.5436,-6.6244,-6.5436,-6.4628,0.0,0.0,0.0,0.0,0.0,-6.2551,-6.2204,0.0,-6.3474,-6.559,-6.5474,-6.5667,0.0,0.0,-6.632,-6.5936,-6.432,-6.3128,-6.2666,-6.1512,-6.0781,-6.0781,-5.9973,-5.954,-5.9629,-5.7934,-5.7664,-5.9021,-5.9068,-5.9636,-6.069,-6.1153,-6.1504,-6.1719,-6.1719,-6.1484,-6.1094,0.0,-5.9726,-5.8594,-5.8515,-5.7734,-5.668,-5.7578,-5.7383,-5.6719,-5.7578,-5.793,-5.8008,0.0,0.0,0.0,0.0,0.0,0.0,0.0,0.0,0.0,0.0,0.0,0.0,0.0,0.0,0.0,0.0,0.0,0.0,0.0,-7.2514,-7.2976,-7.4053,-7.5372,-7.5449,-7.4115,-7.4284,-7.4784,-7.5592,-7.5399,-7.5976,-7.7284,-7.7284,-7.6476,-7.5014,-7.5707,-7.6015,-7.6053,-7.713,-7.7938,-7.8515,0.0,0.0,0.0,0.0,0.0,0.0,0.0,0.0,0.0,0.0,0.0,0.0,0.0,0.0,0.0,-7.1937,-7.1398,-7.0783,-7.0167,-6.986,-6.9321,-6.7782,-6.6282,-6.532,-6.5782,-6.4859,-6.4089,-6.4782,-6.4205,0.0,0.0,-6.2216,0.0,-6.3166,-6.3462,-6.4205,-6.5936,-6.5436,-6.5513,-6.7205,-6.6513,-6.5897,-6.5897,-6.432,-6.2974,-6.2178,-6.1281,-6.0704,-6.0512,-5.9665,-5.9127,-5.8934,-5.7484,-5.7407,-5.8896,-5.8539,-5.9008,-6.0328,-6.0978,-6.1424,-6.1719,-6.1719,-6.1484,-6.1094,-6.0625,-5.9844,-5.8867,-5.8398,-5.7812,-5.7265,-5.793,-5.789,-5.7539,-5.8047,-5.8867,-5.9726,0.0,0.0,0.0,0.0,0.0,0.0,0.0,0.0,0.0,0.0,0.0,0.0,0.0,0.0,0.0,0.0,0.0,0.0,0.0,-7.3399,-7.413,-7.5745,-7.6118,-7.6123,-7.5808,-7.6592,-7.74,-7.8207,-7.7476,-7.7169,-7.7284,-7.7284,-7.6784,-7.5899,-7.5976,-7.6015,-7.6092,-7.7707,-7.8438,-7.8631,-8.0246,0.0,0.0,0.0,0.0,0.0,0.0,0.0,0.0,0.0,0.0,0.0,0.0,0.0,-7.2052,-7.1245,-7.0937,-7.0898,-7.0821,-7.0283,-6.9475,-6.8552,-6.7628,-6.6744,-6.6051,-6.5782,-6.5743,-6.5782,-6.5128,-6.4243,-6.3358,-6.2589,-6.2358,-6.3166,-6.3974,-6.5089,-6.6782,0.0,-6.6436,-6.8129,-6.6898,-6.5897,-6.5897,-6.432,-6.2974,-6.2178,-6.1281,-6.0435,-5.9627,-5.8819,-5.8011,-5.7214,-5.6291,-5.6242,-5.7176,-5.8046,-5.9398,-6.1211,-6.1289,-6.1424,-6.1719,-6.1719,-6.0859,-5.9414,-6.0117,-5.9492,-5.8047,-5.8789,-5.9062,-5.9023,-5.9062,-5.9531,-6.0039,-5.9375,-6.0117,-6.1289,0.0,0.0,0.0,0.0,0.0,0.0,0.0,0.0,0.0,0.0,0.0,0.0,0.0,0.0,0.0,0.0,0.0,0.0,0.0,-7.3206,-7.3859,-7.4681,-7.5753,-7.6593,-7.7037,-7.696,-7.7246,-7.7955,-7.8185,-7.7955,-7.7323,-7.7823,-7.7323,-7.6015,-7.6015,-7.6284,-7.6861,-7.8015,-7.8823,-7.94,-8.0631,-8.0592,0.0,0.0,0.0,0.0,0.0,0.0,0.0,0.0,-7.5091,-7.3899,-7.3577,-7.2514,-7.1321,-7.1014,-7.0898,-7.0898,-7.0898,-7.0321,-6.9629,-6.9283,-6.8167,-6.6898,-6.609,-6.5897,-6.559,-6.4512,-6.4436,-6.4166,-6.282,0.0,-6.2563,-6.3897,-6.4397,-6.5359,-6.759,-6.7167,-6.709,-6.8282,-6.7359,-6.6244,-6.5205,-6.4012,-6.2743,-6.1396,-6.0473,-5.9858,-5.9511,-5.8204,-5.7319,-5.7022,-5.6126,-5.6126,-5.6983,-5.7476,-5.8629,-6.0517,-6.1144,-6.1515,-6.1719,-6.1719,-6.1055,-5.9961,-6.0273,-5.9765,-5.8711,-5.9062,-5.9219,-5.9219,-5.9219,-6.0039,-6.1094,-6.0273,-6.0703,-6.1601,0.0,0.0,0.0,0.0,0.0,0.0,0.0,0.0,0.0,0.0,0.0,0.0,0.0,0.0,0.0,0.0,0.0,0.0,-7.2476,-7.3168,-7.3707,-7.427,-7.5475,-7.6501,-7.7376,-7.6827,-7.7137,-7.839,-7.8981,-7.8877,-7.8092,-7.8361,-7.79,-7.6784,-7.6515,-7.6746,-7.7361,-7.8169,-7.8707,-7.9131,-8.0246,-8.0169,0.0,0.0,0.0,0.0,0.0,0.0,0.0,0.0,-7.5053,-7.3808,-7.3591,-7.2476,-7.1245,-7.0975,-7.0898,-7.0821,-7.0591,-7.0283,-6.9937,-6.9436,0.0,-6.7628,-6.6513,-6.609,-6.5628,-6.4705,-6.4551,-6.4089,-6.2409,-6.2101,-6.2486,0.0,-6.4243,-6.5205,-6.6974,-6.6705,-6.6513,-6.7128,-6.6436,-6.5359,-6.3935,-6.3281,-6.232,-6.0896,-5.9973,-5.9396,-5.9127,-5.778,-5.6868,-5.6599,-5.6011,-5.6126,-5.6983,-5.716,-5.8072,-5.9588,-6.0332,-6.103,-6.1719,-6.1719,-6.1211,-6.043,-6.0703,-6.0351,-5.9609,-5.9883,-6.0,-6.0,-6.0,-6.0703,-6.164,-6.1015,-6.1172,-6.1719,0.0,0.0,0.0,0.0,0.0,0.0,0.0,0.0,0.0,0.0,0.0,0.0,0.0,0.0,0.0,0.0,0.0,0.0,-7.3322,-7.3514,-7.3975,-7.5033,-7.5346,-7.5856,-7.6685,-7.6319,-7.7452,-8.0067,-8.0067,-7.9986,-7.9785,-7.89,-7.8477,-7.8438,-7.7669,-7.7323,-7.7361,-7.8169,-7.8015,-7.7438,-7.9131,-7.9285,-7.8477,0.0,0.0,0.0,0.0,0.0,0.0,0.0,-7.5438,-7.4553,-7.3745,-7.2899,-7.2014,-7.1168,-7.0898,-7.0744,-6.9937,-7.0283,-7.0475,-6.8859,0.0,0.0,-6.7513,-6.6474,-6.6128,-6.6936,-6.5743,-6.4089,-6.2447,-6.2139,-6.2101,-6.2139,-6.3512,-6.4589,-6.4589,-6.4589,-6.4589,-6.4589,-6.382,-6.2974,-6.2178,-6.2101,-6.1755,-6.0858,-5.9973,-5.9127,-5.8357,-5.7473,-5.6599,-5.5742,-5.5703,-5.6088,-5.6983,-5.724,-5.7831,-5.8688,-5.8811,-5.986,-6.168,-6.168,-6.1211,-6.0469,-6.1328,-6.1211,-6.0469,-6.1328,-6.1719,-6.1719,-6.1719,-6.1719,-6.1719,-6.1719,-6.1719,-6.1719,0.0,0.0,0.0,0.0,0.0,0.0,0.0,0.0,0.0,0.0,0.0,0.0,0.0,0.0,0.0,0.0,0.0,0.0,-7.3346,-7.3514,-7.3811,-7.4513,-7.5567,-7.6154,-7.6144,-7.7122,-7.8249,-7.9469,-7.8842,-7.8674,-7.8861,-7.8631,-7.8207,-7.7669,-7.7977,-7.813,-7.8169,-7.84,-7.8361,-7.8169,-7.8669,-7.8707,-7.8477,0.0,0.0,0.0,0.0,0.0,0.0,0.0,0.0,0.0,-7.3591,-7.2476,-7.136,-7.1706,-7.1822,-7.1745,-7.1514,-7.0783,-7.0052,-7.0129,0.0,0.0,0.0,-6.7359,0.0,0.0,-6.4897,-6.3743,-6.382,-6.3358,-6.3128,-6.3743,-6.3782,-6.3897,-6.4512,-6.4089,-6.3705,-6.3705,-6.3474,-6.2974,-6.2178,-6.2101,-6.1755,-6.0858,-5.9473,-5.855,-5.8319,-5.6896,-5.5972,-5.5703,-5.5703,-5.5818,-5.6088,-5.6417,-5.6975,-5.7798,-5.8673,-5.9686,-6.0781,-6.0691,-6.0575,-6.0469,-6.1328,-6.1211,-6.0469,-6.1328,-6.1719,-6.1719,-6.1719,-6.1719,-6.1719,-6.1719,-6.1719,-6.1719,0.0,0.0,0.0,0.0,0.0,0.0,0.0,0.0,0.0,0.0,-6.7359,-6.8385,0.0,0.0,0.0,0.0,0.0,0.0,0.0,-7.3976,-7.4325,-7.5087,-7.5716,-7.6006,-7.5995,-7.7504,-7.8614,-7.9198,-7.867,-7.8458,-7.8515,-7.8861,-7.8554,-7.7823,-7.8631,-7.8823,-7.8477,-7.8169,-7.763,-7.6976,-7.6976,-7.6784,-7.6592,0.0,0.0,0.0,0.0,0.0,0.0,0.0,0.0,0.0,-7.3976,-7.3053,-7.1975,-7.2129,-7.2206,-7.2052,-7.1398,-7.0475,-6.9667,-6.9436,-6.8244,-6.7051,-6.6936,0.0,0.0,0.0,-6.5051,-6.4397,-6.4589,-6.3628,-6.3012,-6.3512,-6.3166,-6.3012,-6.3512,-6.3166,-6.282,-6.282,-6.2512,-6.1973,-6.1127,-6.105,-6.0858,-6.0319,-5.8742,-5.7934,-5.828,-5.6665,-5.5549,-5.5241,-5.5511,-5.5549,-5.5241,-5.5874,-5.643,-5.6942,-5.8083,-5.9059,-5.9922,-6.0538,-6.0852,-6.0937,-6.1484,-6.1406,-6.0976,-6.1484,-6.1719,-6.1719,-6.1719,-6.1719,-6.1719,-6.1719,-6.1719,-6.1719,0.0,0.0,0.0,0.0,0.0,0.0,0.0,0.0,0.0,0.0,-6.7321,-6.8385,0.0,0.0,0.0,0.0,0.0,0.0,0.0,-7.4707,-7.5219,-7.6348,-7.591,-7.5845,-7.6316,-7.758,-7.8614,-7.9198,-7.9116,-7.8861,-7.853,-7.9323,-7.9246,-7.8515,-7.94,-7.9323,-7.8438,-7.7553,-7.6207,-7.4707,-7.463,-7.4168,-7.3668,-7.5207,0.0,0.0,0.0,0.0,0.0,0.0,0.0,0.0,-7.4707,-7.4168,-7.336,-7.2629,-7.236,-7.1975,-7.0475,-6.9937,-6.9398,-6.7744,-6.7205,0.0,-6.4974,-6.5782,-6.6628,-6.582,0.0,-6.5513,-6.4628,-6.332,-6.232,-6.2204,-6.2166,-6.2089,-6.2101,-6.2024,-6.1985,-6.1985,-6.1204,-6.0358,-5.9588,-5.9435,-5.9396,-5.9396,-5.7896,-5.7368,-5.8127,-5.6588,-5.5318,-5.4511,-5.528,-5.5318,-5.4511,-5.5641,-5.6191,-5.6197,-5.7297,-5.8298,-5.9218,-6.0819,-6.16,-6.1678,-6.1679,-6.1679,-6.1679,-6.168,-6.1719,-6.1719,-6.1719,-6.1719,-6.1719,-6.1719,-6.1719,-6.1719,0.0,0.0,0.0,0.0,0.0,0.0,0.0,0.0,0.0,0.0,0.0,0.0,0.0,0.0,0.0,0.0,0.0,0.0,0.0,-7.4707,-7.5219,-7.6348,-7.6609,-7.711,-7.783,-7.8153,-7.8614,-7.9198,-7.8352,-7.8137,-7.8477,-7.8669,-7.8669,-7.8515,-7.94,-7.9323,-7.84,-7.6899,-7.5668,-7.463,-7.4014,-7.3654,-7.3538,-7.3899,-7.4322,0.0,0.0,0.0,0.0,0.0,0.0,0.0,-7.4707,-7.4168,-7.3591,-7.4014,-7.3707,-7.3129,-7.2783,-7.1668,0.0,-6.9398,-6.809,-6.6667,-6.4974,-6.4897,-6.4897,-6.4051,-6.4397,-6.4628,-6.3743,-6.3858,-6.3858,-6.3166,-6.2512,-6.2089,-6.2101,-6.1524,-6.1089,-6.1089,-6.0319,-5.9704,-5.9511,-5.8934,-5.855,-5.855,-5.7588,-5.7099,-5.7291,-5.628,-5.5318,-5.4511,-5.528,-5.5318,-5.4511,-5.5641,-5.6191,-5.6236,-5.8014,-5.8896,-5.8983,-5.9942,-6.072,-6.1383,-6.1501,-6.1525,-6.1568,-6.1677,-6.1719,-6.1719,-6.1719,-6.1719,-6.1719,-6.1719,-6.1719,-6.1719,0.0,0.0,0.0,0.0,0.0,0.0,0.0,0.0,0.0,0.0,0.0,0.0,0.0,0.0,0.0,0.0,-7.2591,0.0,0.0,0.0,-7.5682,-7.6513,-7.7551,-7.819,-7.8309,-7.8576,-7.8822,-7.9052,-7.8368,-7.8179,-7.8515,-7.8938,-7.89,-7.8515,-7.94,-7.9092,-7.7823,-7.6092,-7.4668,-7.3437,-7.2591,-7.2245,-7.2322,-7.2706,-7.3399,-7.4168,-7.4553,0.0,0.0,0.0,0.0,0.0,0.0,0.0,-7.4707,-7.4707,-7.413,-7.3399,-7.2976,0.0,0.0,-6.8783,0.0,-6.6205,-6.4897,-6.4282,-6.3743,-6.2897,-6.3397,-6.3846,-6.3385,-6.3346,-6.3269,-6.282,-6.2012,-6.1485,-6.1485,-6.1089,-6.0781,-6.0781,-6.0012,-5.9358,-5.8973,-5.8165,-5.7665,-5.7665,-5.6857,-5.656,-5.6983,-5.5818,-5.4741,-5.3895,-5.428,-5.4318,-5.3895,-5.5021,-5.5808,-5.6236,-5.783,-5.8889,-5.9434,-6.0272,-6.0861,-6.1289,-6.1364,-6.1424,-6.1507,-6.1579,-6.1635,-6.1719,-6.1719,-6.1719,-6.1719,-6.1719,-6.1719,-6.1719,0.0,0.0,0.0,0.0,0.0,0.0,0.0,0.0,0.0,0.0,0.0,0.0,0.0,0.0,-7.1245,0.0,0.0,0.0,0.0,0.0,0.0,-7.6863,-7.8466,-7.9058,-7.8458,-7.9034,-7.9177,-7.873,-7.8585,-7.8369,-7.8154,-7.8985,-7.8977,-7.8323,-7.9054,-7.8515,-7.6938,-7.5245,-7.363,-7.2129,-7.1245,-7.0975,-7.1206,-7.1937,-7.2822,-7.3783,-7.4322,-7.513,-7.5976,-7.5822,0.0,0.0,0.0,0.0,-7.5822,-7.4976,-7.413,-7.3322,-7.2437,0.0,-6.9321,-6.7705,-6.6705,0.0,-6.482,-6.3935,-6.3089,-6.2293,-6.2615,-6.3038,-6.2885,-6.2449,-6.2065,-6.1897,-6.1281,-6.0781,-6.0781,-6.0781,-6.0742,-6.0589,-5.9819,-5.8973,-5.8165,-5.728,-5.6791,-5.6791,-5.6088,-5.6011,-5.6753,-5.5472,-5.4318,-5.3433,-5.3549,-5.3569,-5.3465,-5.4575,-5.5507,-5.6271,-5.7306,-5.858,-6.0026,-6.0676,-6.1084,-6.12,-6.1234,-6.1318,-6.1417,-6.1435,-6.152,-6.1634,-6.1677,-6.1637,-6.1634,-6.1679,-6.1679,-6.1678,0.0,0.0,0.0,0.0,0.0,0.0,0.0,0.0,0.0,0.0,-6.7436,-6.8744,0.0,0.0,0.0,-7.2129,-7.3014,0.0,0.0,0.0,0.0,-7.7513,-7.9093,-7.9685,-7.9081,-7.9663,-7.9367,-7.8126,-7.8394,-7.7883,-7.6688,-7.7323,-7.7553,-7.7476,-7.7592,-7.7092,-7.6053,-7.4399,-7.3091,-7.2129,-7.1245,-7.136,-7.2052,-7.2168,-7.3168,-7.4476,-7.386,-7.4668,-7.5861,-7.513,-7.5399,0.0,0.0,0.0,-7.5822,-7.4976,-7.413,-7.3322,0.0,0.0,-6.9475,0.0,-6.759,-6.6513,0.0,0.0,-6.3089,0.0,-6.2178,-6.2012,-6.1281,-6.1666,-6.1858,-6.1089,-6.0858,-6.0781,-6.0781,-6.0781,-6.0512,-5.9742,-5.8973,-5.8127,-5.7253,-5.6406,-5.5857,-5.5857,-5.578,-5.5742,-5.5857,-5.5665,-5.5164,-5.4357,-5.5011,-5.5094,-5.4497,-5.5527,-5.6134,-5.6374,-5.713,-5.8359,-5.9982,-5.9832,-6.0134,-6.0877,-6.1,-6.1065,-6.1066,-6.1259,-6.1328,-6.1359,-6.1491,-6.1474,-6.1373,-6.1591,-6.1632,-6.1527,0.0,0.0,0.0,0.0,0.0,0.0,0.0,0.0,0.0,0.0,0.0,-6.9436,0.0,0.0,0.0,0.0,0.0,0.0,0.0,0.0,0.0,-7.8313,-7.9019,-7.9512,-7.9706,-7.9969,-7.9496,-7.8273,-7.842,-7.7693,-7.6175,-7.644,-7.6553,-7.6553,-7.6553,-7.5822,-7.4476,-7.2783,-7.1822,-7.1398,-7.0552,-7.0167,-7.0167,-7.1091,-7.1668,-7.1975,-7.2552,-7.386,-7.5207,-7.4822,-7.5284,-7.6015,-7.6015,0.0,0.0,0.0,-7.413,-7.3206,-7.1822,-7.0244,-6.9013,0.0,-6.7782,-6.6244,-6.5513,-6.4666,-6.3666,-6.237,-6.2101,-6.1831,-6.0973,-6.1089,-6.1243,-6.0858,-6.0781,-6.0781,-6.0781,-6.0781,-6.0473,-5.9588,-5.8781,-5.7973,-5.7099,-5.6214,-5.5895,-5.6406,-5.5972,-5.5895,-5.6406,-5.5549,-5.4857,-5.4511,-5.4357,-5.438,-5.4573,-5.5178,-5.5792,-5.6428,-5.7069,-5.8007,-5.918,-5.9387,-5.9973,-6.0793,-6.085,-6.0906,-6.1006,-6.1105,-6.12,-6.1295,-6.1359,-6.1344,-6.1301,-6.1417,-6.1495,-6.1507,0.0,0.0,0.0,0.0,0.0,0.0,0.0,0.0,0.0,0.0,0.0,0.0,0.0,0.0,0.0,0.0,0.0,0.0,0.0,0.0,0.0,-7.8764,-7.9205,-7.974,-8.0352,-8.0161,-7.9466,-7.8299,-7.8239,-7.7354,-7.5749,-7.5932,-7.5861,-7.5668,-7.5899,-7.5053,-7.3399,-7.1898,-7.0975,-7.0514,-6.9475,-6.8783,-6.85,-6.9552,-6.9821,-6.986,-7.1129,-7.2783,-7.4399,-7.4399,-7.513,-7.6015,-7.6015,-7.6015,0.0,0.0,0.0,0.0,0.0,0.0,-6.8898,-6.9552,-6.7936,-6.6244,0.0,0.0,-6.432,0.0,-6.2716,-6.2127,-6.1281,-6.0935,-6.0781,-6.0781,-6.0781,-6.0781,-6.0781,-6.0781,-6.0473,-5.9588,-5.8973,-5.8165,-5.7099,-5.6406,-5.6291,-5.6945,-5.6406,-5.6329,-5.6983,-5.5818,-5.5011,-5.4818,-5.4164,-5.4157,-5.4843,-5.508,-5.5637,-5.6389,-5.6801,-5.7533,-5.854,-5.8978,-5.9781,-6.0781,-6.0781,-6.0877,-6.0944,-6.0944,-6.1053,-6.1196,-6.1207,-6.1193,-6.1165,-6.1253,-6.1334,-6.14,0.0,0.0,0.0,0.0,0.0,0.0,0.0,0.0,0.0,0.0,0.0,0.0,-7.0821,-7.0898,-7.1245,-7.2129,-7.3014,0.0,0.0,0.0,0.0,-7.8523,-8.01,0.0,-8.1061,-8.0254,-7.9139,-7.774,-7.7483,-7.66,-7.5145,-7.5718,-7.5553,-7.4822,-7.563,-7.5053,-7.3437,-7.2514,-7.1206,-6.9629,-6.7936,-6.7705,-6.8321,-6.759,-6.8282,-6.9706,-6.9821,-7.1437,-7.3553,-7.3553,-7.4668,-7.6015,-7.6015,-7.6015,-7.5668,0.0,0.0,0.0,0.0,-7.0283,0.0,-6.9706,-6.8359,0.0,0.0,0.0,-6.482,-6.5551,-6.4397,-6.2974,-6.2166,-6.1358,-6.0781,-6.0781,-6.0781,-6.0781,-6.0781,-6.0781,-6.0473,-5.9588,-5.9473,-5.8781,-5.7176,-5.6945,-5.6945,-5.6983,-5.6945,-5.6945,-5.6983,-5.6907,-5.6483,-5.5665,-5.5588,-5.5634,-5.5822,-5.6032,-5.6221,-5.6389,-5.611,-5.6853,-5.8501,-5.841,-5.9242,-6.0781,-6.0781,-6.0793,-6.0804,-6.0804,-6.0816,-6.0823,-6.0963,-6.0954,-6.0856,-6.1165,-6.1193,-6.1058,0.0,0.0,0.0,0.0,0.0,0.0,0.0,0.0,0.0,0.0,0.0,0.0,0.0,-7.1398,-7.2091,-7.2976,-7.4322,0.0,0.0,0.0,0.0,-8.0092,-8.0246,-8.0516,-8.1093,-8.0785,-7.9838,-7.8234,-7.8108,-7.7262,-7.5686,-7.5917,-7.5822,-7.5515,-7.5284,-7.4245,-7.2552,-7.1168,-7.0244,-6.9513,-6.7244,-6.6167,-6.5974,-6.6244,-6.6359,-6.6513,-6.7051,-6.9309,-7.1989,-7.1851,-7.3395,-7.5426,-7.5856,-7.6015,-7.5668,-7.4014,0.0,0.0,0.0,0.0,0.0,-6.9552,-6.8013,-6.6705,-6.809,-6.7244,-6.5974,-6.5205,-6.5013,-6.4397,-6.2447,-6.1831,-6.1447,-6.0896,-6.0781,-6.0781,-6.0781,-6.0781,-6.0473,-5.9588,-5.9511,-5.905,-5.7934,-5.7819,-5.805,-5.855,-5.8127,-5.805,-5.8588,-5.7599,-5.6868,-5.656,-5.5972,-5.5836,-5.6104,-5.6057,-5.6083,-5.626,-5.6012,-5.6768,-5.8382,-5.8325,-5.9204,-6.0781,-6.0781,-6.0781,-6.0781,-6.0781,-6.0781,-6.0793,-6.0867,-6.0845,-6.0816,-6.0943,-6.0982,-6.1023,0.0,0.0,0.0,0.0,0.0,0.0,0.0,0.0,-6.8744,-6.8423,0.0,0.0,0.0,0.0,-7.2668,-7.3822,-7.5207,-7.6476,-7.7592,-7.7669,-7.8438,-8.0131,-8.0246,-8.0516,-8.1093,-8.0246,-7.94,-7.8477,-7.763,-7.663,-7.5553,-7.5553,-7.5438,-7.513,-7.4553,-7.3668,-7.2552,-7.1129,-7.0052,-6.9052,-6.6474,-6.5128,-6.464,-6.4991,-6.5114,-6.5203,-6.5831,-6.7948,-7.0409,-7.0201,-7.1344,-7.3082,-7.4318,-7.4707,-7.4437,-7.3053,-7.1629,0.0,-6.9475,0.0,0.0,0.0,0.0,-6.6667,-6.809,0.0,-6.6551,-6.5974,-6.5897,-6.5359,-6.3678,-6.2897,-6.2127,-6.0973,-6.0781,-6.0781,-6.0781,-6.0781,-6.0589,-6.0012,-5.9935,-5.9627,-5.8781,-5.8704,-5.8934,-5.9473,-5.9011,-5.8934,-5.9473,-5.8204,-5.7165,-5.6599,-5.6011,-5.5845,-5.611,-5.5924,-5.5924,-5.611,-5.6225,-5.6995,-5.8319,-5.8588,-5.9473,-6.0781,-6.0781,-6.0781,-6.0781,-6.0781,-6.0781,-6.0781,-6.0781,-6.0781,-6.0781,-6.0781,-6.0877,-6.0925,0.0,0.0,0.0,0.0,0.0,0.0,0.0,0.0,-6.9398,-6.859,0.0,0.0,0.0,0.0,0.0,-7.4591,-7.5515,-7.6015,-7.6053,-7.7553,-7.8477,-7.8515,0.0,0.0,-8.1093,-7.8669,-7.7746,-7.8477,-7.6015,-7.4784,-7.4745,-7.4707,-7.4284,-7.3538,-7.3514,-7.35,-7.3399,-7.2514,-7.0706,-6.8167,-6.5679,-6.4602,-6.4484,-6.3816,-6.4567,-6.6019,-6.6171,-6.7353,-6.8752,-6.8558,-6.8548,-6.9087,-7.1467,-7.2206,-7.2014,-7.1168,-7.0321,-6.9513,0.0,0.0,0.0,0.0,0.0,0.0,-6.8205,0.0,-6.6436,-6.8052,-6.7051,-6.5936,-6.5897,-6.4512,-6.282,-6.1127,-6.0819,-6.0781,-6.0781,-6.0781,-6.0781,-6.0781,-6.0781,-6.0473,-5.9627,-5.955,-5.955,-5.955,-5.955,-5.955,-5.955,-5.8742,-5.7511,-5.578,-5.5703,-5.576,-5.5915,-5.5798,-5.5798,-5.5915,-5.6685,-5.7473,-5.8319,-5.9127,-5.9973,-6.0781,-6.0781,-6.0781,-6.0781,-6.0781,-6.0781,-6.0781,-6.0781,-6.0781,-6.0781,-6.0781,-6.0781,-6.0827,0.0,0.0,0.0,0.0,0.0,-6.9244,-6.9013,-6.9398,-6.9821,0.0,0.0,0.0,-7.2706,-7.3514,-7.4437,-7.5553,-7.5861,-7.6284,-7.6899,-7.7361,-7.8169,-7.94,-7.99,-8.0439,-8.1093,-8.04,-7.9554,-7.8477,-7.7784,-7.6823,-7.563,-7.5014,-7.4591,-7.4361,-7.3783,-7.3168,-7.2514,-7.1629,-7.0167,-6.8219,-6.6416,-6.4946,-6.3816,-6.3138,-6.3132,-6.3436,-6.2905,-6.4276,-6.6264,-6.5954,-6.7596,-7.0132,-7.2418,-7.2706,-7.2014,-7.1168,-7.0321,-6.9513,-6.8629,0.0,0.0,0.0,0.0,0.0,-6.8359,-6.8052,-6.7667,-6.7475,-6.709,-6.659,-6.6013,-6.4974,-6.3897,-6.2781,-6.1589,-6.0781,-6.0781,-6.0781,-6.0781,-6.0781,-6.0781,-6.0704,-6.0473,-6.0435,-6.0435,0.0,-6.0435,-6.0435,-6.0435,-5.9088,-5.778,-5.6676,-5.6011,-5.576,-5.5915,-5.6377,-5.6387,-5.5915,-5.7292,-5.8088,-5.8319,-5.9127,-5.9973,-6.0781,-6.0781,-6.0781,-6.0781,-6.0781,-6.0781,-6.0781,-6.0781,-6.0781,-6.0781,-6.0781,-6.0781,-6.0793,0.0,0.0,0.0,0.0,0.0,-7.009,-6.9744,-7.0283,-7.0783,0.0,0.0,0.0,-7.3899,-7.4437,-7.5053,-7.5938,-7.6015,-7.6207,-7.6707,-7.74,-7.8246,-7.9208,-7.9939,-8.0592,-8.1093,-8.04,-7.9515,-7.8477,-7.7784,-7.6784,-7.5438,-7.4938,-7.4322,-7.363,-7.3168,-7.2476,-7.1629,-7.1129,-6.9977,-6.834,-6.6727,-6.5342,-6.4132,-6.347,-6.3405,-6.356,-6.2832,-6.3779,-6.5273,-6.4202,-6.589,-6.8626,-6.9939,-7.0706,-7.0975,-7.0129,-6.9783,-6.9436,-6.8205,-6.8398,-6.9052,-6.959,0.0,0.0,-6.8013,-6.7859,-6.7628,-6.6782,-6.659,-6.6551,-6.6436,-6.5397,-6.4551,-6.4397,-6.3243,-6.2243,-6.1897,-6.1858,-6.1858,-6.1858,-6.1858,-6.1858,-6.1858,-6.1858,-6.1858,-6.1858,-6.1858,-6.155,-6.0819,-5.9204,-5.7896,-5.7022,-5.6126,-5.5902,-5.6357,-5.6788,-5.6981,-5.6927,-5.8203,-5.8819,-5.8819,-5.9665,-6.0319,-6.0781,-6.0781,-6.0781,-6.0781,-6.0781,-6.0781,-6.0781,-6.0781,-6.0781,-6.0781,-6.0781,-6.0781,-6.0781,0.0,0.0,-7.0898,-7.0898,-7.0898,-7.0706,-7.0052,-7.1245,-7.1975,0.0,-7.2745,-7.4053,-7.4784,-7.4861,-7.5168,-7.5938,-7.6015,-7.6015,-7.6015,-7.7476,-7.8415,-7.8477,-8.0092,-8.1016,-8.1093,-7.9592,-7.8669,-7.8477,-7.7015,-7.5784,-7.4861,-7.4745,-7.3899,-7.2476,-7.2283,-7.1706,-7.0898,-7.0783,-6.9832,-6.822,-6.6825,-6.5763,-6.4905,-6.4258,-6.4367,-6.4802,-6.4216,-6.4492,-6.4877,-6.319,-6.394,-6.5667,-6.6051,-6.7667,-6.9283,-6.8706,-6.9013,-6.9244,-6.7782,-6.8513,-6.9706,-6.9821,-6.9821,0.0,-6.7744,-6.7398,-6.7167,-6.6474,-6.6244,-6.6397,-6.709,-6.5936,-6.5089,-6.5782,-6.532,-6.4589,-6.3705,-6.3512,-6.3435,-6.3435,-6.3346,-6.3308,-6.3308,-6.3308,-6.3308,-6.3308,-6.3308,-6.2627,-6.1012,-5.9358,-5.805,-5.7176,-5.6203,-5.6126,-5.6983,-5.7099,-5.7511,-5.8319,-5.9204,-5.9588,-5.9511,-6.0396,-6.0781,-6.0781,-6.0781,-6.0781,-6.0781,-6.0781,-6.0781,-6.0781,-6.0781,-6.0781,-6.0781,-6.0781,-6.0781,-6.0781,-7.086,-7.0898,-7.0898,-7.0898,-7.0898,-7.1091,-7.1629,-7.1975,-7.2629,-7.3822,-7.4861,-7.5553,-7.5745,-7.5745,-7.5822,-7.5976,-7.6015,-7.6015,-7.6015,-7.6938,-7.7823,-7.8477,-7.9515,-8.04,-8.1093,-8.0785,-7.99,-7.8477,-7.8169,-7.7246,-7.5745,-7.5014,-7.4553,-7.4168,-7.2783,-7.1706,-7.086,-7.0206,-6.8712,-6.6857,-6.716,-6.61,-6.4216,-6.3503,-6.2888,-6.238,-6.2265,-6.2258,-6.2398,-6.3129,-6.3562,-6.4282,-6.7051,-6.7782,-6.7859,-6.909,-6.909,-6.8744,-6.909,-6.9436,-6.986,-7.0514,-7.0667,0.0,-6.9436,-6.9206,-6.9167,-6.8975,-6.8398,-6.7975,-6.8129,-6.7321,-6.6474,-6.5974,-6.6282,-6.632,-6.5513,-6.4782,-6.4359,-6.4359,-6.3743,-6.3308,-6.3308,-6.3308,-6.3308,-6.3308,-6.3308,-6.2858,-6.1908,-6.0204,-5.8896,-5.8088,-5.6511,-5.6126,-5.6983,-5.7703,-5.8127,-5.8319,-5.9819,-6.0165,-5.9511,-6.0396,-6.0781,-6.0781,-6.0781,-6.0781,-6.0781,-6.0781,-6.0781,-6.0781,-6.0781,-6.0781,-6.0781,-6.0781,-6.0781,-6.0781,-7.0898,-7.0898,-7.0898,-7.0898,-7.0898,-7.1206,-7.2052,-7.2552,-7.3283,-7.4553,-7.5476,-7.6169,-7.6592,-7.6245,-7.6015,-7.6015,-7.6015,-7.6015,-7.6015,-7.7169,-7.8092,-7.8477,-7.9746,-8.0669,-8.1093,-8.0669,-7.9823,-7.8477,-7.8092,-7.7246,-7.5976,-7.5553,-7.4668,-7.3437,-7.3014,-7.1898,-7.0283,-6.986,-6.89,-6.7573,-6.6711,-6.5211,-6.346,-6.2563,-6.1977,-6.1584,-6.1517,-6.1404,-6.1421,-6.2585,-6.3106,-6.3666,-6.582,-6.6782,-6.7359,-6.8667,-6.9052,-6.9129,-6.959,-6.9975,-7.0398,-7.0783,-7.0898,0.0,0.0,-6.9398,-6.9436,-6.859,-6.8398,-6.8282,-6.7821,-6.7744,-6.7628,-6.7205,-6.7859,-6.8398,-6.8398,-6.7321,-6.632,-6.5897,-6.5859,-6.5667,-6.5243,-6.559,-6.5667,-6.5243,-6.482,-6.4051,-6.2781,-6.1089,-5.9742,-5.8934,-5.7665,-5.7396,-5.8242,-5.8665,-5.9127,-5.955,-6.0396,-6.055,-6.0165,-6.0589,-6.0781,-6.0781,-6.0781,-6.0781,-6.0781,-6.0781,-6.0781,-6.0781,-6.0781,-6.0781,-6.0781,-6.0781,-6.0781,-6.0781,-7.0898,-7.0898,-7.0898,-7.0898,-7.0898,-7.1245,-7.2283,-7.3053,-7.3899,-7.5053,-7.5668,-7.6284,-7.6976,-7.6284,-7.5707,-7.5515,-7.5515,-7.5592,-7.5745,-7.7323,-7.8169,-7.8015,-8.0015,-8.0862,-8.0362,-7.9977,-7.9285,-7.8246,-7.763,-7.6861,-7.6015,-7.6015,-7.4899,-7.2937,-7.3168,-7.2132,-7.0196,-6.9528,-6.8867,-6.8008,-6.5789,-6.4255,-6.3125,-6.1971,-6.1515,-6.1491,-6.1306,-6.1143,-6.1113,-6.1774,-6.2495,-6.3243,-6.4282,-6.5513,-6.6898,-6.8244,-6.9052,-6.9513,-6.986,-7.0398,-7.0898,-7.0898,-7.0898,-7.0552,0.0,0.0,0.0,-6.8129,0.0,0.0,0.0,0.0,0.0,-6.8013,0.0,0.0,0.0,-6.9436,0.0,-6.7475,-6.7975,-6.8052,-6.7167,-6.7744,-6.7859,-6.7128,-6.6359,-6.5205,-6.3628,-6.1973,-6.0666,-5.9781,-5.8819,-5.8704,-5.9473,-5.9511,-5.9935,-6.0781,-6.0781,-6.0781,-6.0781,-6.0781,-6.0781,-6.0781,-6.0781,-6.0781,-6.0781,-6.0781,-6.0781,-6.0781,-6.0781,-6.0781,-6.0781,-6.0781,-6.0781,-6.0781,-7.0898,-7.0898,-7.0898,-7.0898,-7.0898,-7.1437,-7.3091,-7.3437,-7.4361,-7.6707,-7.6399,-7.6053,-7.613,-7.5361,-7.4553,-7.386,-7.3783,-7.4091,-7.4822,-7.6476,-7.7092,-7.6322,-7.9361,-8.0054,-7.7784,-7.9092,-7.9015,-7.7438,-7.7323,-7.6861,-7.6015,-7.6015,-7.5861,-7.5476,-7.3322,-7.2302,-7.1982,-6.8963,-6.6905,0.0,-6.4606,-6.4189,0.0,-6.2304,-6.1588,-6.1442,-6.114,-6.1023,-6.1009,-6.0965,-6.1547,-6.2512,-6.4089,-6.4743,-6.5513,-6.8629,-6.909,-6.8859,-7.036,-7.0821,-7.0898,-7.0898,-7.0898,-7.086,-7.0667,0.0,-7.0706,-7.0514,0.0,0.0,0.0,0.0,0.0,0.0,0.0,0.0,-6.7744,-6.9321,-7.0014,-6.8436,-6.8346,-6.8052,-6.7167,-6.7167,-6.7205,-6.709,-6.6359,-6.5474,-6.4512,-6.2858,-6.155,-6.0666,-5.9127,-5.8704,-5.9473,-5.9511,-5.9935,-6.0781,-6.0781,-6.0781,-6.0781,-6.0781,-6.0781,-6.0781,-6.0781,-6.0781,-6.0781,-6.0781,-6.0781,-6.0781,-6.0781,-6.0781,-6.0781,-6.0781,-6.0781,-6.0781,-7.0898,-7.0898,-7.0898,-7.0898,-7.0898,-7.1475,-7.3245,-7.4322,-7.5515,-7.7092,-7.6553,-7.6015,-7.6015,-7.5207,-7.42,-7.2969,-7.2777,-7.2904,-7.3355,-7.4896,-7.6092,-7.6746,-7.9054,-7.9862,-7.8784,-7.8938,-7.8477,-7.7284,-7.6784,-7.6361,-7.6015,-7.6015,-7.5476,-7.4476,-7.2899,-7.1737,-7.0813,-6.8423,-6.7175,0.0,0.0,-6.4135,0.0,-6.2167,-6.1328,-6.1095,-6.0935,-6.0892,-6.0871,-6.0827,-6.1358,-6.2216,-6.2935,-6.382,-6.4974,-6.6936,-6.7552,-6.7898,-6.9129,-6.9887,-7.0293,-7.0221,-7.0632,-7.1026,-7.0939,-7.0898,-7.0898,-7.0898,0.0,0.0,0.0,0.0,0.0,0.0,-6.9013,0.0,0.0,0.0,-7.0475,-6.9283,0.0,0.0,-6.9321,-6.8898,-6.8398,-6.7898,-6.7051,-6.6013,-6.4666,-6.3435,-6.2397,-6.1601,-6.0358,-5.9896,-6.0242,-6.0242,-6.0435,-6.0781,-6.0781,-6.0781,-6.0781,-6.0781,-6.0781,-6.0781,-6.0781,-6.0781,-6.0781,-6.0781,-6.0781,-6.0781,-6.0781,-6.0781,-6.0781,-6.0781,-6.0781,-6.0781,-7.0552,-7.0744,-7.0898,-7.0898,-7.0898,-7.1475,-7.3245,-7.4938,-7.6245,-7.6861,-7.6169,-7.5553,-7.5322,-7.4599,-7.3433,-7.1866,-7.1661,-7.1672,-7.1785,-7.343,-7.4807,-7.5578,-7.806,-7.9015,-7.8092,-7.813,-7.7746,-7.6938,-7.6322,-7.6015,-7.6015,-7.6015,-7.5207,-7.3783,-7.2706,-7.1467,-7.0127,-6.8267,-6.7313,-6.6966,-6.4925,-6.378,-6.3097,-6.1738,-6.1079,-6.0856,-6.0816,-6.0781,-6.0781,-6.0781,-6.1358,0.0,-6.2101,-6.3089,-6.4409,0.0,0.0,0.0,-6.785,0.0,0.0,0.0,0.0,-7.0866,-7.0902,-7.0898,-7.0898,-7.0898,-7.0898,0.0,0.0,0.0,-6.9898,-6.9436,0.0,-7.0052,0.0,-7.0591,0.0,0.0,0.0,0.0,0.0,-6.9821,-6.8975,-6.8129,-6.7244,-6.6244,-6.5013,-6.3897,-6.3051,-6.2435,-6.1358,-6.0781,-6.0781,-6.0781,-6.0781,-6.0781,-6.0781,-6.0781,-6.0781,-6.0781,-6.0781,-6.0781,-6.0781,-6.0781,-6.0781,-6.0781,-6.0781,-6.0781,-6.0781,-6.0781,-6.0781,-6.0781,-6.0781,-6.0781,-6.9744,-7.036,-7.0898,-7.0898,-7.0898,-7.1475,-7.3245,-7.4938,-7.6015,-7.6053,-7.5284,-7.4437,-7.3668,-7.2993,-7.1859,-7.0106,-7.0136,-7.0283,-7.0275,-7.2434,-7.3027,-7.1451,-7.5991,-7.7015,-7.3769,-7.6092,-7.6899,-7.6053,-7.6015,-7.6015,-7.6015,-7.6015,-7.5515,-7.4591,-7.2937,-7.1826,-7.0999,-6.8622,-6.6653,-6.5133,-6.44,-6.2907,-6.11,0.0,-6.1006,-6.1,-6.0856,0.0,0.0,-6.0781,-6.1358,0.0,0.0,0.0,0.0,0.0,0.0,0.0,0.0,0.0,0.0,-6.9498,0.0,0.0,0.0,0.0,-7.0898,0.0,0.0,-7.0898,-7.086,-7.086,-7.0321,-6.8706,-6.9821,0.0,0.0,0.0,0.0,0.0,0.0,0.0,0.0,-6.8936,-6.809,0.0,-6.6397,-6.5897,-6.5859,-6.4243,-6.3269,-6.3281,-6.1666,-6.0781,-6.0781,-6.0781,-6.0781,-6.0781,-6.0781,-6.0781,-6.0781,-6.0781,-6.0781,-6.0781,-6.0781,-6.0781,-6.0781,-6.0781,-6.0781,-6.0781,-6.0781,-6.0781,-6.0781,-6.0781,-6.0781,-6.0781,-6.9706,-7.036,-7.0898,-7.0898,-7.0898,-7.1475,-7.3245,-7.4437,-7.513,-7.513,-7.4437,-7.3405,-7.2105,-7.1253,-7.0174,-6.8727,-6.8507,-6.8526,-6.8651,-7.0252,-7.1223,-7.134,-7.4453,-7.5713,-7.4693,-7.5984,-7.6506,-7.6183,-7.6066,-7.6015,-7.5976,-7.5399,-7.4976,-7.4591,-7.1783,-7.0155,0.0,0.0,0.0,0.0,0.0,-6.2502,-6.1783,0.0,-6.086,-6.085,-6.0827,-6.0781,0.0,-6.0781,-6.1012,-6.1251,-6.1319,-6.1949,-6.2723,-6.3146,-6.3673,-6.4386,0.0,0.0,-6.7151,-6.8154,0.0,0.0,0.0,0.0,0.0,0.0,0.0,0.0,-7.0898,-7.0475,-7.009,-7.0052,-7.009,-7.009,0.0,-7.0552,0.0,0.0,0.0,0.0,0.0,0.0,0.0,0.0,-6.6051,0.0,-6.5051,-6.4474,-6.4166,-6.4166,-6.2512,-6.1678,-6.1678,-6.1089,-6.0781,-6.0781,-6.0781,-6.0781,-6.0781,-6.0781,-6.0781,-6.0781,-6.0781,-6.0781,-6.0781,-6.0781,-6.0781,-6.0781,-6.0781,-6.0781,-6.0781,-6.0781,-6.0781,-6.0858,-6.9706,-7.036,-7.0898,-7.0898,-7.1168,-7.186,-7.3283,-7.3937,-7.4284,-7.4284,-7.3283,-7.2097,-7.0849,-7.0002,-6.9119,-6.8,-6.7836,-6.7887,-6.8015,-6.9056,-7.0074,-7.1042,-7.2771,-7.3807,-7.3946,-7.4662,-7.4973,-7.489,-7.5079,-7.5179,-7.5091,-7.4553,-7.3937,-7.3245,-7.1091,-6.9361,-6.8006,-6.6989,-6.5419,0.0,0.0,-6.1766,0.0,0.0,-6.0973,-6.1216,0.0,-6.0781,-6.0781,-6.0781,-6.0823,-6.0902,-6.0952,-6.1436,-6.1958,-6.2096,-6.2523,-6.3195,-6.4099,-6.5055,0.0,-6.7,-6.8436,0.0,-6.9846,0.0,-7.0778,0.0,0.0,0.0,0.0,-7.0244,-6.9975,-7.0783,-7.0206,-6.9898,0.0,-7.0706,-7.0898,0.0,0.0,0.0,0.0,0.0,0.0,0.0,0.0,0.0,0.0,-6.4589,-6.4589,-6.4589,-6.3243,-6.2512,-6.2512,-6.1704,-6.1243,-6.1243,-6.0935,-6.0781,-6.0781,-6.0781,-6.0781,-6.0781,-6.0781,-6.0781,-6.0781,-6.0781,-6.0781,-6.0781,-6.0781,-6.0973,-6.1243,-6.1243,-6.1435,-6.1781,-6.9706,-7.0398,-7.0975,-7.1014,-7.1706,-7.2552,-7.3437,-7.3553,-7.3462,-7.3437,-7.1912,-7.0581,-6.9853,-6.9189,-6.8522,-6.789,-6.8036,-6.8125,-6.8125,-6.8757,-6.9497,-7.0288,-7.0976,-7.1354,-7.1414,-7.2217,-7.2538,-7.2373,-7.3186,-7.3531,-7.3437,-7.336,-7.2437,-7.0898,-7.0783,0.0,-6.7039,-6.7255,-6.5782,-6.3166,-6.1512,-6.0858,-6.0858,-6.0819,-6.1331,-6.1985,-6.1089,-6.0793,-6.0804,-6.0804,-6.0884,-6.1023,-6.1031,-6.1165,-6.1328,-6.1485,-6.1509,-6.1757,-6.2771,-6.3672,-6.4685,-6.6243,-6.728,0.0,0.0,0.0,-7.0015,0.0,0.0,0.0,0.0,-7.0206,-6.9937,-7.0667,-7.0167,-6.9706,-6.9744,-7.0437,-7.0898,-7.0898,0.0,0.0,0.0,0.0,0.0,0.0,0.0,0.0,0.0,-6.4589,-6.4628,-6.4666,-6.382,-6.3346,-6.3346,-6.2512,-6.2101,-6.2101,-6.1216,-6.0781,-6.0781,-6.0781,-6.0781,-6.0781,-6.0781,-6.0781,-6.0781,-6.0781,-6.0781,-6.0781,-6.0858,-6.1396,-6.2216,-6.2139,-6.2627,-6.3346,-6.9706,-7.086,-7.2052,-7.2706,-7.3014,-7.3437,-7.4284,-7.3899,-7.3283,-7.2629,-7.1144,-6.9617,-6.8181,-6.7522,-6.7134,-6.6964,-6.7138,-6.7226,-6.7226,-6.7861,-6.812,-6.7846,-6.9706,-7.0469,-6.9941,-7.125,-7.1883,-7.1746,-7.1804,-7.2102,-7.2514,-7.1245,-7.0744,-7.0821,0.0,-6.7359,-6.6218,-6.6266,-6.5125,-6.3205,-6.2166,-6.1793,-6.1716,0.0,-6.1331,-6.1985,-6.1089,-6.085,-6.0944,-6.0944,-6.1065,-6.1246,-6.132,-6.1409,-6.1488,-6.1629,-6.1637,-6.1989,-6.3554,-6.414,-6.4726,-6.6403,-6.7495,-6.8187,0.0,0.0,0.0,0.0,0.0,0.0,0.0,0.0,-6.9552,-6.9129,-6.9398,-6.9898,-7.0514,-7.0783,-7.0898,-7.0898,0.0,0.0,0.0,0.0,0.0,0.0,0.0,0.0,-6.4628,-6.4589,-6.4897,-6.5551,-6.4705,-6.4282,-6.4282,-6.282,-6.2101,-6.2101,-6.1216,-6.0781,-6.0781,-6.0781,-6.0781,-6.0781,-6.0781,-6.0781,-6.0781,-6.0781,-6.0781,-6.0858,-6.1524,-6.2666,-6.382,-6.2563,-6.3012,-6.4166,-6.9706,-7.136,-7.3014,-7.3899,-7.4014,-7.4053,-7.4168,-7.3129,-7.2206,-7.1706,-7.0246,-6.879,-6.7522,-6.6873,-6.6529,-6.6574,-6.6788,-6.707,-6.7422,-6.7452,-6.7605,-6.7969,-6.8584,-6.8896,-6.8867,-6.9716,-7.004,-6.9805,-7.0074,-7.0289,-7.0514,0.0,0.0,0.0,0.0,-6.6628,-6.5859,-6.5089,-6.4205,-6.3192,-6.2012,-6.1524,0.0,-6.0973,-6.1142,-6.1559,-6.1057,-6.0925,-6.1014,-6.1112,-6.1259,-6.1392,-6.1488,-6.1525,-6.1587,-6.1679,-6.1953,-6.2461,-6.3476,-6.4297,-6.5117,-6.6094,-6.6992,-6.7693,-6.788,-6.8125,-6.8394,0.0,-6.8197,-6.7936,0.0,0.0,0.0,-6.8436,-6.9436,-7.0244,-7.036,-7.0667,-7.0898,-7.0898,-6.986,0.0,0.0,0.0,0.0,0.0,0.0,0.0,0.0,-6.4397,-6.5013,-6.5859,-6.5436,-6.5359,-6.5705,-6.4012,-6.3012,-6.2589,-6.1781,-6.1166,-6.0781,-6.0781,-6.0781,-6.0781,-6.0781,-6.0781,-6.0781,-6.0781,-6.1012,-6.1473,-6.2704,-6.3782,-6.4474,-6.3551,-6.4012,-6.5089,-6.9849,-7.1774,-7.3622,-7.4431,-7.4466,-7.4091,-7.3283,-7.186,-7.0821,-7.0591,-6.9245,-6.801,-6.7268,-6.6749,-6.6463,-6.6553,-6.6785,-6.7226,-6.7969,-6.7305,-6.7539,-6.9023,-6.7773,-6.7383,-6.8008,-6.8047,-6.7822,-6.7431,-6.8099,-6.8351,-6.8244,0.0,0.0,0.0,0.0,0.0,0.0,-6.4128,-6.3358,-6.3012,-6.155,-6.0896,-6.0793,-6.0827,-6.0884,-6.1006,-6.1065,-6.1089,-6.1074,-6.1271,-6.1404,-6.1517,-6.1517,-6.1627,-6.1719,-6.1719,-6.2305,-6.3008,-6.3125,-6.4375,-6.5586,-6.5586,-6.6172,-6.6873,-6.7461,-6.7447,-6.7496,-6.8204,-6.763,-6.7192,-6.7962,0.0,0.0,0.0,-6.9783,-7.0591,-7.009,-7.0629,-7.1052,-7.1052,-6.959,0.0,0.0,0.0,0.0,0.0,0.0,0.0,0.0,0.0,-6.4897,-6.5859,-6.5897,-6.6282,-6.709,-6.5436,-6.4166,-6.3269,-6.2474,-6.1639,-6.0781,-6.0781,-6.0781,-6.0781,-6.0781,-6.0781,-6.0781,-6.0781,-6.132,-6.2255,-6.3935,-6.4589,-6.4628,-6.4743,-6.5243,-6.5859,-7.0645,-7.1883,-7.2916,-7.3728,-7.3202,-7.236,-7.1475,-7.1091,-7.0398,-6.9013,-6.8093,-6.7205,-6.6278,-6.6397,-6.6525,-6.6441,-6.6727,-6.6953,-6.7109,-6.6992,-6.7031,-6.7344,-6.7734,-6.7695,-6.7148,-6.7148,-6.6965,-6.662,-6.603,-6.6286,-6.7321,0.0,0.0,0.0,0.0,0.0,-6.482,-6.4512,0.0,-6.2281,-6.1985,-6.1435,-6.0816,-6.0935,-6.0961,-6.1048,-6.1305,-6.1417,-6.1421,-6.1435,-6.1532,-6.1678,-6.1678,-6.1679,-6.1719,-6.1719,-6.2305,-6.3164,-6.3867,-6.4805,-6.5586,-6.5586,-6.5703,-6.5859,-6.5975,-6.5868,-6.596,-6.6798,-6.6609,-6.6312,-6.6466,0.0,0.0,0.0,0.0,-7.0321,-7.1591,-7.186,-7.1975,-7.1975,-7.0475,-6.9206,-6.8475,0.0,0.0,0.0,-6.4359,-6.3782,-6.4359,0.0,-6.4282,0.0,-6.5897,-6.6282,0.0,-6.5436,-6.4166,-6.3269,-6.2474,-6.1639,-6.0781,-6.0781,-6.0781,-6.0781,-6.0781,-6.0781,-6.0781,-6.0781,-6.132,-6.2255,-6.3935,-6.4589,-6.4705,-6.5397,-6.5782,-6.5782,-7.1012,-7.2021,-7.2685,-7.3013,-7.2302,-7.1221,-6.9809,-6.9206,-6.8629,-6.7821,-6.7906,-6.7521,-6.6157,-6.6348,-6.656,-6.6507,-6.6737,-6.6914,-6.6914,-6.6914,-6.6914,-6.6914,-6.7305,-6.7344,-6.6914,-6.6445,-6.6262,-6.6387,-6.5524,-6.5549,-6.6474,-6.609,0.0,0.0,0.0,-6.4974,0.0,0.0,0.0,-6.2062,-6.1601,-6.123,-6.0915,-6.1,-6.1104,-6.1279,-6.1435,-6.1527,-6.1588,-6.1588,-6.1636,-6.1719,-6.1719,-6.1719,-6.1797,-6.2226,-6.3008,-6.3867,-6.4726,-6.5625,-6.6289,-6.6289,-6.5937,-6.5703,-6.6172,-6.5764,-6.5403,-6.5836,-6.5667,-6.5412,-6.5346,-6.597,0.0,0.0,0.0,-7.0744,-7.2014,-7.2591,-7.2706,-7.2245,-7.0706,-6.936,-6.8475,-6.6898,0.0,0.0,-6.4282,-6.3462,-6.3897,0.0,-6.3897,0.0,0.0,0.0,-6.709,0.0,-6.4628,-6.3308,-6.2897,-6.205,-6.0781,-6.0781,-6.0781,-6.0781,-6.0781,-6.0781,-6.0858,-6.1743,-6.2358,-6.2897,-6.4628,-6.5282,-6.532,-6.5743,-6.5897,-6.582,-7.0479,-7.1342,-7.1855,-7.1755,-7.1095,-7.0065,-6.8448,-6.773,-6.728,-6.6933,-6.7592,-6.7668,-6.657,-6.653,-6.6655,-6.685,-6.6905,-6.6914,-6.6914,-6.6914,-6.6914,-6.6914,-6.6719,-6.6719,-6.6914,-6.5664,-6.5407,-6.6162,-6.5271,-6.5031,-6.5418,-6.5743,-6.5897,0.0,0.0,0.0,0.0,0.0,-6.237,-6.2293,-6.1427,-6.1165,-6.1238,-6.1143,-6.1267,-6.1507,-6.152,-6.1629,-6.1719,-6.1719,-6.1719,-6.1719,-6.1719,-6.1719,-6.1875,-6.2734,-6.3633,-6.4492,-6.5351,-6.625,-6.6797,-6.6404,-6.5779,-6.5426,-6.5889,-6.5465,-6.4985,-6.4989,-6.4753,-6.4483,-6.4343,-6.5205,0.0,0.0,0.0,0.0,0.0,-7.2668,-7.2899,-7.2014,-7.0591,-6.9206,-6.7975,-6.6667,0.0,0.0,-6.4166,-6.3308,-6.3308,-6.3308,-6.3628,-6.432,-6.5359,-6.6205,-6.6821,0.0,-6.5128,-6.3589,-6.3397,-6.2627,-6.132,-6.1127,-6.1089,-6.1089,-6.1243,-6.1243,-6.1204,-6.2897,-6.3358,-6.3243,-6.5166,-6.5782,-6.5628,-6.582,-6.5782,-6.5628,-6.8258,-6.8782,-6.926,-6.9246,-6.8935,-6.8422,-6.7617,-6.8034,-6.7918,-6.638,-6.6284,-6.6627,-6.7443,-6.698,-6.6928,-6.7712,-6.7256,-6.6914,-6.6914,-6.6914,-6.6914,-6.6914,-6.6133,-6.6094,-6.6875,-6.4492,-6.3937,-6.5393,-6.4421,-6.3891,-6.3845,-6.5261,-6.5897,0.0,0.0,0.0,0.0,-6.3589,-6.3205,-6.3152,-6.2442,-6.217,-6.2116,-6.1632,-6.1449,-6.1512,-6.1634,-6.1679,-6.1719,-6.1719,-6.1719,-6.1719,-6.1719,-6.1719,-6.1875,-6.2734,-6.3633,-6.4492,-6.5351,-6.625,-6.6483,-6.4772,-6.4289,-6.4037,-6.32,-6.3503,-6.3959,-6.3932,-6.3813,-6.3632,-6.3457,-6.4782,-6.5936,0.0,0.0,0.0,0.0,0.0,-7.2014,-7.1129,0.0,-6.8744,-6.6359,-6.5974,0.0,0.0,-6.3858,-6.3308,-6.3308,-6.3308,-6.3346,-6.3423,-6.5013,-6.5936,-6.6013,-6.5936,-6.5436,-6.4474,-6.3666,-6.3243,-6.3051,-6.232,-6.1985,-6.2024,-6.2743,-6.2666,-6.2101,-6.3782,-6.3589,-6.2447,-6.4936,-6.5436,-6.482,-6.559,-6.5397,-6.482,-6.8117,-6.8616,-6.8875,-6.828,-6.8055,-6.7676,-6.6777,-6.7002,-6.709,-6.6462,-6.7292,-6.7743,-6.7096,-6.7342,-6.749,-6.7333,-6.7069,-6.6914,-6.6914,-6.6914,-6.6914,-6.6914,-6.6562,-6.6523,-6.6875,-6.4844,-6.4241,0.0,0.0,-6.4225,-6.4999,-6.5613,-6.5628,0.0,0.0,-6.3444,-6.3782,-6.2935,-6.2937,-6.3446,-6.3206,-6.2897,-6.259,-6.2375,-6.1998,-6.1632,-6.1679,-6.1719,-6.1719,-6.1719,-6.1719,-6.1719,-6.1719,-6.1719,-6.1953,-6.3359,-6.4023,-6.4609,-6.6015,-6.6557,-6.6536,-6.5806,-6.5168,-6.4593,-6.4187,-6.3935,-6.3663,-6.3163,-6.2517,-6.2162,-6.2494,-6.3551,-6.4666,-6.5743,0.0,0.0,0.0,0.0,0.0,-6.9629,0.0,-6.8129,-6.609,-6.5897,-6.5743,0.0,0.0,-6.4089,-6.4089,-6.4089,-6.4089,-6.4089,0.0,-6.5897,-6.5897,-6.5897,-6.5474,-6.4589,-6.4243,-6.382,-6.3269,-6.2974,-6.282,-6.282,-6.2666,-6.2666,-6.2858,-6.3551,-6.3743,-6.3743,-6.5282,-6.5705,-6.5359,-6.5166,-6.4897,-6.4666,-6.7812,-6.8146,-6.8199,-6.7491,-6.7319,-6.7068,-6.6361,-6.6387,-6.6507,-6.6678,-6.7974,-6.8442,-6.7195,-6.7534,-6.7656,-6.7305,-6.7031,-6.6914,-6.6914,-6.6914,-6.6914,-6.6914,-6.664,0.0,-6.6875,-6.5195,-6.4591,-6.5177,-6.4492,0.0,0.0,0.0,0.0,0.0,-6.3735,-6.3523,-6.417,-6.333,-6.3555,-6.4411,-6.4194,-6.3737,-6.3146,-6.2933,-6.2373,-6.1719,-6.1719,-6.1719,-6.1719,-6.1719,-6.1875,-6.2031,-6.1797,-6.1719,-6.2031,-6.3789,-6.4297,-6.4687,-6.6363,-6.6694,-6.6525,-6.6152,-6.5349,-6.4581,-6.4303,-6.3736,-6.3154,-6.2572,-6.1867,-6.1437,-6.1709,-6.2802,-6.3921,-6.471,0.0,0.0,0.0,-6.9821,0.0,-6.7898,-6.7667,-6.6898,-6.4974,-6.5243,0.0,0.0,0.0,-6.432,-6.4589,-6.4589,-6.4474,0.0,0.0,0.0,-6.5513,-6.5782,-6.559,-6.4974,-6.4705,-6.4397,-6.4051,-6.382,-6.382,-6.4012,-6.3205,-6.3166,-6.3705,-6.3974,-6.4282,-6.4705,-6.5551,-6.5897,-6.582,-6.5205,-6.482,-6.4628,-6.6914,-6.6777,-6.6616,-6.6616,-6.6488,-6.6441,-6.656,-6.6613,-6.668,-6.6874,-6.7656,-6.8203,-6.8164,-6.7422,-6.7265,-6.8125,-6.7383,-6.6914,-6.6914,-6.6914,-6.6914,-6.6914,-6.6094,-6.6015,-6.6875,-6.5195,-6.4641,-6.5286,0.0,0.0,-6.3651,0.0,-6.5381,-6.6342,-6.5453,-6.5531,-6.6303,-6.5414,-6.557,-6.6283,-6.5558,-6.4815,-6.4007,-6.3277,-6.2461,-6.1719,-6.1719,-6.1719,-6.1719,-6.1719,-6.2265,-6.2812,-6.1953,-6.1719,-6.2031,-6.3789,-6.4297,-6.4647,-6.617,-6.6616,-6.6299,-6.5117,-6.4221,-6.3352,-6.2375,-6.2151,-6.2113,-6.2113,-6.2101,-6.1885,-6.1146,-6.2976,-6.4108,-6.2607,0.0,0.0,0.0,-6.6628,0.0,-6.6013,-6.5936,-6.4936,-6.2409,-6.3628,0.0,0.0,0.0,0.0,0.0,0.0,0.0,-6.3346,-6.5013,0.0,-6.4628,-6.5474,-6.5897,-6.5859,-6.5013,-6.5051,-6.582,-6.4974,-6.5051,-6.582,-6.4936,-6.4589,-6.4666,-6.5513,-6.5359,-6.4705,-6.5551,-6.5897,-6.5897,-6.5897,-6.532,-6.4705,-6.6797,-6.6738,-6.6616,-6.6616,-6.6553,-6.6541,-6.6574,-6.6735,-6.6832,-6.6875,-6.7148,-6.7305,-6.7305,-6.7617,-6.7656,-6.7344,-6.707,-6.6914,-6.6914,-6.6914,-6.6914,-6.6914,-6.664,-6.6601,-6.6875,-6.5651,-6.5052,-6.5177,0.0,0.0,0.0,-6.5816,-6.5857,-6.5465,-6.4744,-6.4812,-6.5498,-6.5226,-6.5678,-6.6455,-6.5627,-6.5238,-6.4955,-6.3554,-6.2812,-6.25,-6.1914,-6.1719,-6.1719,-6.1719,-6.2265,-6.2969,-6.2656,-6.3008,-6.3711,-6.4844,-6.5071,-6.5238,-6.631,-6.6424,-6.6175,-6.5759,-6.5427,-6.4953,-6.3998,-6.2897,-6.1947,-6.1331,-6.1295,-6.1457,-6.181,-6.3089,-6.3843,-6.33,-6.4996,0.0,-6.4345,0.0,-6.4897,-6.3474,-6.3782,-6.3589,-6.2216,-6.3089,0.0,0.0,0.0,0.0,0.0,0.0,0.0,0.0,-6.559,0.0,-6.5474,-6.5743,-6.5897,-6.5897,-6.5628,-6.5628,-6.5897,-6.559,-6.5628,-6.5859,-6.4974,-6.4936,-6.5474,-6.5128,-6.5205,-6.5513,-6.5782,-6.5897,-6.582,-6.5243,-6.4859,-6.4628,-6.6797,-6.679,-6.6694,-6.6694,-6.6694,-6.6694,-6.6694,-6.6831,-6.6914,-6.6914,-6.6914,-6.6914,-6.6914,-6.7383,-6.75,-6.6953,-6.6914,-6.6914,-6.6914,-6.6914,-6.6914,-6.6914,-6.6914,-6.6874,-6.6788,-6.6131,0.0,-6.5474,-6.536,-6.561,-6.6288,-6.6161,-6.5978,-6.573,-6.5002,-6.5075,-6.5765,-6.5765,-6.6151,-6.6655,-6.6108,-6.5772,-6.5469,-6.4375,-6.3789,-6.3437,-6.2851,-6.2695,-6.2695,-6.2695,-6.3242,-6.3945,-6.3901,-6.4444,-6.5225,-6.5421,-6.5401,-6.5468,-6.62,-6.6252,-6.609,-6.6028,-6.5708,-6.5166,-6.432,-6.3051,-6.1947,-6.1408,-6.1397,-6.1565,-6.185,-6.297,-6.3586,-6.2851,-6.411,-6.4618,-6.306,-6.332,-6.3281,-6.2216,-6.2551,-6.2666,-6.2139,-6.2551,-6.2858,0.0,0.0,0.0,0.0,0.0,-6.532,-6.5859,-6.5897,-6.5897,-6.5897,-6.5897,-6.5897,-6.5897,-6.5897,-6.5897,-6.5897,-6.5897,-6.5897,-6.5859,-6.532,-6.5397,-6.5859,-6.532,-6.5397,-6.5897,-6.5897,-6.5897,-6.582,-6.5282,-6.5089,-6.5089,-6.6875,-6.6914,-6.6914,-6.6914,-6.6914,-6.6914,-6.6914,-6.6914,-6.6914,-6.6914,-6.6914,-6.6914,-6.6914,-6.6914,-6.6914,-6.6914,-6.6914,-6.6914,-6.6914,-6.6914,-6.6914,-6.6914,-6.6875,-6.6789,-6.6619,-6.6564,-6.6407,-6.6109,-6.6128,-6.6274,-6.6577,-6.5764,-6.5954,-6.6875,-6.6055,-6.6133,-6.6914,-6.6914,-6.6914,-6.6875,-6.6836,-6.6367,-6.5664,-6.5547,-6.5039,-6.4375,-6.4336,-6.4297,-6.4297,-6.4297,-6.4883,-6.5546,-6.5351,-6.5914,-6.646,-6.5631,-6.5351,-6.5459,-6.5954,-6.61,-6.6059,-6.5933,-6.5282,-6.4474,-6.3589,-6.2743,-6.2178,-6.2101,-6.2179,-6.2042,-6.1492,-6.269,-6.3235,-6.1639,-6.2564,-6.3149,-6.2136,-6.2024,-6.2024,-6.2024,0.0,0.0,-6.2101,-6.2139,-6.2178,0.0,0.0,0.0,0.0,0.0,-6.582,-6.5897,-6.5897,-6.5897,-6.5897,-6.5897,-6.5897,-6.5897,-6.5897,-6.5897,-6.5897,-6.5897,-6.5897,-6.5897,-6.5897,-6.5897,-6.5897,-6.5897,-6.5897,-6.5897,-6.5897,-6.5897,-6.5897,-6.5897,-6.5897,-6.5897,-6.6758,-6.6914,-6.6914,-6.6914,-6.6914,-6.6914,-6.6914,-6.6914,-6.6914,-6.6914,-6.6914,-6.6914,-6.6914,-6.6914,-6.6914,-6.6914,-6.6914,-6.6914,-6.6914,-6.6914,-6.6914,-6.6914,-6.6742,-6.6636,-6.6616,-6.6348,-6.6187,-6.6109,-6.6252,-6.6435,-6.6619,-6.6548,-6.6678,-6.6875,-6.668,-6.6719,-6.6914,-6.6914,-6.6914,-6.6836,-6.6172,-6.6172,-6.6445,-6.5117,-6.4883,-6.5195,-6.4531,-6.4297,-6.4297,-6.4297,-6.4883,-6.5546,-6.5351,-6.5914,-6.6525,-6.6239,-6.6043,-6.594,-6.606,-6.6035,-6.5919,-6.5923,-6.5743,-6.5359,-6.4474,-6.3628,-6.2858,-6.2216,-6.1783,-6.1707,-6.2178,-6.2703,-6.289,-6.2363,-6.247,-6.224,-6.1251,-6.1089,-6.1089,0.0,-6.1716,-6.2101,-6.2101,-6.2666,-6.2743,0.0,0.0,-6.2897,-6.3269,-6.432,-6.5205,-6.5859,-6.5897,-6.5897,-6.5897,-6.5897,-6.5897,-6.5897,-6.5897,-6.5897,-6.5897,-6.5897,-6.5897,-6.5897,-6.5897,-6.5897,-6.5897,-6.5897,-6.5897,-6.5897,-6.5897,-6.5897,-6.5897,-6.5897,-6.5897,-6.5897,-6.6797,-6.6914,-6.6914,-6.6914,-6.6914,-6.6914,-6.6914,-6.6914,-6.6914,-6.6914,-6.6914,-6.6914,-6.6914,-6.6914,-6.6914,-6.6914,-6.6914,-6.6914,-6.6914,-6.6914,-6.6874,-6.6784,-6.6678,-6.6537,-6.6373,-6.6204,-6.6165,-6.6228,-6.6341,-6.6537,-6.674,-6.6443,-6.6523,-6.6875,-6.6484,-6.6523,-6.6914,-6.6914,-6.6914,-6.6875,-6.6367,-6.6484,-6.6797,-6.5859,-6.5781,-6.6133,-6.5664,-6.5508,-6.5508,-6.5508,-6.574,-6.6034,-6.5878,-6.6073,-6.6335,-6.6209,-6.6128,-6.608,-6.6035,-6.5955,-6.5897,-6.5897,-6.5897,-6.5782,-6.5282,-6.4512,-6.3782,-6.332,-6.2433,-6.1903,-6.2376,-6.2285,-6.206,-6.1906,-6.1787,-6.1505,-6.0904,-6.0781,-6.0781,-6.0781,-6.1216,-6.1678,-6.2062,-6.2512,-6.2551,-6.2139,-6.2512,0.0,-6.3269,-6.3743,-6.4589,-6.5859,-6.5897,-6.5897,-6.5897,-6.5897,-6.5897,-6.5897,-6.5897,-6.5897,-6.5897,-6.5897,-6.5897,-6.5897,-6.5897,-6.5897,-6.5897,-6.5897,-6.5897,-6.5897,-6.5897,-6.5897,-6.5897,-6.5897,-6.5897,-6.5897,-6.6914,-6.6914,-6.6914,-6.6914,-6.6914,-6.6914,-6.6914,-6.6914,-6.6914,-6.6914,-6.6914,-6.6914,-6.6914,-6.6914,-6.6914,-6.6914,-6.6914,-6.6914,-6.6914,-6.6914,-6.6791,-6.6619,-6.6564,-6.6413,-6.6119,-6.6109,-6.6187,-6.6387,-6.6412,-6.6588,-6.6875,-6.6133,-6.6172,-6.6875,-6.6133,-6.6211,-6.6914,-6.6914,-6.6914,-6.6914,-6.6914,-6.6914,-6.6914,-6.6914,-6.6914,-6.6914,-6.6914,-6.6874,-6.6834,-6.6834,-6.6735,-6.6537,-6.6406,-6.6228,-6.6061,-6.5958,-6.5974,-6.6039,-6.5933,-6.5897,-6.5897,-6.5897,-6.5897,-6.5897,-6.5897,-6.5243,-6.4589,-6.4589,-6.3355,-6.2305,-6.2305,-6.1725,-6.12,-6.1031,-6.097,-6.0945,-6.0827,0.0,-6.0858,-6.0973,-6.1089,-6.1512,-6.2409,-6.2486,-6.2486,-6.2486,-6.237,-6.2627,-6.3474,-6.3512,-6.4243,-6.5859,-6.5897,-6.5897,-6.5897,-6.5897,-6.5897,-6.5897,-6.5897,-6.5897,-6.5897,-6.5897,-6.5897,-6.5897,-6.5897,-6.5897,-6.5897,-6.5897,-6.5897,-6.5897,-6.5897,-6.5897,-6.5897,-6.5897,-6.5897,-6.5897,-6.6914,-6.6914,-6.6914,-6.6914,-6.6914,-6.6914,-6.6914,-6.6914,-6.6914,-6.6914,-6.6914,-6.6914,-6.6914,-6.6914,-6.6914,-6.6914,-6.6914,-6.6914,-6.6914,-6.6914,-6.6791,-6.6619,-6.6488,-6.6334,-6.6119,-6.6109,-6.6187,-6.6387,-6.6512,-6.6683,-6.6914,-6.6758,-6.6758,-6.6875,-6.6758,-6.6758,-6.6914,-6.6914,-6.6914,-6.6914,-6.6914,-6.6914,-6.6914,-6.6914,-6.6914,-6.6914,-6.6914,-6.6789,-6.6634,-6.6634,-6.6537,-6.6399,-6.6204,-6.6137,-6.6061,-6.5958,-6.5897,-6.5921,-6.591,-6.5897,-6.5897,-6.5897,-6.5897,-6.5897,-6.5897,-6.5243,-6.4589,-6.4589,-6.3355,-6.2305,-6.2305,-6.1604,-6.104,-6.1006,-6.0895,-6.0839,-6.0793,0.0,-6.105,-6.1831,-6.2512,-6.3243,-6.4128,-6.4205,-6.4205,-6.4205,-6.3551,-6.3512,-6.4359,-6.4397,-6.4859,-6.5859,-6.5897,-6.5897,-6.5897,-6.5897,-6.5897,-6.5897,-6.5897,-6.5897,-6.5897,-6.5897,-6.5897,-6.5897,-6.5897,-6.5897,-6.5897,-6.5897,-6.5897,-6.5897,-6.5897,-6.5897,-6.5897,-6.5897,-6.5897,-6.5897,-6.6914,-6.6914,-6.6914,-6.6914,-6.6914,-6.6914,-6.6914,-6.6914,-6.6914,-6.6914,-6.6914,-6.6914,-6.6914,-6.6914,-6.6914,-6.6914,-6.6914,-6.6834,-6.674,-6.674,-6.6675,-6.6498,-6.6341,-6.6187,-6.6109,-6.6109,-6.6244,-6.6507,-6.6557,-6.6692,-6.6914,-6.6788,-6.674,-6.674,-6.674,-6.674,-6.674,-6.6834,-6.6914,-6.6914,-6.6914,-6.6914,-6.6914,-6.6914,-6.6914,-6.6914,-6.6914,-6.6785,-6.6616,-6.6616,-6.6424,-6.6212,-6.6146,-6.6049,-6.5974,-6.5909,-6.5897,-6.5897,-6.5897,-6.5897,-6.5897,-6.5897,-6.5897,-6.5897,-6.5897,-6.559,-6.5282,-6.5282,-6.4351,-6.34,-6.2937,-6.2176,-6.1453,-6.099,-6.0834,-6.0781,-6.0781,-6.0781,-6.0935,-6.137,-6.1743,-6.2281,-6.3166,-6.3666,-6.3705,-6.3281,-6.3705,-6.3974,-6.3897,-6.4359,-6.5013,-6.5859,-6.5897,-6.5897,-6.5897,-6.5897,-6.5897,-6.5897,-6.5897,-6.5897,-6.5897,-6.5897,-6.6128,-6.6513,-6.609,-6.6128,-6.6513,-6.609,-6.5897,-6.5897,-6.5897,-6.5897,-6.5897,-6.5897,-6.5897,-6.5897,-6.6914,-6.6914,-6.6914,-6.6914,-6.6914,-6.6914,-6.6914,-6.6914,-6.6914,-6.6914,-6.6914,-6.6914,-6.6914,-6.6914,-6.6914,-6.6914,-6.6914,-6.6792,-6.6622,-6.6557,-6.6493,-6.6334,-6.617,-6.6109,-6.6109,-6.6179,-6.6342,-6.6616,-6.6634,-6.6742,-6.6914,-6.669,-6.6616,-6.6616,-6.6557,-6.6557,-6.6619,-6.6745,-6.6873,-6.6914,-6.6914,-6.6914,-6.6914,-6.6914,-6.6874,-6.6833,-6.6833,-6.6683,-6.6468,-6.6468,-6.6281,-6.6059,-6.6059,-6.5986,-6.5897,-6.5897,-6.5897,-6.5897,-6.5897,-6.5897,-6.5897,-6.5897,-6.5897,-6.5897,-6.5897,-6.5897,-6.5897,-6.5897,-6.5205,-6.4397,-6.3743,-6.2935,-6.2166,-6.1473,0.0,-6.1396,-6.1396,-6.1396,-6.1473,-6.1666,-6.1666,-6.2012,-6.2909,-6.3358,-6.3435,-6.3024,-6.3974,-6.4397,-6.3935,-6.4551,-6.5205,-6.5859,-6.5897,-6.5897,-6.5897,-6.5897,-6.5897,-6.5897,-6.5897,-6.5897,-6.5897,-6.609,-6.6513,-6.7051,-6.6436,-6.6513,-6.7051,-6.6244,-6.5897,-6.5897,-6.5897,-6.5897,-6.5897,-6.5897,-6.5897,-6.5897,-6.6914,-6.6914,-6.6914,-6.6914,-6.6914,-6.6914,-6.6914,-6.6914,-6.6914,-6.6914,-6.6914,-6.6914,-6.6914,-6.6914,-6.6914,-6.6914,-6.6914,-6.6792,-6.6622,-6.6483,-6.6327,-6.6146,-6.6119,-6.6109,-6.6109,-6.6402,-6.6564,-6.6616,-6.6788,-6.6875,-6.6914,-6.669,-6.6616,-6.6574,-6.6468,-6.6483,-6.6616,-6.6622,-6.6737,-6.6914,-6.6914,-6.6914,-6.6914,-6.6914,-6.6788,-6.6625,-6.6625,-6.6407,-6.6126,-6.6126,-6.6056,-6.5897,-6.5897,-6.5923,-6.5897,-6.5897,-6.5897,-6.5897,-6.5897,-6.5897,-6.5897,-6.5897,-6.5897,-6.5897,-6.5897,-6.5897,-6.5897,-6.5897,-6.5205,-6.4589,-6.4512,-6.382,-6.3205,-6.3128,0.0,0.0,-6.3128,-6.3128,-6.3435,-6.4205,-6.432,-6.4666,-6.5551,-6.4936,-6.482,-6.5551,-6.4974,-6.4936,-6.5667,-6.5782,-6.582,-6.5897,-6.5897,-6.5897,-6.5897,-6.5897,-6.5897,-6.5897,-6.5897,-6.5897,-6.5936,-6.6667,-6.7051,-6.709,-6.7051,-6.7051,-6.7051,-6.6244,-6.5897,-6.5897,-6.5897,-6.5897,-6.5897,-6.5897,-6.5897,-6.5897,-6.6914,-6.6914,-6.6914,-6.6914,-6.6914,-6.6914,-6.6914,-6.6914,-6.6914,-6.6914,-6.6914,-6.6914,-6.6914,-6.6914,-6.6914,-6.6914,-6.6914,-6.6978,-6.7224,-6.6775,-6.6385,-6.6128,-6.6109,-6.6212,-6.6402,-6.6541,-6.6678,-6.6788,-6.6874,-6.6833,-6.6694,-6.6533,-6.6423,-6.6288,-6.6368,-6.6423,-6.6488,-6.6685,-6.7145,-6.7656,-6.7109,-6.7539,-6.8359,-6.7305,-6.7099,-6.7397,-6.7393,-6.6846,-6.6187,-6.6729,-6.6466,-6.5897,-6.5897,-6.5897,-6.6013,-6.6513,-6.6282,-6.6013,-6.6513,-6.6282,-6.5897,-6.5897,-6.5897,-6.5897,-6.5897,-6.5897,-6.5897,-6.5897,-6.5628,-6.5243,-6.4705,-6.432,-6.3935,-6.3397,0.0,-6.3308,-6.3308,-6.3308,-6.3423,-6.3743,-6.3782,-6.4128,-6.5013,-6.4782,-6.4743,-6.5051,-6.5282,-6.532,-6.5089,-6.559,-6.5897,-6.5897,-6.5897,-6.5897,-6.5897,-6.5897,-6.5897,-6.5897,-6.5897,-6.5897,-6.5897,-6.6205,-6.6628,-6.7051,-6.6551,-6.6628,-6.7051,-6.6244,-6.5897,-6.5897,-6.5897,-6.5897,-6.5897,-6.5897,-6.5897,-6.5897,-6.6914,-6.6914,-6.6914,-6.6914,-6.6914,-6.6914,-6.6914,-6.6914,-6.6914,-6.6914,-6.6914,-6.6992,-6.7265,-6.7305,-6.7305,-6.7305,-6.7305,-6.7407,-6.7681,-6.7209,-6.6724,-6.6234,-6.6213,-6.636,-6.6574,-6.6912,-6.7057,-6.6914,-6.7187,-6.7062,-6.6616,-6.6463,-6.629,-6.6119,-6.6236,-6.6334,-6.6444,-6.6993,-6.7614,-6.8164,-6.7851,-6.8398,-6.9297,-6.8082,-6.7856,-6.8167,-6.7847,-6.7332,-6.6868,-6.7216,-6.7043,-6.6705,-6.6705,-6.6513,-6.632,-6.6628,-6.632,-6.6013,-6.6551,-6.632,-6.5897,-6.5897,-6.5897,-6.5897,-6.5897,-6.5897,-6.5897,-6.5897,-6.5897,-6.5705,-6.5128,-6.5013,-6.482,-6.4205,-6.4128,-6.4128,-6.4128,-6.4128,-6.4012,-6.3743,-6.3935,-6.4243,-6.4589,-6.4859,-6.5013,-6.5013,-6.5551,-6.5628,-6.5051,-6.559,-6.5897,-6.5897,-6.5897,-6.6013,-6.6282,-6.6013,-6.5897,-6.5897,-6.5897,-6.6013,-6.6282,-6.6282,-6.6744,-6.7475,-6.6628,-6.659,-6.7051,-6.6244,-6.5897,-6.5897,-6.5897,-6.5897,-6.5897,-6.5897,-6.5897,-6.5897,-6.6914,-6.6914,-6.6914,-6.6914,-6.6914,-6.6914,-6.6914,-6.6914,-6.6914,-6.6914,-6.6914,-6.7226,-6.8125,-6.8203,-6.8203,-6.8203,-6.8203,-6.812,-6.7913,-6.7808,-6.7334,-6.6471,-6.6525,-6.6616,-6.6616,-6.7649,-6.7773,-6.6914,-6.7773,-6.7648,-6.6613,-6.6457,-6.629,-6.6109,-6.6109,-6.6204,-6.6477,-6.7477,-6.8023,-6.8281,-6.914,-6.9492,-6.9492,-6.9296,-6.9085,-6.8779,-6.7781,-6.7856,-6.8282,-6.7398,-6.7705,-6.8385,-6.8385,-6.7821,-6.6936,-6.6128,-6.5897,-6.5897,-6.5897,-6.5897,-6.5897,-6.5897,-6.5897,-6.5897,-6.5897,-6.5897,-6.5897,-6.5897,-6.5897,-6.5897,-6.5897,-6.5897,-6.5897,-6.5897,-6.5897,-6.5897,-6.5897,-6.5897,-6.559,-6.4705,-6.5359,-6.5551,-6.4705,-6.5397,-6.5897,-6.5897,-6.5897,-6.5897,-6.5897,-6.5897,-6.5897,-6.5897,-6.5897,-6.6282,-6.709,-6.632,-6.5897,-6.5897,-6.5897,-6.632,-6.709,-6.709,-6.759,-6.8359,-6.7475,-6.709,-6.7051,-6.6244,-6.5897,-6.5897,-6.5897,-6.5897,-6.5897,-6.5897,-6.5897,-6.5897,-6.6914,-6.6914,-6.6914,-6.6914,-6.6914,-6.6914,-6.6914,-6.6914,-6.7109,-6.7734,-6.7812,-6.8125,-6.9023,-6.8555,-6.8437,-6.9062,-6.8555,-6.8437,-6.8979,-6.9435,-6.9338,-6.8531,-6.7297,-6.668,-6.6791,-6.7734,-6.8086,-6.7812,-6.7916,-6.7784,-6.7353,-6.6555,-6.6144,-6.6119,-6.6244,-6.6756,-6.7481,-6.7908,-6.8826,-6.9922,-6.957,-7.0073,-7.0902,-6.9667,-6.9373,-6.9544,-6.9256,-6.8811,-6.8462,-6.8821,-6.8706,-6.8385,-6.8385,-6.8244,-6.7975,-6.7705,-6.7205,-6.6744,-6.6744,-6.632,-6.5897,-6.5897,-6.5897,-6.5897,-6.5897,-6.5897,-6.5897,-6.5897,-6.5897,-6.5897,-6.5897,-6.5897,-6.5897,-6.5897,-6.5897,-6.5897,-6.5897,-6.5897,-6.5782,-6.5551,-6.5743,-6.5782,-6.5551,-6.5743,-6.5897,-6.5897,-6.5897,-6.5897,-6.5897,-6.6436,-6.6744,-6.6744,-6.7359,-6.7782,-6.8013,-6.659,-6.6474,-6.7667,-6.7013,-6.7205,-6.8013,-6.8013,-6.8167,-6.8359,-6.7475,-6.709,-6.7051,-6.6244,-6.5897,-6.5897,-6.5897,-6.5897,-6.5897,-6.5897,-6.5897,-6.5897,-6.6914,-6.6914,-6.6914,-6.6914,-6.6914,-6.7031,-6.7344,-6.7422,-6.7734,-6.8555,-6.8672,-6.9023,-6.9883,-6.9492,-6.9414,-6.9922,-6.9492,-6.9414,-6.9922,-7.0342,-7.0378,-6.9922,-6.8506,-6.7763,-6.793,-6.875,-6.8867,-6.8203,-6.8332,-6.7976,-6.7165,-6.6459,-6.6109,-6.6119,-6.6662,-6.7296,-6.7952,-6.8823,-6.9765,-7.0664,-7.0423,-7.087,-7.1565,-7.0414,-7.0184,-7.0349,-6.996,-6.9642,-6.9436,-6.9629,-6.9552,-6.9321,-6.9013,-6.8898,-6.8783,-6.809,-6.7744,-6.7475,-6.6821,-6.6513,-6.6282,-6.5974,-6.5897,-6.5897,-6.5897,-6.5897,-6.5897,-6.5897,-6.5897,-6.5897,-6.5897,-6.5897,-6.5897,-6.5897,-6.5897,-6.5897,-6.5897,-6.5897,-6.5782,-6.5436,-6.5705,-6.5743,-6.5436,-6.5705,-6.5897,-6.5897,-6.6205,-6.6359,-6.6359,-6.7167,-6.7628,-6.7628,-6.8129,-6.8577,-6.8898,-6.759,-6.7398,-6.8385,-6.7859,-6.809,-6.8898,-6.8552,-6.859,-6.8859,-6.7628,-6.709,-6.7051,-6.6244,-6.5897,-6.5897,-6.5897,-6.5897,-6.5897,-6.5897,-6.5897,-6.5897,-6.6914,-6.6914,-6.6914,-6.6914,-6.6914,-6.7187,-6.7969,-6.8164,-6.8476,-6.9219,-6.9414,-6.9805,-7.0625,-7.0703,-7.0742,-7.082,-7.082,-7.082,-7.082,-7.082,-7.082,-7.082,-7.0078,-6.9648,-6.9726,-7.0351,-6.9922,-6.832,-6.8874,-6.8275,-6.6504,-6.6226,-6.6119,-6.6156,-6.7235,-6.7823,-6.8156,-6.9957,-7.0742,-7.0859,-7.1448,-7.1686,-7.1655,-7.1323,-7.1201,-7.1031,-7.0131,-7.0283,-7.0783,-7.0052,-7.0283,-7.0783,-7.0052,-6.9821,-6.9475,-6.7821,-6.7859,-6.8052,-6.6436,-6.6474,-6.6821,-6.6167,-6.6013,-6.6013,-6.6013,-6.6013,-6.6013,-6.609,-6.6128,-6.6128,-6.6128,-6.6051,-6.6013,-6.6013,-6.5936,-6.5897,-6.5897,-6.5897,-6.559,-6.482,-6.5474,-6.5705,-6.4897,-6.559,-6.6128,-6.6128,-6.6782,-6.7205,-6.7205,-6.8052,-6.8513,-6.8513,-6.859,-6.9013,-6.9821,-6.9013,-6.8615,-6.8615,-6.8552,-6.8975,-6.9783,-6.9013,-6.9052,-6.9706,-6.7975,-6.7205,-6.7128,-6.6244,-6.5897,-6.5897,-6.5897,-6.5897,-6.5897,-6.5897,-6.5897,-6.5897,-6.6914,-6.6914,-6.6914,-6.6914,-6.6914,-6.6953,-6.7148,-6.7773,-6.8242,-6.8437,-6.9609,-7.0508,-7.0664,-7.0703,-7.0976,-7.164,-7.1719,-7.1719,-7.1719,-7.1719,-7.1719,-7.1719,-7.1523,-7.1445,-7.1445,-7.0976,-7.0195,-6.9219,-6.9053,-6.8421,-6.7405,-6.6497,-6.617,-6.6379,-6.7394,-6.8354,-6.9216,-7.0273,-7.1094,-7.1718,-7.1683,-7.1642,-7.1518,-7.1338,-7.1158,-7.0928,-7.0733,-7.0744,-7.086,-7.0706,-7.0744,-7.086,-7.0706,-7.0629,-7.0437,-6.9436,-6.8783,-6.8167,-6.7128,-6.6513,-6.6282,-6.6744,-6.6821,-6.6821,-6.6821,-6.6821,-6.7013,-6.7705,-6.7859,-6.7859,-6.7859,-6.7282,-6.6821,-6.6821,-6.632,-6.5897,-6.5897,-6.5897,-6.582,-6.5628,-6.632,-6.6782,-6.659,-6.7359,-6.7859,-6.7859,-6.8013,-6.8129,-6.8129,-6.8936,-6.9436,-6.9436,-7.0014,-7.0437,-7.0629,-7.0437,-7.036,-7.036,-6.9706,-6.986,-7.0629,-7.0437,-7.0475,-7.0552,-6.8859,-6.8129,-6.8013,-6.6513,-6.5897,-6.5897,-6.5897,-6.5897,-6.5897,-6.5897,-6.5897,-6.5897,-6.6914,-6.6914,-6.6914,-6.6914,-6.6914,-6.7031,-6.7461,-6.8242,-6.8906,-6.9336,-7.0508,-7.1328,-7.1328,-7.1328,-7.1484,-7.1953,-7.1992,-7.1992,-7.1992,-7.1992,-7.1992,-7.1992,-7.1992,-7.1992,-7.1992,-7.1562,-7.0898,-7.0078,-6.9307,-6.8505,-6.7779,-6.6625,-6.6252,-6.6537,-6.7926,-6.8882,-6.9609,-7.125,-7.1912,-7.1895,-7.2127,-7.1868,-7.1353,-7.1164,-7.1017,-7.0898,-7.0898,-7.0898,-7.0898,-7.0898,-7.0898,-7.0898,-7.0898,-7.0898,-7.0744,-6.9937,-6.9398,-6.8821,-6.7975,-6.7398,-6.7205,-6.7628,-6.7705,-6.7705,-6.7705,-6.7705,-6.7859,-6.8321,-6.8385,-6.8385,-6.8385,-6.8013,-6.759,-6.7167,-6.709,-6.6821,-6.6013,-6.6244,-6.632,-6.5936,-6.659,-6.7244,-6.7667,-6.8129,-6.8385,-6.8385,-6.8783,-6.9013,-6.9013,-6.9821,-7.0283,-7.0283,-7.0667,-7.0898,-7.0898,-7.0898,-7.0898,-7.0898,-7.0475,-7.0475,-7.0898,-7.0898,-7.0706,-7.0244,-6.8975,-6.8167,-6.7667,-6.6436,-6.5897,-6.5897,-6.5897,-6.5897,-6.5897,-6.5897,-6.5897,-6.5897,-6.6914,-6.6914,-6.6914,-6.6914,-6.6914,-6.7187,-6.8086,-6.8789,-6.9492,-7.0351,-7.125,-7.1836,-7.1992,-7.2148,-7.2148,-7.1992,-7.1992,-7.1992,-7.1992,-7.1992,-7.1992,-7.1992,-7.1992,-7.1992,-7.1992,-7.1992,-7.1562,-7.0662,-6.9666,-6.871,-6.784,-6.6846,-6.6491,-6.6694,-6.8468,-6.9319,-6.9648,-7.203,-7.2523,-7.176,-7.2458,-7.2224,-7.1422,-7.1262,-7.1168,-7.1129,-7.1168,-7.1052,-7.0898,-7.0898,-7.0898,-7.0898,-7.0898,-7.0898,-7.0783,-7.009,-6.9821,-6.9552,-6.8821,-6.85,-6.8423,-6.859,-6.8629,-6.8667,-6.8821,-6.8744,-6.8667,-6.8821,-6.8821,-6.8821,-6.8821,-6.8706,-6.8398,-6.7667,-6.8013,-6.7898,-6.6513,-6.6898,-6.7051,-6.6397,-6.7051,-6.7859,-6.8744,-6.8821,-6.8821,-6.8821,-6.9513,-6.9898,-6.9898,-7.0552,-7.0898,-7.0898,-7.0898,-7.0898,-7.0898,-7.0898,-7.0898,-7.0898,-7.0898,-7.0898,-7.0898,-7.0898,-7.0475,-6.9667,-6.8783,-6.7898,-6.7051,-6.6244,-6.5974,-6.609,-6.609,-6.609,-6.609,-6.5936,-6.5897,-6.5897,-6.6914,-6.6914,-6.6914,-6.6914,-6.6914,-6.7187,-6.8086,-6.8281,-6.8633,-6.9453,-7.0312,-7.1172,-7.1914,-7.2656,-7.2812,-7.207,-7.1992,-7.1992,-7.1992,-7.1992,-7.1992,-7.1992,-7.1992,-7.1992,-7.1992,-7.1992,-7.1518,-7.0534,-7.0362,-6.9372,-6.7624,-6.7638,-6.7298,-6.6697,-6.8545,-6.9374,-6.9531,-7.1184,-7.1819,-7.1753,-7.2305,-7.2453,-7.2341,-7.2353,-7.2231,-7.2052,-7.2297,-7.1758,-7.0898,-7.0898,-7.0898,-7.0898,-7.0898,-7.0898,-7.0898,-7.0783,-7.0244,-6.9667,-6.9552,-6.8975,-6.859,-6.936,-6.9513,-6.9706,-7.0398,-7.0014,-6.9706,-7.0437,-7.0552,-7.0552,-7.0552,-6.9975,-6.9475,-6.936,-6.8821,-6.8321,-6.809,-6.8167,-6.8167,-6.809,-6.8821,-6.9667,-7.0475,-7.0552,-7.0552,-7.0552,-7.0667,-7.0744,-7.0744,-7.0821,-7.0898,-7.0898,-7.0898,-7.0898,-7.0898,-7.0898,-7.0898,-7.0898,-7.0898,-7.0898,-7.0898,-7.0898,-7.0475,-6.9667,-6.8783,-6.7898,-6.7051,-6.6244,-6.632,-6.6936,-6.6936,-6.6936,-6.6859,-6.6167,-6.5897,-6.5897,-6.7539,-6.7617,-6.7773,-6.8203,-6.832,-6.8476,-6.8867,-6.9297,-6.9726,-7.0078,-7.1328,-7.2109,-7.1992,-7.2773,-7.3164,-7.2773,-7.2734,-7.2539,-7.2031,-7.1992,-7.1992,-7.1992,-7.1992,-7.1992,-7.1992,-7.1992,-7.1711,-7.1182,-7.072,-6.9865,-6.8661,-6.8652,-6.8203,-6.7566,-6.9335,-7.0117,-7.0234,-7.1763,-7.2088,-7.1689,-7.2771,-7.2866,-7.2379,-7.2902,-7.3038,-7.2899,-7.2528,-7.2066,-7.1629,-7.1629,-7.1937,-7.236,-7.236,-7.2014,-7.1629,-7.1629,-7.0706,-6.9821,-7.0244,-6.9744,-6.9321,-7.0167,-7.036,-7.0475,-7.0821,-7.0629,-7.0475,-7.0821,-7.0898,-7.0898,-7.0898,-7.0591,-7.0206,-6.9783,-6.9744,-6.9475,-6.8552,-6.8821,-6.9129,-6.9129,-6.9475,-7.0014,-7.0821,-7.0898,-7.0898,-7.0898,-7.0898,-7.0898,-7.0898,-7.0898,-7.0898,-7.0898,-7.0898,-7.0898,-7.0898,-7.0898,-7.0898,-7.0898,-7.0898,-7.0898,-7.0898,-7.0898,-7.0475,-6.9667,-6.9283,-6.8629,-6.7782,-6.7436,-6.7513,-6.7821,-6.7821,-6.7513,-6.7013,-6.6205,-6.6167,-6.6551]},{"header":{"parameterUnit":"m.s-1","parameterCategory":1,"la1":30.6,"la2":28.766,"lo1":-90.7593,"lo2":-88.6598,"dy":0.0162,"dx":0.0183,"nx":116,"ny":114,"refTime":"2024-02-11T18:00:00:Z","depth":0,"parameterNumber":3,"parameterNumberName":"V-component_of_WINDS"},"data":[0.0,0.0,0.0,0.0,0.0,0.0,0.0,0.0,0.0,0.0,0.0,0.0,0.0,0.0,0.0,0.0,0.0,0.0,0.0,0.0,0.0,0.0,0.0,0.0,0.0,0.0,0.0,0.0,0.0,0.0,0.0,0.0,0.0,0.0,0.0,0.0,0.0,0.0,0.0,0.0,0.0,0.0,0.0,0.0,0.0,0.0,0.0,0.0,0.0,0.0,0.0,0.0,0.0,0.0,0.0,0.0,0.0,0.0,0.0,0.0,0.0,0.0,0.0,0.0,0.0,0.0,0.0,0.0,0.0,0.0,0.0,0.0,0.0,0.0,0.0,0.0,0.0,0.0,0.0,0.0,0.0,0.0,0.0,0.0,0.0,0.0,0.0,0.0,0.0,0.0,0.0,0.0,0.0,0.0,0.0,0.0,0.0,0.0,0.0,0.0,0.0,0.0,0.0,0.0,0.0,0.0,0.0,0.0,0.0,0.0,0.0,0.0,0.0,0.0,0.0,0.0,0.0,0.0,0.0,0.0,0.0,0.0,0.0,0.0,0.0,0.0,0.0,0.0,0.0,0.0,0.0,0.0,0.0,0.0,0.0,0.0,0.0,0.0,0.0,0.0,0.0,0.0,0.0,0.0,0.0,0.0,0.0,0.0,0.0,0.0,0.0,0.0,0.0,0.0,0.0,0.0,0.0,0.0,0.0,0.0,0.0,0.0,0.0,0.0,0.0,0.0,0.0,0.0,0.0,0.0,0.0,0.0,0.0,0.0,0.0,0.0,0.0,0.0,0.0,0.0,0.0,0.0,0.0,0.0,0.0,0.0,0.0,0.0,0.0,0.0,0.0,0.0,0.0,0.0,0.0,0.0,0.0,0.0,0.0,0.0,0.0,0.0,0.0,0.0,0.0,0.0,0.0,0.0,0.0,0.0,0.0,0.0,0.0,0.0,0.0,0.0,0.0,0.0,0.0,0.0,0.0,0.0,0.0,0.0,0.0,0.0,0.0,0.0,0.0,0.0,0.0,0.0,0.0,0.0,0.0,0.0,0.0,0.0,0.0,0.0,0.0,0.0,0.0,0.0,0.0,0.0,0.0,0.0,0.0,0.0,0.0,0.0,0.0,0.0,0.0,0.0,0.0,0.0,0.0,0.0,0.0,0.0,0.0,0.0,0.0,0.0,0.0,0.0,0.0,0.0,0.0,0.0,0.0,0.0,0.0,0.0,0.0,0.0,0.0,0.0,0.0,0.0,0.0,0.0,0.0,0.0,0.0,0.0,0.0,0.0,0.0,0.0,0.0,0.0,0.0,0.0,0.0,0.0,0.0,0.0,0.0,0.0,0.0,0.0,0.0,0.0,0.0,0.0,0.0,0.0,0.0,0.0,0.0,0.0,0.0,0.0,0.0,0.0,0.0,0.0,0.0,0.0,0.0,0.0,0.0,0.0,0.0,0.0,0.0,0.0,0.0,0.0,0.0,0.0,0.0,0.0,0.0,0.0,0.0,0.0,0.0,0.0,0.0,0.0,0.0,0.0,0.0,0.0,0.0,0.0,0.0,0.0,0.0,0.0,0.0,0.0,0.0,0.0,0.0,0.0,0.0,0.0,0.0,0.0,0.0,0.0,0.0,0.0,0.0,0.0,0.0,0.0,0.0,0.0,0.0,0.0,0.0,0.0,0.0,0.0,0.0,0.0,0.0,0.0,0.0,0.0,0.0,0.0,0.0,0.0,0.0,0.0,0.0,0.0,0.0,0.0,0.0,0.0,0.0,0.0,0.0,0.0,0.0,0.0,0.0,0.0,0.0,0.0,0.0,0.0,0.0,0.0,0.0,0.0,0.0,0.0,0.0,0.0,0.0,0.0,0.0,0.0,0.0,0.0,0.0,0.0,0.0,0.0,0.0,0.0,0.0,0.0,0.0,0.0,0.0,0.0,0.0,0.0,0.0,0.0,0.0,0.0,0.0,0.0,0.0,0.0,0.0,0.0,0.0,0.0,0.0,0.0,0.0,0.0,0.0,0.0,0.0,0.0,0.0,0.0,0.0,0.0,0.0,0.0,0.0,0.0,0.0,0.0,0.0,0.0,0.0,0.0,0.0,0.0,0.0,0.0,0.0,0.0,0.0,0.0,0.0,0.0,0.0,0.0,0.0,0.0,0.0,0.0,0.0,0.0,0.0,0.0,0.0,0.0,0.0,0.0,0.0,0.0,0.0,0.0,0.0,0.0,0.0,0.0,0.0,0.0,0.0,0.0,0.0,0.0,0.0,0.0,0.0,0.0,0.0,0.0,0.0,0.0,0.0,0.0,0.0,0.0,0.0,0.0,0.0,0.0,0.0,0.0,0.0,0.0,0.0,0.0,0.0,0.0,0.0,0.0,0.0,0.0,0.0,0.0,0.0,0.0,0.0,0.0,0.0,0.0,0.0,0.0,0.0,0.0,0.0,0.0,0.0,0.0,0.0,0.0,0.0,0.0,0.0,0.0,0.0,0.0,0.0,0.0,0.0,0.0,0.0,0.0,0.0,0.0,0.0,0.0,0.0,0.0,0.0,0.0,0.0,0.0,0.0,0.0,0.0,0.0,0.0,0.0,0.0,0.0,0.0,0.0,0.0,0.0,0.0,0.0,0.0,0.0,0.0,0.0,0.0,0.0,0.0,0.0,0.0,0.0,0.0,0.0,0.0,0.0,0.0,0.0,0.0,0.0,0.0,0.0,0.0,0.0,0.0,0.0,0.0,0.0,0.0,0.0,0.0,0.0,0.0,0.0,0.0,0.0,0.0,0.0,0.0,0.0,0.0,0.0,0.0,0.0,0.0,0.0,0.0,0.0,0.0,0.0,0.0,0.0,0.0,0.0,0.0,0.0,0.0,0.0,0.0,0.0,0.0,0.0,0.0,0.0,0.0,0.0,0.0,0.0,0.0,0.0,0.0,0.0,0.0,0.0,0.0,0.0,0.0,0.0,0.0,0.0,0.0,0.0,0.0,0.0,0.0,0.0,0.0,0.0,0.0,0.0,0.0,0.0,0.0,0.0,0.0,0.0,0.0,0.0,0.0,0.0,0.0,0.0,0.0,0.0,0.0,0.0,0.0,0.0,0.0,0.0,0.0,0.0,0.0,0.0,0.0,0.0,0.0,0.0,0.0,0.0,0.0,0.0,0.0,0.0,0.0,0.0,0.0,0.0,0.0,0.0,0.0,0.0,0.0,0.0,0.0,0.0,0.0,0.0,0.0,0.0,0.0,0.0,0.0,0.0,0.0,0.0,0.0,0.0,0.0,0.0,0.0,0.0,0.0,0.0,0.0,0.0,0.0,0.0,0.0,0.0,0.0,0.0,0.0,0.0,0.0,0.0,0.0,0.0,0.0,0.0,0.0,0.0,0.0,0.0,0.0,0.0,0.0,0.0,0.0,0.0,0.0,0.0,0.0,0.0,0.0,0.0,0.0,0.0,0.0,0.0,0.0,0.0,0.0,0.0,0.0,0.0,0.0,0.0,0.0,0.0,0.0,0.0,0.0,0.0,0.0,0.0,0.0,0.0,0.0,0.0,0.0,0.0,0.0,0.0,0.0,0.0,0.0,0.0,0.0,0.0,0.0,0.0,0.0,0.0,0.0,0.0,0.0,0.0,0.0,0.0,0.0,0.0,0.0,0.0,0.0,0.0,0.0,0.0,0.0,0.0,0.0,0.0,0.0,0.0,0.0,0.0,0.0,0.0,0.0,0.0,0.0,0.0,0.0,0.0,0.0,0.0,0.0,0.0,0.0,0.0,0.0,0.0,0.0,0.0,0.0,0.0,0.0,0.0,0.0,0.0,0.0,0.0,0.0,0.0,0.0,0.0,0.0,0.0,0.0,0.0,0.0,0.0,0.0,0.0,0.0,0.0,0.0,0.0,0.0,0.0,0.0,0.0,0.0,0.0,0.0,0.0,0.0,0.0,0.0,0.0,0.0,0.0,0.0,0.0,0.0,0.0,0.0,0.0,0.0,0.0,0.0,0.0,0.0,0.0,0.0,0.0,0.0,0.0,0.0,0.0,0.0,0.0,0.0,0.0,0.0,0.0,0.0,0.0,0.0,0.0,0.0,0.0,0.0,0.0,0.0,0.0,0.0,0.0,0.0,0.0,0.0,0.0,0.0,0.0,0.0,0.0,0.0,0.0,0.0,0.0,0.0,0.0,0.0,0.0,0.0,0.0,0.0,0.0,0.0,0.0,0.0,0.0,0.0,0.0,0.0,0.0,0.0,0.0,0.0,0.0,0.0,0.0,0.0,0.0,0.0,0.0,0.0,0.0,0.0,0.0,0.0,0.0,0.0,0.0,0.0,0.0,0.0,0.0,0.0,0.0,0.0,0.0,0.0,0.0,0.0,0.0,0.0,0.0,0.0,0.0,0.0,0.0,0.0,0.0,0.0,0.0,0.0,0.0,0.0,0.0,0.0,0.0,0.0,0.0,0.0,0.0,0.0,0.0,0.0,0.0,0.0,0.0,0.0,0.0,0.0,0.0,0.0,0.0,0.0,0.0,0.0,0.0,0.0,0.0,0.0,0.0,0.0,0.0,0.0,0.0,0.0,0.0,0.0,0.0,0.0,0.0,0.0,0.0,0.0,0.0,0.0,0.0,0.0,0.0,0.0,0.0,0.0,0.0,0.0,0.0,0.0,0.0,0.0,0.0,0.0,0.0,0.0,0.0,0.0,0.0,0.0,0.0,0.0,0.0,0.0,0.0,0.0,0.0,0.0,0.0,0.0,0.0,0.0,0.0,0.0,0.0,0.0,0.0,0.0,0.0,0.0,0.0,0.0,0.0,0.0,0.0,0.0,0.0,0.0,0.0,0.0,0.0,0.0,0.0,0.0,0.0,0.0,0.0,0.0,0.0,0.0,0.0,0.0,0.0,0.0,0.0,0.0,0.0,0.0,0.0,0.0,0.0,0.0,0.0,0.0,0.0,0.0,0.0,0.0,0.0,0.0,0.0,0.0,0.0,0.0,0.0,0.0,0.0,0.0,0.0,0.0,0.0,0.0,0.0,0.0,0.0,0.0,0.0,0.0,0.0,0.0,0.0,0.0,0.0,0.0,0.0,0.0,0.0,0.0,0.0,0.0,0.0,0.0,0.0,0.0,0.0,0.0,0.0,0.0,0.0,0.0,0.0,0.0,0.0,0.0,0.0,0.0,0.0,0.0,0.0,0.0,0.0,0.0,0.0,0.0,0.0,0.0,0.0,0.0,0.0,0.0,0.0,0.0,0.0,0.0,0.0,0.0,0.0,0.0,0.0,0.0,0.0,0.0,0.0,0.0,0.0,0.0,0.0,0.0,0.0,0.0,0.0,0.0,0.0,0.0,0.0,0.0,0.0,0.0,0.0,0.0,0.0,0.0,0.0,0.0,0.0,0.0,0.0,0.0,0.0,0.0,0.0,0.0,0.0,0.0,0.0,0.0,0.0,0.0,0.0,0.0,0.0,0.0,0.0,0.0,0.0,0.0,0.0,0.0,0.0,0.0,0.0,0.0,0.0,0.0,0.0,0.0,0.0,0.0,0.0,0.0,0.0,0.0,0.0,0.0,0.0,0.0,0.0,0.0,0.0,0.0,0.0,0.0,0.0,0.0,0.0,0.0,0.0,0.0,0.0,0.0,0.0,0.0,0.0,0.0,0.0,0.0,0.0,0.0,0.0,0.0,0.0,0.0,0.0,0.0,0.0,0.0,0.0,0.0,0.0,0.0,0.0,0.0,0.0,0.0,0.0,0.0,0.0,0.0,0.0,0.0,0.0,0.0,0.0,0.0,0.0,0.0,0.0,0.0,0.0,0.0,0.0,0.0,0.0,0.0,0.0,0.0,0.0,0.0,0.0,0.0,0.0,0.0,0.0,0.0,0.0,0.0,0.0,0.0,0.0,0.0,0.0,0.0,0.0,0.0,0.0,0.0,0.0,0.0,0.0,0.0,0.0,0.0,0.0,0.0,0.0,0.0,0.0,0.0,0.0,0.0,0.0,0.0,0.0,0.0,0.0,0.0,0.0,0.0,0.0,0.0,0.0,0.0,0.0,0.0,0.0,0.0,0.0,0.0,0.0,0.0,0.0,0.0,0.0,0.0,0.0,0.0,0.0,0.0,0.0,-0.0526,-0.0197,0.0,0.0,0.0,0.0,0.0,0.0,0.0,0.0,0.0,0.0,0.0,0.0,0.0,0.0,0.0,0.0,0.0,0.0,0.0,0.0,0.0,0.0,0.0,0.0,0.0,0.0,0.0,0.0,0.0,0.0,0.0,0.0,0.0,0.0,-0.5474,-0.4646,-0.2817,0.0,0.0,0.0,0.0,-0.1008,-0.1515,-0.1517,0.0,0.0,0.0,0.0,0.0,0.0,0.0,0.0,0.0,0.0,0.0,0.0,0.0,0.0,0.0,0.0,0.0,0.0,0.0,0.0,0.0,0.0,0.0,0.0,0.0,0.0,0.0,0.0,0.0,0.0,0.0,0.0,0.0,0.0,0.0,0.0,0.0,0.0,0.0,0.0,0.0,0.0,0.0,0.0,0.0,0.0,0.0,0.0,0.0,0.0,0.0,0.0,0.0,0.0,0.0,0.0,0.0,0.0,0.0,0.0,0.0,0.0,0.0,0.0,0.0,0.0,0.0,0.0,0.0,0.0,0.3356,0.3101,0.0,0.0,0.0,0.0,0.0,0.0,0.0,0.0,0.0,0.0,0.0,0.0,0.0,0.0,0.0,0.0,0.0,0.0,0.0,0.0,0.0,0.0,0.0,-1.0717,-1.0585,-1.0246,-1.0518,-1.0638,0.0,0.0,0.0,0.0,0.0,-0.7035,-0.4947,-0.3484,-0.1837,0.0,0.0,0.0,0.0,0.0,0.0,0.0,0.0,0.0,0.0,0.0,0.0,0.0,0.0,0.0,0.0,0.0,0.0,0.0,0.0,0.0,0.0,0.0,0.0,0.0,0.0,0.0,0.0,0.0,0.0,0.0,0.0,0.0,0.0,0.0,0.0,0.0,0.0,0.0,0.0,0.0,0.0,0.0,0.0,0.0,0.0,0.0,0.0,0.0,0.0,0.0,0.0,0.0,0.0,0.0,0.0,0.0,0.0,0.0,0.0,0.0,0.0,0.0,0.0,0.0,0.0,0.0,0.0,0.0,0.0,0.0,-0.0733,0.0796,0.2251,0.2884,0.4754,0.7348,0.666,0.6062,0.5642,0.5526,0.0,0.0,0.0,0.0,0.0,0.0,0.0,0.0,0.0,0.0,0.0,0.0,0.0,0.0,0.0,0.0,0.0,0.0,0.0,0.0,0.0,-1.0717,-1.0047,-0.8501,-0.9775,-1.0054,-0.8456,-0.9854,-0.9987,-0.8456,-0.8132,-0.6449,-0.3138,-0.2828,-0.1783,0.0,0.0,0.0,0.0,0.0,0.0,0.0,0.0,0.0,0.0,0.0,0.0,0.0,0.0,0.0,0.0,0.0,0.0,0.0,0.0,0.0,0.0,0.0,0.0,0.0,0.0,0.0,0.0,0.0,0.0,0.0,0.0,0.0,0.0,0.0,0.0,0.0,0.0,0.0,0.0,0.0,0.0,0.0,0.0,0.0,0.0,0.0,0.0,0.0,0.0,0.0,-0.131,-0.2841,0.0,0.0,0.0,0.0,0.0,0.0,0.0,0.0,0.0,0.0,0.0,0.0,0.0,-0.4903,-0.3088,-0.2819,-0.1881,-0.0336,-0.0136,0.0137,0.0478,0.3714,0.542,0.5908,0.8855,0.0,0.6623,0.6771,0.0,0.0,0.0,0.0,0.0,0.0,0.0,0.0,0.0,0.0,0.0,0.0,0.0,0.0,0.0,0.0,0.0,0.0,0.0,0.0,0.0,-0.9775,-0.8834,-0.8097,-0.8895,-0.9058,-0.8041,-0.8901,-0.9053,-0.8035,-0.6061,-0.4289,-0.2765,-0.1671,-0.0772,0.0,0.0,0.0,0.0,0.0,0.0,0.0,0.0,0.0,0.0,0.0,0.0,0.0,0.0,0.0,0.0,0.0,0.0,0.0,0.0,0.0,0.0,0.0,0.0,0.0,0.0,0.0,0.0,0.0,0.0,0.0,0.0,0.0,0.0,0.0,0.0,0.0,0.0,0.0,0.0,0.0,0.0,0.0,0.0,0.0,0.0,0.0,0.0,0.0,0.0,-0.3065,-0.1755,-0.2604,-0.273,-0.3702,0.0,0.0,0.0,0.0,0.0,0.0,0.0,0.0,0.0,-0.3887,-0.3861,-0.3034,-0.1184,-0.1184,-0.0763,0.0,0.0,0.0564,0.1597,0.3233,0.5118,0.7126,0.8713,0.9342,0.9148,0.9059,0.8705,0.8013,0.0,0.0,0.0,0.0,0.7303,0.7027,0.0,0.0,0.0,0.0,0.0,0.0,0.0,0.0,0.0,0.0,0.0,0.0,-1.0717,-0.9039,-0.7774,-0.7402,-0.7547,-0.7433,-0.6673,-0.7728,-0.7869,-0.6702,-0.4574,-0.2984,-0.2058,-0.0687,0.0,0.0,0.0,0.0,0.0,0.0,0.0,0.0,0.0,0.0,0.0,0.0,0.0,-0.0137,0.0,0.0,0.0,0.0,0.0,0.0,0.0,0.0,0.0,0.0,0.0,0.0,0.0,0.0,0.0,0.0,0.0,0.0,0.0,0.0,0.0,0.0,0.0,0.0,0.0,0.0,0.0,0.0,0.0,0.0,0.0,0.0,0.0,0.0,0.0,0.0,0.0,-0.331,-0.1882,-0.2026,-0.2014,-0.2723,0.0,0.0,0.0,0.0,0.0,0.0,-0.4072,-0.4013,-0.3431,-0.2081,-0.1991,-0.1354,0.0,0.0,0.0,0.0,0.0,0.0727,0.2001,0.2517,0.4504,0.7612,0.8144,0.9376,1.1062,1.0732,1.0629,1.0647,1.0359,0.933,0.8225,1.0022,0.9861,0.8895,0.0,0.0,0.0,0.0,0.0,0.0,0.0,0.0,0.0,0.0,0.0,-1.0561,-1.0704,-0.8967,-0.7201,-0.5669,-0.5546,-0.4795,-0.308,-0.6147,-0.6502,-0.3086,-0.4414,-0.3627,-0.0206,-0.0069,0.0,0.0,0.0,0.0,0.0,0.0,0.0,0.0,0.0,0.0,0.0,0.0,0.0,-0.0202,-0.2113,0.0,0.0,0.0,0.0,0.0,0.0,0.0,0.0,0.0,0.0,0.0,0.0,0.0,0.0,0.0,0.0,0.0,0.0,0.0,0.0,0.0,0.0,0.0,0.0,0.0,0.0,0.0,0.0,0.0,0.0,0.0,0.0,0.0,0.0,0.0,0.0,0.0,0.0,-0.0129,-0.0131,0.0,0.0,0.0,0.0,-0.2678,-0.2784,-0.2078,-0.0356,-0.0286,-0.0216,-0.0146,-0.0146,-0.0073,0.0,0.0,0.0,0.0,0.0,0.0075,0.0227,0.2084,0.3965,0.5863,0.7713,0.952,1.1158,1.0993,1.0894,1.0724,1.0665,1.0618,1.0514,1.0663,1.0651,1.0545,0.0,0.0,0.0,0.0,0.0,0.0,0.0,0.0,-1.4558,-1.3456,-1.1709,-1.0697,-1.0786,-0.9232,-0.7917,-0.7406,-0.7469,-0.7174,-0.6369,-0.6449,-0.5937,-0.4495,-0.2832,-0.1354,0.0,0.0,0.0,0.0,0.0,0.0,0.0,0.0,0.0,0.0,0.0,0.0,0.0,0.0,0.0,-0.0067,-0.0744,-0.2855,0.0,0.0,0.0,0.0,0.0,0.0,0.0,0.0,0.0,0.0,0.0,0.0,0.0,0.0,0.0,0.0,0.0,0.0,0.0,0.0,0.0,0.0,0.0,0.0,0.0,0.0,0.0,0.0,0.0,0.0,0.0,0.0,0.0,0.0,0.0,0.0,0.0,-0.0136,0.0,0.0,-0.0817,-0.0949,-0.0956,-0.0908,-0.0921,-0.0652,0.0,0.0,0.0,0.0,0.0,0.0,0.0,0.0,0.0,0.0,0.0,0.0,0.0,0.0684,0.2779,0.5733,0.6436,0.8504,1.1307,1.1307,1.1062,1.0793,1.0752,1.0664,1.0715,1.0704,1.0656,1.0561,0.0,0.0,0.0,0.0,0.0,0.0,0.0,0.0,-1.5459,-1.4362,-1.2103,-1.0724,-1.086,-0.9296,-0.8265,-0.8483,-0.7963,-0.7576,-0.7374,-0.6332,-0.5328,-0.4495,-0.1613,0.0,0.0,0.0,0.0,0.0,0.0,0.0,0.0,0.0,0.0,0.0,0.0,0.0,0.0,0.0,0.0,0.0,0.0,-0.1828,-0.4575,0.0,0.0,0.0,0.0,0.0,0.0,0.0,0.0,0.0,0.0,0.0,0.0,0.0,0.0,0.0,0.0,0.0,0.0,0.0,0.0,0.0,0.0,0.0,0.0,0.0,0.0,0.0,0.0,0.0,0.0,0.0,0.0,0.0,0.0,-0.208,-0.1239,-0.0142,0.0,0.0,0.0,0.0,0.0,0.0,0.0,0.0,0.0,0.0,0.0,0.0,0.0,0.0,0.0,0.0,0.0,0.0,0.0,0.0,0.0,0.0,0.2122,0.5806,0.5833,0.7914,1.1389,1.1335,1.1172,1.0873,1.0766,1.0765,1.0711,1.0663,1.0582,1.0473,0.0,0.0,0.0,0.0,0.0,0.0,0.0,-1.8139,-1.5934,-1.5923,-1.2783,-1.0622,-1.0853,-0.9234,-0.8227,-0.858,-0.6885,-0.5789,-0.5789,-0.558,-0.4626,-0.2752,-0.0941,0.0,0.0,0.0,0.0,0.0,0.0,0.0,0.0,0.0,0.0,0.0,0.0,0.0,0.0,0.0,-0.0067,-0.0067,0.0,-0.1085,-0.2808,0.0,0.0,0.0,0.0,0.0,0.0,0.0,0.0,0.0,0.0,0.0,0.0,0.0,0.0,0.0,0.0,0.0,0.0,0.0,0.0,0.0,0.0,0.0,0.0,0.0,0.0,0.0,0.0,0.0,0.0,0.0,0.0,0.0,-0.244,-0.1025,0.0,0.0,0.0,0.0,0.0,0.0,0.0,0.0,0.0,0.0,0.0,0.0,0.0,0.0,0.0,0.0,0.0,0.0,0.0,0.0,0.0,0.0,0.0,0.0,0.2115,0.5794,0.5803,0.7926,1.1369,1.1226,1.1077,1.0873,1.0873,1.0786,1.0704,1.0548,1.0487,1.0412,0.0,0.0,0.0,0.0,0.0,0.0,-2.143,-1.8619,-1.6348,-1.6308,-1.3087,-1.0894,-1.1084,-1.0616,-1.0411,-1.0588,-1.005,-0.9584,-0.9428,-0.8117,-0.5893,-0.2819,-0.0998,0.0,0.0,0.0,0.0,0.0,0.0,0.0,0.0,0.0,0.0,0.0,0.0,0.0,0.0,0.0,-0.0819,-0.1978,-0.0546,-0.1903,-0.4659,0.0,0.0,0.0,0.0,0.0,0.0,0.0,0.0,0.0,0.0,0.0,0.0,0.0,0.0,0.0,0.0,0.0,0.0,0.0,0.0,0.0,0.0,0.0,0.0,0.0,0.0,0.0,0.0,0.0,0.0,0.0,-0.3621,-0.2087,-0.0881,-0.0281,0.0,0.0,0.0,0.0,0.0,0.0,0.0,0.0,0.0,0.0,0.0,0.0,0.0,0.0,0.0,0.0,0.0,0.0,0.0,0.0,0.0,0.0,0.0,0.0,0.2133,0.5797,0.5783,0.7877,1.1219,1.1248,1.1009,1.0785,1.0785,1.0758,1.0704,1.0548,1.0358,1.0058,0.0,0.0,0.0,0.0,0.0,0.0,-2.1614,-1.9453,-1.7481,-1.6609,-1.3923,-1.1901,-1.1372,-1.1145,-1.1158,-1.1369,-1.1192,-1.1036,-1.0887,-0.837,-0.564,-0.2843,-0.0937,0.0,0.0,0.0,-0.0412,-0.1232,-0.0415,-0.0829,-0.2322,-0.075,-0.0407,-0.1076,-0.0336,0.0,0.0,0.0,-0.1108,-0.2767,-0.1602,-0.2904,-0.5457,-0.5468,-0.7238,-0.9673,-0.9679,-0.971,-0.9629,-0.8531,0.0,0.0,0.0,0.0,0.0,0.0,0.0,0.0,0.0,0.0,0.0,0.0,0.0,0.0,0.0,0.0,0.0,0.0,0.0,0.0,0.0,0.0,0.0,0.0,-0.2548,-0.1104,-0.0142,0.0,0.0,0.0,0.0,0.0,0.0,0.0,0.0,0.0,0.0,0.0,0.0,0.0,0.0,0.0,0.0,0.0,0.0,0.0,0.0,0.0,0.0,0.0,0.0,0.0,0.2131,0.5794,0.574,0.7808,1.1158,1.1097,1.0934,0.0,0.0,0.0,0.0,0.0,1.0154,0.9849,0.0,0.0,0.0,0.0,0.0,0.0,-2.1708,-2.041,-1.881,-1.6902,-1.5039,-1.3254,-1.1573,-1.1138,-1.1077,-1.1341,-1.1124,-1.09,-1.088,-0.7632,-0.4992,-0.3422,-0.1424,-0.0407,-0.0619,-0.0414,-0.1246,-0.3209,-0.1451,-0.2346,-0.5484,-0.2173,-0.1344,-0.2618,-0.1009,-0.0204,0.0,-0.0279,-0.1475,-0.3229,-0.3343,-0.4385,-0.591,-0.5906,-0.7022,-0.8618,-0.8565,-0.8601,-0.8544,-0.8121,0.0,0.0,0.0,0.0,0.0,0.0,0.0,0.0,0.0,0.0,0.0,0.0,0.0,0.0,0.0,0.0,0.0,0.0,0.0,0.0,0.0,0.0,0.0,0.0,-0.1592,-0.0358,-0.0372,-0.0151,0.0,0.0,0.0,0.0,0.0,0.0,0.0,0.0,0.0,0.0,0.0,0.0,0.0,0.0,0.0,0.0,0.0,0.0,0.0,0.0,0.0,0.0,0.0,0.0,0.2037,0.5478,0.5571,0.7626,1.0869,1.0873,1.0793,1.0717,1.0704,1.0602,1.0432,1.0071,0.9869,0.9754,0.0,0.0,0.0,0.0,0.0,0.0,-2.2218,-2.0984,-1.9209,-1.7217,-1.5303,-1.3453,-1.1593,-1.1226,-1.1145,-1.1199,-1.1158,-1.107,-1.0887,-0.8912,-0.7612,-0.7242,-0.4098,-0.3092,-0.4658,-0.3166,-0.3223,-0.5081,-0.471,-0.4821,-0.5406,-0.4705,-0.3756,-0.2685,-0.235,-0.1355,-0.0138,-0.176,-0.355,-0.5399,-0.6905,-0.7649,-0.7752,-0.7592,-0.8696,-1.0351,-1.0277,-1.0296,-0.9968,-0.6955,-0.5711,-0.4894,-0.1947,-0.2016,0.0,0.0,0.0,0.0,0.0,0.0,0.0,0.0,0.0,0.0,0.0,0.0,0.0,0.0,0.0,0.0,0.0,0.0,0.0,-0.7404,-0.4605,-0.2528,-0.2467,-0.102,0.0,0.0,0.0,0.0,0.0,0.0,0.0,0.0,0.0,0.0,0.0,0.0,0.0,0.0,0.0,0.0,0.0,0.0,0.0,0.0,0.0,0.0,0.0,0.0,0.1267,0.3563,0.4976,0.6852,0.899,1.0321,1.0793,1.0711,1.0582,1.0446,1.0283,0.9978,0.9774,0.9625,0.0,0.0,0.0,0.0,0.0,0.0,-2.2378,-2.191,-2.0825,-1.8997,-1.6937,-1.5062,-1.3418,-1.2087,-1.1307,-1.1382,-1.1253,-1.1104,-1.0887,-0.9302,-0.8366,-0.8285,-0.5736,-0.48,-0.5778,-0.4826,-0.5305,-0.7183,-0.6136,-0.6513,-0.8272,-0.6337,-0.4894,-0.4024,-0.3088,-0.2242,-0.1527,-0.2546,-0.4646,-0.733,-0.8193,-0.8981,-0.9731,-0.9529,-1.0098,-1.1043,-1.0968,-1.0444,-0.9251,-0.6514,-0.4882,-0.3557,-0.0874,-0.0605,-0.168,0.0,0.0,0.0,0.0,0.0,0.0,0.0,0.0,0.0,0.0,0.0,0.0,0.0,0.0,-0.7683,-0.7009,0.0,-0.8193,-0.7562,-0.5958,-0.4804,-0.487,-0.3048,-0.1303,-0.0164,0.0,0.0,0.0,0.0,0.0,0.0,0.0,0.0,0.0,0.0,0.0,0.0,0.0,0.0,0.0,0.0,0.0,0.0,0.0,0.0,0.0,0.0,0.1036,0.3004,0.4778,0.6573,0.8417,1.0145,1.0744,1.0595,1.0446,1.0344,1.0243,0.9937,0.9774,0.9693,0.0,0.0,0.0,0.0,0.0,0.0,0.0,-2.2712,-2.2306,-2.0614,-1.8838,-1.7187,-1.5775,-1.3412,-1.1868,-1.1606,-1.1341,-1.1138,-1.1015,-0.9763,-0.9034,-0.8895,-0.7301,-0.6571,-0.6931,-0.6575,-0.7278,-0.9247,-0.7529,-0.8248,-1.1158,-0.798,-0.6349,-0.5945,-0.4462,-0.3702,-0.3514,-0.3911,-0.5894,-0.8693,-0.8897,-0.9836,-1.1151,-1.1036,-1.1063,-1.1158,-1.1131,-1.0235,-0.8719,-0.6468,-0.4652,-0.2819,-0.0672,0.0,-0.0405,-0.262,-0.4333,0.0,0.0,0.0,0.0,0.0,0.0,0.0,0.0,0.0,-0.7157,-0.5776,-0.6898,-0.7815,-0.6697,-0.7998,-0.8878,-0.784,-0.7374,-0.7189,-0.7262,-0.5457,-0.3386,-0.1492,-0.0504,0.0,0.0,0.0,0.0,0.0,0.0,0.0,0.0,0.0,0.0,0.0,0.0,0.0,0.0,0.0,0.0,0.0,0.0,0.0,0.0,0.0,0.0882,0.2459,0.4501,0.6481,0.8366,0.9994,1.0602,1.0473,1.0304,1.0236,1.0202,0.989,0.9781,0.9761,0.0,0.0,0.0,0.0,0.0,0.0,0.0,0.0,-2.2242,-2.0376,-1.9935,-1.9178,-1.7592,-1.53,-1.3255,-1.1749,-1.1341,-1.1274,-1.1525,-1.1217,-1.108,-1.108,-0.933,-0.9181,-1.094,-0.9264,-0.9286,-1.1107,-1.0876,-1.0944,-1.1165,-1.078,-0.9722,-0.8129,-0.7922,-0.6934,-0.5618,-0.7415,-0.8405,-0.8848,-1.0581,-1.1204,-1.1227,-1.1214,-1.1151,-1.1145,-1.1016,-1.092,-1.0373,-0.6808,-0.5362,-0.4492,-0.1076,0.0,-0.0683,-0.4106,-0.5281,-0.6138,-0.9479,-0.9383,-0.8318,-0.8302,-0.7165,-0.5982,0.0,0.0,-0.5909,-0.5926,-0.7358,-0.8692,-0.8795,-1.0494,-1.1845,-1.1798,-1.0465,-0.9452,-0.949,-0.7643,-0.6202,-0.6016,-0.2391,0.0,0.0,0.0,0.0,0.0,0.0,0.0,0.0,0.0,0.0,0.0,0.0,0.0,0.0,0.0,0.0,0.0,0.0,0.0,0.0,0.0,0.0145,0.0501,0.3889,0.6393,0.8174,0.9848,1.0507,1.0466,1.0181,1.0011,0.9977,0.9741,0.9632,0.9632,0.0,0.0,0.0,0.0,0.0,0.0,0.0,0.0,0.0,-2.2045,-2.0929,-1.9591,-1.796,-1.4945,-1.2627,-1.1814,-1.1626,-1.1572,-1.1613,-1.164,-1.1613,-1.1531,-1.1008,-1.1056,-1.1877,-1.1056,-1.0986,-1.1647,-1.1565,-1.1443,-1.1294,-1.1275,-1.0254,-0.8516,-0.8516,-0.8154,-0.7544,-0.8439,-0.9435,-1.0443,-1.1161,-1.1409,-1.1287,-1.1199,-1.1219,-1.1287,-1.1226,-1.1185,0.0,-0.8178,-0.6413,-0.4961,-0.235,-0.1551,-0.1896,-0.336,-0.5349,-0.7446,-0.8895,-0.949,-0.9423,-0.8402,-0.8507,-0.8618,-0.7613,-0.7459,-0.7261,-0.6383,-0.7643,-0.8654,-0.7673,-1.0143,-1.2003,-1.1112,-1.1334,-1.1726,-1.1858,-0.9973,-0.814,-0.6887,-0.3897,-0.1896,-0.1994,-0.0793,0.0,0.0,0.0,0.0,0.0,0.0,0.0,0.0,0.0,0.0,0.0,0.0,0.0,0.0,0.0,0.0,0.0,0.0,0.057,0.1673,0.3141,0.4852,0.6623,0.8246,0.8874,0.8916,0.9688,0.993,0.9842,0.9781,0.968,0.9612,0.0,0.0,0.0,0.0,0.0,0.0,0.0,0.0,0.0,0.0,-2.1912,-2.0215,-1.8001,-1.5324,-1.3185,-1.1978,-1.1857,-1.1789,-1.1687,-1.1735,-1.1742,-1.1681,-1.1884,-1.202,-1.2135,-1.2135,-1.2006,-1.1898,-1.1789,-1.1687,-1.1572,-1.1463,-1.0767,-0.9488,-0.9488,-0.9533,-0.9612,-0.9578,-1.0341,-1.1667,-1.1511,-1.143,-1.1382,-1.1314,-1.1335,-1.1389,-1.1389,-1.1294,-1.0958,-0.9179,-0.7511,-0.5867,-0.4132,-0.3537,-0.3679,-0.4122,-0.6496,-0.8974,-0.8974,-0.9543,-0.9857,-0.8654,-0.9168,-0.9694,-0.8974,-0.8909,-0.8795,-0.8118,-0.9017,-0.943,-0.7494,-0.9545,-1.1136,-1.0014,-1.1091,-1.2449,-1.328,-1.144,-0.9385,-0.7827,-0.5588,-0.4229,-0.4287,-0.166,0.0,0.0,0.0,0.0,0.0,0.0,0.0,0.0,0.0,0.0,0.0,0.0,0.0,0.0,0.0,0.0,0.0,0.0,0.0702,0.1987,0.25,0.3414,0.4793,0.6362,0.6979,0.7068,0.8658,0.9235,0.9201,0.9633,0.9754,0.9666,0.0,0.0,0.0,0.0,0.0,0.0,0.0,0.0,0.0,0.0,0.0,0.0,0.0,-1.7629,-1.6223,-1.2419,-1.1918,-1.183,-1.1823,-1.1701,-1.1687,-1.1816,-1.183,-1.1911,-1.2135,-1.2135,-1.2135,-1.2054,-1.2128,-1.2047,-1.2115,-1.204,-1.2033,-1.1959,-1.1959,-1.1959,-1.1959,-1.1804,-1.1743,-1.1809,-1.1674,-1.1525,-1.1409,-1.1552,-1.1518,-1.1389,-1.1389,-1.1294,-1.0971,-0.9268,-0.8452,-0.7942,-0.6245,-0.5698,-0.6011,-0.7644,-0.9344,-1.0658,-1.0658,-0.9539,-0.8366,-0.848,-0.7327,-0.6666,-0.8743,-0.9166,-0.9752,-1.1681,-1.208,-1.1495,-0.9644,-0.9372,-0.9563,-0.9761,-0.997,-1.0902,-1.3128,-1.1447,-0.9963,-0.9958,-0.7831,-0.6462,-0.661,-0.2596,0.0,0.0,0.0,0.0,0.0,0.0,0.0,0.0,0.0,0.0,0.0,0.0,0.0,0.0,0.0,0.0,0.0,0.0,0.0,0.0206,0.1959,0.2731,0.289,0.4526,0.5157,0.5331,0.6856,0.7484,0.7667,0.9207,0.9815,0.9815,0.0,0.0,0.0,0.0,0.0,0.0,0.0,0.0,0.0,0.0,0.0,0.0,0.0,0.0,0.0,0.0,-1.1918,-1.183,-1.183,-1.1701,-1.1681,-1.1823,-1.183,-1.1952,-1.221,-1.221,-1.221,-1.221,-1.221,-1.2162,-1.2135,-1.2135,-1.2115,-1.221,-1.221,-1.2264,-1.2345,-1.2196,-1.2189,-1.2244,-1.1898,-1.1789,-1.183,-1.1775,-1.1667,-1.1552,0.0,-1.1457,-1.1103,-1.0518,-0.9434,-0.8209,-0.7629,-0.7502,-0.7925,-0.9728,-1.0506,-1.0617,-0.9547,-0.9802,-1.0074,-0.9062,-0.9511,-1.0457,-1.107,-1.1365,-1.1702,-1.2152,-1.2169,-1.1444,-0.9292,-1.0065,-1.0619,-0.9592,-0.9504,-0.9965,-1.0896,-0.9193,-0.7266,-0.58,-0.6212,0.0,-0.4565,-0.4385,0.0,-0.4461,-0.3048,-0.2249,-0.2233,-0.0848,0.0,0.0,0.0,0.0,0.0,0.0,0.0,0.0,0.0,0.0,0.0,0.0,0.0,0.0,0.0677,0.0934,0.1052,0.2716,0.3377,0.3517,0.5128,0.5712,0.5957,0.7606,0.8221,0.832,0.0,0.0,0.0,0.0,0.0,0.0,0.0,0.0,0.0,0.0,0.0,0.0,0.0,0.0,0.0,0.0,0.0,-1.1809,-1.1755,-1.1674,-1.1708,-1.1904,-1.1911,-1.2081,-1.244,-1.2447,-1.2474,-1.2528,-1.2474,-1.24,-1.2298,-1.2244,-1.2298,-1.2447,-1.2447,-1.2528,-1.2657,-1.2508,-1.2528,-1.263,-1.223,-1.2128,-1.2203,-1.2054,-1.1904,0.0,-1.1816,-1.1613,-1.1314,-1.126,-1.0373,-0.9365,-0.9365,-0.932,-0.956,-1.0741,-1.1023,-1.0703,-0.9733,-1.0467,-1.1246,-1.0316,-1.134,-1.2494,-1.2454,-1.2596,-1.263,-1.2284,-1.2088,-1.1321,-0.9071,-0.9696,-1.0207,-0.9218,-0.9102,-0.9266,-0.9602,-0.7819,-0.5704,-0.3636,-0.5346,-0.6131,0.0,-0.727,0.0,-0.6828,-0.4677,-0.3445,-0.3398,-0.1262,0.0,0.0,0.0,0.0,0.0,0.0,0.0,0.0,0.0,0.0,0.0,0.0,0.0,0.0,0.0,0.0,0.0065,0.1157,0.1584,0.1749,0.3396,0.4057,0.4242,0.5892,0.6503,0.679,0.0,0.0,0.0,0.0,0.0,0.0,0.0,0.0,0.0,0.0,0.0,0.0,0.0,0.0,0.0,0.0,0.0,0.0,-1.1626,-1.1613,-1.1735,-1.2026,-1.204,-1.2244,-1.2684,-1.2705,-1.2786,-1.2949,-1.2793,-1.2725,-1.2739,-1.2583,-1.2596,-1.2752,-1.2752,-1.284,-1.2976,-1.282,-1.284,-1.2956,-1.2637,-1.2515,-1.2508,-1.2359,-1.2203,-1.2054,-1.1898,-1.1748,-1.1606,-1.1443,-1.1294,-1.1241,-1.1241,-1.1084,-1.0907,-1.0914,-1.0907,-1.1002,-1.1158,-1.1416,-1.1748,-1.2182,-1.2406,-1.2549,-1.2678,-1.2705,-1.2583,-1.2135,-1.1911,-1.1121,0.0,0.0,-0.8495,-0.8827,-0.8805,-0.8855,-0.9162,-0.7322,-0.5219,0.0,-0.5276,-0.6746,-0.688,-1.0875,0.0,-0.7342,-0.5019,-0.3687,-0.3614,-0.1331,0.0,0.0,0.0,0.0,0.0,0.0,0.0,0.0,0.0,0.0,0.0,0.0,0.0,0.0,0.0,0.0,0.0,0.0,0.0,0.0185,0.1729,0.2344,0.2589,0.4186,0.4797,0.5212,0.0,0.0,0.0,0.0,0.0,0.0,0.0,0.0,0.0,0.0,0.0,0.0,0.0,0.0,0.0,0.0,0.0,0.0,-1.1619,-1.1511,-1.1531,-1.1721,-1.1735,-1.1891,-1.2223,-1.2345,-1.2528,-1.2786,-1.2637,-1.2678,-1.2901,-1.2745,-1.2807,-1.3057,-1.3057,-1.3146,-1.3281,-1.3125,-1.3146,-1.3254,-1.284,-1.2739,-1.2813,-1.2549,-1.2359,-1.221,-1.206,-1.1904,-1.1735,-1.1477,-1.1362,-1.1335,-1.1335,-1.1307,-1.1301,-1.1416,-1.1369,-1.1335,-1.1592,-1.1803,-1.2006,-1.2237,-1.2481,-1.2623,-1.244,-1.24,-1.2271,-1.1823,-1.1518,-1.1134,-1.0397,-1.0228,-1.0341,-1.0758,-0.9763,0.0,-0.7243,-0.5338,0.0,-0.1111,-0.439,-0.6891,-0.6901,-1.1028,-1.32,-1.1974,-0.8146,-0.59,-0.5867,-0.2143,0.0,0.0,0.0,0.0,0.0,0.0,0.0,0.0,0.0,0.0,0.0,0.0,0.0,0.0,0.0,0.0,0.0,0.0,0.0,0.0063,0.0445,0.0634,0.0815,0.2505,0.3107,0.337,0.0,0.0,0.0,0.0,0.0,0.0,0.0,0.0,0.0,0.0,0.0,0.0,0.0,0.0,0.0,0.0,0.0,0.0,0.0,-1.1538,-1.1558,-1.1708,-1.1775,-1.1952,-1.225,-1.2338,-1.2596,-1.3024,-1.2671,-1.2725,-1.3146,-1.2861,-1.3359,-1.4541,-1.3654,-1.3821,-1.4781,-1.3713,-1.3363,0.0,0.0,-1.3078,-1.3119,-1.282,-1.261,-1.2447,-1.2162,-1.1925,-1.1714,-1.1545,-1.1402,-1.1301,-1.1369,-1.1348,-1.1335,-1.1552,-1.1558,-1.1558,-1.185,-1.2047,-1.221,-1.2427,-1.261,-1.2671,-1.2433,-1.2332,-1.2142,-1.1626,-1.1328,-1.1097,-1.0887,-1.0779,-1.0975,0.0,0.0,0.0,-0.7859,-0.582,-0.3737,0.0,-0.482,0.0,-0.6962,-1.109,-1.3804,-1.3729,-0.9418,-0.6791,-0.6691,-0.2453,0.0,0.0,0.0,0.0,0.0,0.0,0.0,0.0,0.0,0.0,0.0,0.0,0.0,0.0,0.0,0.0,0.0,0.0,0.0,0.0,0.0,0.0,0.0126,0.1072,0.1374,0.1534,0.0,0.0,0.0,0.0,0.0,0.0,0.0,0.0,0.0,0.0,0.0,0.0,0.0,0.0,0.0,0.0,0.0,0.0,0.0,0.0,-1.1708,-1.1857,-1.2013,-1.221,-1.2467,-1.2494,-1.2766,-1.3315,-1.2766,-1.28,-1.3363,-1.3168,-1.4305,-1.6304,-1.4437,-1.4675,-1.645,-1.4264,-1.3458,-1.3587,-1.3451,-1.339,-1.3342,0.0,-1.2868,-1.2671,-1.2223,-1.1898,-1.1674,-1.1653,-1.1457,-1.1253,-1.1402,-1.1348,-1.1287,-1.1613,-1.1708,-1.1769,-1.2047,-1.223,-1.2406,-1.2637,-1.2684,-1.2623,-1.2454,-1.2305,-1.2033,-1.145,-1.1226,-1.105,-1.0772,-1.0717,-1.0839,-1.1192,0.0,-1.098,-0.9642,-0.7714,-0.5903,-0.4246,-0.6092,-0.7483,-0.7555,-1.1351,-1.3804,-1.3783,-0.9714,-0.711,-0.6746,-0.2677,-0.0321,0.0,0.0,0.0,0.0,0.0,0.0,0.0,0.0,0.0,0.0,0.0,0.0,0.0,0.0,0.0,0.0,0.0,0.0,0.0,0.0,0.0,0.0,0.0,0.0,0.0,0.0,0.0,0.0,0.0,0.0,0.0,0.0,0.0,0.0,0.0,-1.8877,-1.652,0.0,0.0,0.0,0.0,0.0,0.0,0.0,0.0,0.0,-1.2013,-1.2169,-1.2277,-1.2325,-1.244,-1.2617,-1.2847,-1.2617,-1.2745,-1.3288,-1.4607,-1.5635,-1.6207,-1.5737,-1.577,-1.6176,-1.4097,-1.3302,-1.3437,-1.341,-1.3322,-1.3193,-1.3024,0.0,0.0,-1.2223,-1.2026,-1.1965,-1.1837,-1.1681,-1.1565,-1.1708,-1.1653,-1.1626,-1.2047,-1.2176,-1.221,-1.2379,-1.2535,-1.2637,-1.2562,-1.2454,-1.2291,-1.2013,-1.1837,0.0,-1.1124,-1.1002,-1.0934,-1.0751,-1.0717,-1.0941,-1.1606,-1.164,-1.1163,-0.9943,-0.9327,-0.8244,0.0,-0.8251,-0.9716,-0.9735,-1.2124,0.0,0.0,-1.0909,-0.8505,-0.6816,-0.4035,-0.1749,-0.0079,0.0,0.0,0.0,0.0,0.0,0.0,0.0,0.0,0.0,0.0,0.0,0.0,0.0,0.0,0.0,0.0,0.0,0.0,0.0,0.0,0.0,0.0,0.0,0.0,0.0,0.0,0.0,0.0,0.0,0.0,0.0,-2.2928,-2.2229,-2.034,-1.8573,-1.6349,-1.3396,-1.3092,-1.2755,0.0,0.0,0.0,0.0,0.0,0.0,0.0,-1.221,-1.2291,-1.2291,-1.2359,-1.2542,-1.2854,0.0,-1.3198,-1.4769,-1.4354,-1.5507,-1.7649,-1.5433,-1.5097,-1.6143,-1.4054,-1.3261,-1.3403,-1.3403,-1.3356,-1.3275,0.0,0.0,0.0,0.0,-1.2128,-1.206,-1.2067,-1.1972,-1.1877,-1.2026,-1.1972,-1.1938,-1.2386,-1.2461,-1.2454,-1.2678,-1.2793,-1.2834,-1.2759,-1.2569,-1.2325,-1.202,0.0,0.0,-1.1138,-1.1002,-1.086,-1.0853,-1.0772,-1.0887,-1.1402,-1.1491,-1.1464,-1.1189,-1.0233,-0.9254,-0.8548,-0.9564,-1.0285,-1.0285,-1.2338,-1.36,-1.3526,-1.2238,-1.0497,-0.8334,-0.4936,-0.2128,-0.0079,0.0,0.0,0.0,0.0,0.0,0.0,0.0,0.0,0.0,0.0,0.0,0.0,0.0,0.0,0.0,0.0,0.0,0.0,0.0,0.0,0.0,0.0,0.0,0.0,0.0,0.0,0.0,0.0,0.0,0.0,0.0,-2.2966,-2.2484,-2.1065,-1.932,-1.7418,-1.5364,-1.4349,-1.3205,0.0,0.0,0.0,0.0,0.0,0.0,0.0,0.0,0.0,-1.2338,0.0,0.0,-1.2861,-1.2508,0.0,0.0,0.0,0.0,0.0,-1.4987,-1.454,-1.6165,-1.4091,-1.3234,0.0,0.0,-1.4031,0.0,0.0,0.0,0.0,0.0,-1.2257,-1.2169,-1.2257,-1.223,-1.2176,-1.2298,-1.223,-1.2196,-1.2651,-1.2691,-1.2651,-1.2895,-1.2983,-1.3003,-1.305,-1.2705,-1.2386,-1.2121,-1.183,0.0,-1.1226,-1.1097,-1.1036,-1.1002,-1.0873,-1.088,-1.1206,-1.128,-1.1565,-1.2345,-1.1053,-1.018,-1.0616,-1.0762,0.0,-1.0949,-1.2486,0.0,-1.3532,-1.3146,-1.1721,-0.9041,-0.5187,-0.2113,-0.0078,0.0,0.0,0.0,0.0,0.0,0.0,0.0,0.0,0.0,0.0,0.0,0.0,0.0,0.0,0.0,0.0,0.0,0.0,0.0,0.0,0.0,0.0,0.0,0.0,0.0,0.0,0.0,0.0,0.0,0.0,0.0,-2.3287,-2.331,-2.3435,-2.1665,-1.9609,-1.7653,-1.4179,-1.1901,0.0,0.0,0.0,0.0,0.0,0.0,0.0,0.0,0.0,0.0,0.0,0.0,-1.2542,-1.2501,0.0,0.0,0.0,0.0,0.0,0.0,-1.5552,-1.5885,-1.3844,0.0,0.0,0.0,0.0,0.0,0.0,0.0,0.0,0.0,-1.2474,-1.244,-1.2332,0.0,-1.2461,-1.2474,-1.2386,-1.2359,-1.2807,0.0,0.0,-1.2956,-1.3057,-1.3119,-1.299,-1.263,-1.2264,-1.2101,0.0,-1.1531,-1.1226,-1.126,-1.1307,-1.1172,-1.1023,-1.1002,-1.1504,-1.1246,-1.1301,-1.2182,-1.2059,-1.2,-1.2437,0.0,0.0,-1.2893,-1.3138,-1.3214,-1.3214,-1.2929,-1.0937,-0.6818,-0.4383,-0.2182,-0.0077,0.0,0.0,0.0,0.0,0.0,0.0,0.0,0.0,0.0,0.0,0.0,0.0,0.0,0.0,0.0,0.0,0.0,0.0,0.0,0.0,0.0,0.0,0.0,0.0,0.0,0.0,0.0,0.0,0.0,0.0,-2.3287,-2.3327,-2.3434,-2.3728,-2.1112,-1.8812,-1.8059,-1.4359,-1.1877,-1.164,0.0,0.0,0.0,0.0,0.0,0.0,0.0,0.0,0.0,0.0,-1.2501,-1.2501,-1.2501,0.0,0.0,0.0,0.0,0.0,0.0,-1.4983,-1.4214,-1.4605,0.0,0.0,0.0,0.0,0.0,0.0,0.0,0.0,0.0,0.0,-1.2494,-1.2433,0.0,0.0,-1.261,-1.2535,0.0,0.0,-1.2888,-1.2983,-1.3064,-1.32,-1.3275,-1.3125,-1.2752,-1.2352,-1.2115,0.0,-1.1558,-1.1341,-1.1348,-1.1369,-1.1314,-1.1111,-1.0941,-1.1116,-1.0921,-1.0995,-1.1538,-1.164,-1.1857,-1.24,-1.2596,-1.2779,0.0,0.0,-1.3003,-1.2915,-1.2712,-1.0725,-0.6502,-0.5453,-0.3504,-0.0077,0.0,0.0,0.0,0.0,0.0,0.0,0.0,0.0,0.0,0.0,0.0,0.0,0.0,0.0,0.0,0.0,0.0,0.0,0.0,0.0,0.0,0.0,0.0,0.0,0.0,0.0,0.0,0.0,0.0,-2.2993,-2.3394,-2.346,-2.3382,-2.3163,-2.032,-1.8041,-1.7367,-1.422,-1.2047,-1.1837,-1.1694,0.0,0.0,0.0,0.0,0.0,0.0,0.0,0.0,0.0,-1.2501,-1.2501,-1.2501,-1.319,0.0,0.0,-1.3259,-1.4629,0.0,0.0,0.0,0.0,0.0,0.0,0.0,0.0,0.0,0.0,0.0,0.0,0.0,0.0,0.0,0.0,0.0,0.0,-1.263,-1.2589,-1.2528,0.0,-1.2807,-1.2915,-1.3017,-1.3186,-1.3295,-1.3146,-1.2807,-1.2433,0.0,0.0,-1.1592,-1.1484,-1.1457,-1.1457,-1.1457,-1.1212,-1.1009,-1.1009,-1.0846,-1.0806,-1.1063,-1.1226,-1.1484,-1.1904,0.0,-1.2311,-1.2664,-1.2813,-1.2827,-1.2671,-1.2522,-1.0591,-0.6416,-0.6215,-0.4295,-0.0153,0.0,0.0,0.0,0.0,0.0,0.0,0.0,0.0,0.0,0.0,0.0,0.0,0.0,0.0,0.0,0.0,0.0,0.0,0.0,0.0,0.0,0.0,0.0,0.0,0.0,0.0,0.0,0.0,0.0,0.0,-2.3674,-2.3768,-2.3307,-2.1829,-1.9854,-1.7805,-1.576,-1.3573,-1.2284,-1.2284,-1.1877,0.0,0.0,0.0,0.0,0.0,0.0,0.0,0.0,0.0,-1.2501,-1.2501,-1.2501,-1.2501,-1.2501,-1.2501,-1.2501,-1.2501,0.0,0.0,0.0,0.0,0.0,0.0,0.0,0.0,0.0,0.0,0.0,0.0,0.0,0.0,0.0,0.0,0.0,0.0,0.0,-1.2501,-1.2528,-1.2684,-1.2732,-1.2732,-1.2732,-1.2949,-1.3139,-1.3077,-1.2732,-1.2467,0.0,-1.1938,-1.1619,-1.1619,-1.1619,-1.1619,-1.1619,-1.1369,-1.1227,-1.1227,-1.0914,-1.0772,-1.086,-1.1077,-1.1165,0.0,-1.1307,-1.1579,-1.2026,-1.2474,-1.2671,-1.2515,-1.2372,0.0,-0.6258,-0.6032,-0.4147,-0.0149,0.0,0.0,0.0,0.0,0.0,0.0,0.0,0.0,0.0,0.0,0.0,0.0,0.0,0.0,0.0,0.0,0.0,0.0,0.0,0.0,0.0,0.0,0.0,0.0,0.0,0.0,0.0,0.0,0.0,0.0,0.0,-2.3474,-2.295,-2.1493,-1.9542,-1.7633,-1.5863,-1.3647,-1.2372,-1.2576,-1.2182,0.0,0.0,0.0,0.0,0.0,0.0,0.0,0.0,-1.2501,-1.2501,-1.2501,-1.2501,-1.2501,-1.2501,-1.261,-1.2657,-1.2664,-1.4233,-1.4226,0.0,0.0,0.0,0.0,0.0,0.0,0.0,0.0,0.0,0.0,0.0,0.0,0.0,0.0,0.0,0.0,0.0,0.0,0.0,-1.2562,-1.2651,-1.2732,-1.2732,-1.28,-1.2861,-1.2813,-1.2576,-1.2318,-1.2169,-1.1945,-1.1735,-1.164,-1.1619,-1.1619,-1.1619,-1.1369,-1.1234,-1.1234,-1.0914,-1.0738,-1.0785,0.0,0.0,-1.1436,-1.187,-1.2169,0.0,0.0,-1.2318,-1.206,-1.1911,-1.0067,-0.6094,-0.5801,-0.3947,-0.0147,0.0,0.0,0.0,0.0,0.0,0.0,0.0,0.0,0.0,0.0,0.0,0.0,0.0,0.0,0.0,0.0,0.0,0.0,0.0,0.0,0.0,0.0,0.0,0.0,0.0,0.0,0.0,0.0,0.0,0.0,0.0,-2.3327,-2.2473,-2.0275,-1.8854,-1.716,-1.4833,-1.3187,-1.2406,-1.2705,-1.242,0.0,0.0,0.0,0.0,0.0,0.0,0.0,-1.2501,-1.2501,-1.2501,-1.2501,-1.2501,-1.2474,-1.2427,-1.2576,-1.2644,-1.2729,-1.4121,-1.4134,0.0,0.0,0.0,0.0,0.0,0.0,-1.5499,0.0,0.0,0.0,0.0,0.0,0.0,0.0,0.0,0.0,0.0,0.0,0.0,0.0,-1.2528,-1.2576,-1.263,-1.2684,-1.2718,-1.2657,-1.2508,-1.2318,-1.2108,-1.1945,-1.1789,-1.1647,-1.1619,-1.1599,-1.1545,-1.1328,-1.1214,-1.109,-1.088,-1.0717,-1.0717,0.0,0.0,-1.1409,-1.187,0.0,0.0,-1.204,-1.1959,-1.1769,-1.1558,-0.9759,-0.5937,-0.565,-0.3911,-0.0143,0.0,0.0,0.0,0.0,0.0,0.0,0.0,0.0,0.0,0.0,0.0,0.0,0.0,0.0,0.0,0.0,0.0,0.0,0.0,0.0,0.0,0.0,0.0,0.0,0.0,0.0,0.0,0.0,0.0,0.0,0.0,-2.3147,-2.1807,-1.8352,-1.7729,-1.6351,-1.2818,-1.2366,-1.24,-1.2678,0.0,0.0,0.0,0.0,0.0,0.0,0.0,0.0,-1.2501,-1.2501,-1.2501,-1.2501,-1.2515,-1.2447,-1.2311,-1.2461,-1.2535,-1.2542,-1.2691,-1.2847,0.0,0.0,0.0,0.0,-1.5862,-1.5415,0.0,0.0,0.0,0.0,0.0,0.0,0.0,0.0,0.0,0.0,0.0,0.0,0.0,0.0,0.0,0.0,0.0,-1.2576,-1.2637,-1.2528,-1.2474,-1.2386,-1.2121,-1.1945,0.0,-1.1647,-1.1619,-1.1572,-1.1416,-1.1267,-1.1118,-1.09,-1.0819,-1.0717,0.0,-1.0813,0.0,0.0,-1.1477,0.0,-1.1619,-1.1619,-1.1613,-1.1586,-1.1314,-0.9607,-0.5983,-0.5772,-0.4032,-0.0343,-0.0274,-0.0274,0.0,0.0,0.0,0.0,0.0,0.0,0.0,0.0,0.0,0.0,0.0,0.0,0.0,0.0,0.0,0.0,0.0,0.0,0.0,0.0,0.0,0.0,0.0,0.0,0.0,0.0,0.0,0.0,0.0,0.0,0.0,0.0,-1.6365,-1.4652,-1.2442,-1.2237,-1.2318,0.0,0.0,0.0,0.0,0.0,0.0,0.0,0.0,0.0,-1.2501,-1.2501,-1.2501,-1.2501,-1.2617,-1.2603,-1.2461,-1.2725,-1.2854,-1.2861,-1.3003,-1.3152,0.0,0.0,0.0,0.0,-1.466,-1.4901,0.0,0.0,0.0,0.0,-1.3132,-1.303,0.0,0.0,0.0,0.0,0.0,0.0,0.0,0.0,-1.2569,-1.2433,-1.2359,0.0,-1.2115,-1.2427,-1.2244,-1.1999,0.0,-1.1945,0.0,0.0,0.0,0.0,0.0,0.0,0.0,-1.09,-1.0819,-1.0717,-1.0717,-1.1151,0.0,-1.1511,-1.1877,-1.1999,-1.1653,-1.1619,-1.1525,-1.1287,-1.1104,-0.9918,-0.7574,-0.7411,-0.5789,-0.2159,-0.327,-0.2668,0.0,0.0,0.0,0.0,0.0,0.0,0.0,0.0,0.0,0.0,0.0,0.0,0.0,0.0,0.0,0.0,0.0,0.0,0.0,0.0,0.0,0.0,0.0,0.0,0.0,0.0,0.0,0.0,0.0,0.0,0.0,0.0,0.0,0.0,0.0,0.0,0.0,0.0,0.0,0.0,0.0,0.0,0.0,0.0,0.0,-1.2501,-1.2501,-1.2501,-1.2535,-1.261,-1.2691,-1.2684,-1.261,-1.2779,-1.2895,-1.2969,-1.318,-1.3322,-1.3403,-1.3478,-1.4159,-1.5142,-1.3999,0.0,0.0,0.0,0.0,0.0,-1.32,-1.3125,0.0,-1.3057,-1.3057,-1.3057,0.0,0.0,0.0,0.0,-1.2576,-1.2386,-1.2311,-1.2169,-1.2101,-1.2345,-1.2169,-1.1959,-1.2115,-1.1945,0.0,0.0,0.0,0.0,0.0,0.0,0.0,-1.088,-1.0772,0.0,0.0,0.0,-1.1463,-1.1599,-1.1837,-1.1911,0.0,-1.1531,-1.1341,-1.1241,-1.0962,-0.999,-0.8102,-0.803,-0.676,-0.4024,-0.4694,-0.3833,-0.1277,-0.2001,-0.2001,-0.121,-0.121,-0.0807,0.0,0.0,0.0,0.0,0.0,0.0,0.0,0.0,0.0,0.0,0.0,0.0,0.0,0.0,0.0,0.0,0.0,0.0,0.0,0.0,0.0,0.0,0.0,0.0,0.0,0.0,0.0,0.0,0.0,0.0,0.0,0.0,0.0,0.0,0.0,0.0,0.0,0.0,-1.263,-1.2535,-1.2535,-1.2562,-1.2637,-1.2766,-1.2786,-1.2786,-1.2766,-1.2766,-1.2834,-1.2976,-1.3268,-1.3403,-1.341,-1.3566,-1.3627,-1.3634,-1.3654,0.0,0.0,0.0,0.0,0.0,0.0,0.0,0.0,-1.3207,-1.3193,-1.3173,-1.3173,0.0,0.0,0.0,0.0,0.0,-1.2298,-1.2271,-1.2257,-1.2257,-1.2121,-1.1999,-1.202,0.0,0.0,0.0,0.0,0.0,0.0,-1.1234,0.0,0.0,0.0,0.0,-1.0954,-1.1158,-1.1335,-1.1619,-1.1653,0.0,-1.1789,-1.1409,-1.1234,-1.1234,-1.0887,-1.0047,-0.8501,-0.8413,-0.7607,-0.5811,-0.585,-0.5053,-0.3466,-0.455,-0.4298,-0.2685,-0.2685,-0.1747,0.0,0.0,0.0,0.0,0.0,0.0,0.0,0.0,0.0,0.0,0.0,0.0,0.0,0.0,0.0,0.0,0.0,0.0,0.0,0.0,0.0,0.0,0.0,0.0,0.0,0.0,0.0,0.0,0.0,0.0,0.0,0.0,0.0,0.0,0.0,0.0,0.0,-1.3091,-1.284,-1.2698,-1.2698,-1.282,-1.2901,-1.2929,-1.3044,-1.3044,-1.2929,-1.2929,-1.2935,-1.2976,-1.3268,-1.3403,-1.341,-1.3566,-1.3627,-1.3641,-1.3756,0.0,0.0,0.0,0.0,0.0,0.0,0.0,0.0,-1.3363,-1.3281,-1.3173,-1.3173,0.0,0.0,0.0,0.0,0.0,-1.2325,-1.2196,-1.2094,-1.2094,-1.1891,-1.1721,-1.1837,-1.1755,-1.1647,0.0,0.0,0.0,0.0,-1.1234,-1.1063,0.0,0.0,-1.0988,0.0,0.0,-1.1613,-1.1775,0.0,-1.1762,-1.166,-1.1355,-1.1234,-1.1234,-1.0887,-1.0585,-1.0313,-1.0195,-0.9276,-0.75,-0.8591,-0.8465,-0.6846,-0.5678,-0.4298,-0.2685,-0.2685,-0.1747,0.0,0.0,0.0,0.0,0.0,0.0,0.0,0.0,0.0,0.0,0.0,0.0,0.0,0.0,0.0,0.0,0.0,0.0,0.0,0.0,0.0,0.0,0.0,0.0,0.0,0.0,0.0,0.0,0.0,0.0,0.0,0.0,0.0,0.0,0.0,0.0,-1.2827,-1.3051,-1.3078,-1.3017,-1.2861,-1.2922,-1.3077,-1.3078,-1.3139,-1.322,-1.3322,-1.3322,-1.3234,-1.3085,-1.3302,-1.3403,-1.341,-1.3566,-1.3675,-1.3749,0.0,0.0,0.0,0.0,0.0,0.0,0.0,0.0,0.0,0.0,-1.3302,-1.3173,-1.3173,0.0,0.0,0.0,0.0,0.0,-1.2332,-1.2237,-1.2149,-1.1979,-1.1714,-1.1538,-1.1681,-1.1538,-1.1396,0.0,0.0,0.0,0.0,0.0,-1.1029,-1.0968,0.0,-1.1192,-1.1565,-1.1545,-1.1579,0.0,0.0,-1.1694,-1.1626,-1.1341,-1.1131,-1.105,-1.0846,-1.0717,-1.0717,-1.0575,-1.0097,-0.9311,-0.976,-0.9714,-0.915,-0.8301,-0.6597,-0.3978,-0.4075,-0.2685,0.0,0.0,0.0,0.0,0.0,0.0,0.0,0.0,0.0,0.0,0.0,0.0,0.0,0.0,0.0,0.0,0.0,0.0,0.0,0.0,0.0,0.0,0.0,0.0,0.0,0.0,0.0,0.0,0.0,0.0,0.0,0.0,0.0,0.0,0.0,-1.2786,-1.2868,-1.3057,-1.3884,-1.3899,-1.3152,-1.3098,-1.3186,-1.3329,-1.3295,-1.3397,-1.3627,-1.3627,-1.3485,-1.3227,-1.3349,-1.3403,-1.341,-1.36,-1.3743,-1.3844,0.0,0.0,0.0,0.0,0.0,0.0,0.0,0.0,0.0,0.0,0.0,0.0,0.0,0.0,0.0,-1.2684,-1.2589,-1.2481,-1.2372,-1.2318,-1.2223,-1.1952,-1.1687,-1.1518,-1.1599,-1.1436,-1.1301,-1.1423,-1.1321,0.0,0.0,-1.09,0.0,-1.1138,-1.1261,-1.1321,-1.1626,-1.1538,-1.1552,-1.185,-1.1728,-1.1619,-1.1619,-1.1341,-1.1104,-1.0894,-1.0806,-1.0704,-1.067,-1.0521,-1.0426,-1.0392,-1.0071,-1.0058,-1.0385,-0.9927,-0.8162,-0.5145,-0.5335,-0.3488,0.0,0.0,0.0,0.0,0.0,0.0,0.0,0.0,0.0,0.0,0.0,0.0,0.0,0.0,0.0,0.0,0.0,0.0,0.0,0.0,0.0,0.0,0.0,0.0,0.0,0.0,0.0,0.0,0.0,0.0,0.0,0.0,0.0,0.0,0.0,-1.2942,-1.3071,-1.3356,-1.5573,-1.5747,-1.3452,-1.3505,-1.3648,-1.379,-1.3661,-1.3607,-1.3627,-1.3627,-1.3539,-1.3383,-1.3397,-1.3403,-1.3417,-1.3702,-1.3831,-1.3865,-1.415,0.0,0.0,0.0,0.0,0.0,0.0,0.0,0.0,0.0,0.0,0.0,0.0,0.0,-1.2705,-1.2562,-1.2508,-1.2501,-1.2488,-1.2393,-1.225,-1.2088,-1.1925,-1.1769,-1.1647,-1.1599,-1.1592,-1.1599,-1.1484,-1.1328,-1.1172,-1.1036,-1.0995,-1.1138,-1.128,-1.1477,-1.1775,0.0,-1.1714,-1.2013,-1.1796,-1.1619,-1.1619,-1.1341,-1.1104,-1.0894,-1.0806,-1.0656,-1.0514,-1.0371,-1.0229,-1.0024,-0.9862,-0.9917,-1.0017,-0.8546,-0.6964,-0.5355,-0.5362,-0.3488,0.0,0.0,0.0,0.0,0.0,0.0,0.0,0.0,0.0,0.0,0.0,0.0,0.0,0.0,0.0,0.0,0.0,0.0,0.0,0.0,0.0,0.0,0.0,0.0,0.0,0.0,0.0,0.0,0.0,0.0,0.0,0.0,0.0,0.0,0.0,-1.2908,-1.3689,-1.5194,-1.6361,-1.6543,-1.5761,-1.7238,-1.739,-1.5949,-1.5996,-1.5153,-1.3634,-1.3722,-1.3634,-1.3403,-1.3403,-1.3451,-1.3553,-1.3756,-1.3899,-1.4,-1.4217,-1.4211,0.0,0.0,0.0,0.0,0.0,0.0,0.0,0.0,-1.3241,-1.303,-1.3056,-1.2786,-1.2576,-1.2522,-1.2501,-1.2501,-1.2501,-1.24,-1.2277,-1.2216,-1.202,-1.1796,-1.1653,-1.1619,-1.1565,-1.1375,-1.1362,-1.1314,-1.1077,0.0,-1.0961,-1.1267,-1.1355,-1.1525,-1.1918,-1.1843,-1.183,-1.204,-1.1877,-1.1681,-1.1497,-1.1287,-1.1063,-1.0826,-1.0663,-1.0555,-1.0493,-1.0263,-1.0107,-0.999,-0.9897,-0.9897,-0.9984,-0.8398,-0.681,-0.5228,-0.4209,-0.2417,0.0,0.0,0.0,0.0,0.0,0.0,0.0,0.0,0.0,0.0,0.0,0.0,0.0,0.0,0.0,0.0,0.0,0.0,0.0,0.0,0.0,0.0,0.0,0.0,0.0,0.0,0.0,0.0,0.0,0.0,0.0,0.0,0.0,0.0,-1.2779,-1.2901,-1.4077,-1.638,-1.7425,-1.8014,-1.822,-2.1306,-2.1211,-1.7468,-1.751,-1.6317,-1.377,-1.3817,-1.3736,-1.3539,-1.3492,-1.3532,-1.3641,-1.3783,-1.3878,-1.3953,-1.415,-1.4136,0.0,0.0,0.0,0.0,0.0,0.0,0.0,0.0,-1.3234,-1.3097,-1.2976,-1.2779,-1.2562,-1.2515,-1.2501,-1.2488,-1.2447,-1.2393,-1.2332,-1.2244,0.0,-1.1925,-1.1728,-1.1653,-1.1572,-1.1409,-1.1382,-1.1301,-1.0934,-1.088,-1.0948,0.0,-1.1328,-1.1497,-1.1809,-1.1762,-1.1728,-1.1837,-1.1714,-1.1525,-1.1274,-1.1158,-1.0989,-1.0738,-1.0575,-1.0473,-1.0426,-1.0188,-0.9963,-0.9916,-0.9876,-0.9897,-0.9984,-0.7843,-0.6168,-0.5082,-0.3426,-0.1731,0.0,0.0,0.0,0.0,0.0,0.0,0.0,0.0,0.0,0.0,0.0,0.0,0.0,0.0,0.0,0.0,0.0,0.0,0.0,0.0,0.0,0.0,0.0,0.0,0.0,0.0,0.0,0.0,0.0,0.0,0.0,0.0,0.0,0.0,-1.2929,-1.2963,-1.4128,-1.6548,-1.8961,-2.0414,-2.0637,-2.5259,-2.4421,-1.7842,-1.7842,-1.6546,-1.4068,-1.3912,-1.3838,-1.3831,-1.3695,-1.3634,-1.3641,-1.3783,-1.3756,-1.3654,-1.3953,-1.398,-1.3838,0.0,0.0,0.0,0.0,0.0,0.0,0.0,-1.3302,-1.3146,-1.3003,-1.2854,-1.2698,-1.2549,-1.2501,-1.2474,-1.2332,-1.2393,-1.2427,-1.2142,0.0,0.0,-1.1904,-1.1721,-1.166,-1.1803,-1.1592,-1.1301,-1.0941,-1.0887,-1.088,-1.0887,-1.1199,-1.1389,-1.1389,-1.1389,-1.1389,-1.1389,-1.1253,-1.1104,-1.0894,-1.088,-1.082,-1.0731,-1.0575,-1.0426,-1.029,-1.0134,-0.9916,-0.9829,-0.9822,-0.989,-0.9984,-0.6585,-0.4996,-0.507,-0.334,-0.1633,0.0,0.0,0.0,0.0,0.0,0.0,0.0,0.0,0.0,0.0,0.0,0.0,0.0,0.0,0.0,0.0,0.0,0.0,0.0,0.0,0.0,0.0,0.0,0.0,0.0,0.0,0.0,0.0,0.0,0.0,0.0,0.0,0.0,0.0,-1.3015,-1.2963,-1.4766,-1.8751,-1.8229,-1.9429,-2.2826,-2.4687,-2.383,-2.0183,-2.0115,-1.7983,-1.3905,-1.3865,-1.379,-1.3695,-1.3749,-1.3777,-1.3783,-1.3824,-1.3817,-1.3783,-1.3871,-1.3878,-1.3838,0.0,0.0,0.0,0.0,0.0,0.0,0.0,0.0,0.0,-1.2976,-1.2779,-1.2583,-1.2644,-1.2664,-1.2651,-1.261,-1.2481,-1.2352,-1.2366,0.0,0.0,0.0,-1.1877,0.0,0.0,-1.1443,-1.124,-1.1253,-1.1172,-1.1131,-1.124,-1.1246,-1.1267,-1.1375,-1.1301,-1.1233,-1.1233,-1.1192,-1.1104,-1.0894,-1.088,-1.082,-1.0731,-1.0487,-1.0324,-1.0283,-1.0032,-0.9869,-0.9822,-0.9822,-0.9842,-0.989,-0.6553,-0.4922,-0.493,-0.2113,-0.0456,-0.0066,-0.1192,-0.1123,0.0,0.0,0.0,0.0,0.0,0.0,0.0,0.0,0.0,0.0,0.0,0.0,0.0,0.0,0.0,0.0,0.0,0.0,0.0,0.0,0.0,0.0,0.0,-1.1877,-1.2135,0.0,0.0,0.0,0.0,0.0,0.0,0.0,-1.3044,-1.4784,-1.8547,-1.844,-2.0455,-2.5243,-2.4902,-2.3567,-2.1221,-2.108,-1.8565,-1.3844,-1.3905,-1.3851,-1.3722,-1.3865,-1.3899,-1.3838,-1.3783,-1.3688,-1.3573,-1.3573,-1.3539,-1.3505,0.0,0.0,0.0,0.0,0.0,0.0,0.0,0.0,0.0,-1.3044,-1.2881,-1.2691,-1.2718,-1.2732,-1.2705,-1.2589,-1.2427,-1.2284,-1.2244,-1.2033,-1.1823,-1.1803,0.0,0.0,0.0,-1.147,-1.1355,-1.1389,-1.1219,-1.1111,-1.1199,-1.1138,-1.1111,-1.1199,-1.1138,-1.1077,-1.1077,-1.1023,-1.0928,-1.0778,-1.0765,-1.0731,-1.0636,-1.0358,-1.0215,-1.0276,-0.9992,-0.9795,-0.9741,-0.9788,-0.9795,-0.9741,-0.649,-0.4875,-0.4857,-0.2219,-0.0644,-0.0065,-0.1057,-0.0929,0.0,0.0,0.0,0.0,0.0,0.0,0.0,0.0,0.0,0.0,0.0,0.0,0.0,0.0,0.0,0.0,0.0,0.0,0.0,0.0,0.0,0.0,0.0,-1.187,-1.2135,0.0,0.0,0.0,0.0,0.0,0.0,0.0,-1.3173,-1.4281,-1.6751,-1.9279,-2.2737,-2.7306,-2.5676,-2.3567,-2.1221,-2.0922,-1.8388,-1.3759,-1.3987,-1.3973,-1.3844,-1.4,-1.3987,-1.3831,-1.3675,-1.3437,-1.3173,-1.3159,-1.3078,-1.299,-1.3261,0.0,0.0,0.0,0.0,0.0,0.0,0.0,0.0,-1.3173,-1.3078,-1.2935,-1.2807,-1.2759,-1.2691,-1.2427,-1.2332,-1.2237,-1.1945,-1.185,0.0,-1.1457,-1.1599,-1.1748,-1.1606,0.0,-1.1552,-1.1396,-1.1165,-1.0989,-1.0968,-1.0962,-1.0948,-1.088,-1.0867,-1.086,-1.086,-1.0792,-1.0643,-1.0507,-1.048,-1.0473,-1.0473,-1.0209,-1.0051,-1.0249,-0.9978,-0.9754,-0.9612,-0.9747,-0.9754,-0.9612,-0.6463,-0.4916,-0.4855,-0.3128,-0.159,-0.0258,-0.0398,-0.047,-0.0471,-0.0336,-0.0269,-0.0202,-0.0067,0.0,0.0,0.0,0.0,0.0,0.0,0.0,0.0,0.0,0.0,0.0,0.0,0.0,0.0,0.0,0.0,0.0,0.0,0.0,0.0,0.0,0.0,0.0,0.0,0.0,0.0,0.0,-1.3173,-1.4281,-1.6751,-2.1066,-2.3943,-2.5289,-2.4923,-2.3567,-2.1221,-1.9173,-1.6609,-1.3838,-1.3871,-1.3871,-1.3844,-1.4,-1.3987,-1.3824,-1.3559,-1.3342,-1.3159,-1.3051,-1.307,-1.305,-1.303,-1.3105,0.0,0.0,0.0,0.0,0.0,0.0,0.0,-1.3173,-1.3078,-1.2976,-1.3051,-1.2996,-1.2895,-1.2834,-1.2637,0.0,-1.2237,-1.2006,-1.1755,-1.1457,-1.1443,-1.1443,-1.1294,-1.1355,-1.1396,-1.124,-1.126,-1.126,-1.1138,-1.1023,-1.0948,-1.088,-1.0779,-1.0772,-1.0772,-1.0636,-1.0527,-1.0493,-1.0392,-1.0324,-1.0324,-1.0154,-1.0004,-1.0038,-0.9924,-0.9754,-0.9612,-0.9747,-0.9754,-0.9612,-0.6463,-0.4916,-0.4858,-0.1963,-0.1092,-0.2189,-0.3404,-0.4113,-0.4158,-0.2752,-0.2148,-0.2016,-0.0606,0.0,0.0,0.0,0.0,0.0,0.0,0.0,0.0,0.0,0.0,0.0,0.0,0.0,0.0,0.0,0.0,0.0,0.0,0.0,0.0,0.0,0.0,0.0,0.0,-1.28,0.0,0.0,0.0,-1.4968,-1.8634,-2.1325,-2.3347,-2.4691,-2.3555,-2.1859,-1.9435,-1.6836,-1.502,-1.3844,-1.3919,-1.3912,-1.3844,-1.4,-1.3946,-1.3722,-1.3417,-1.3166,-1.2949,-1.28,-1.2739,-1.2752,-1.282,-1.2942,-1.3078,-1.3146,0.0,0.0,0.0,0.0,0.0,0.0,0.0,-1.3173,-1.3173,-1.3071,-1.2942,-1.2868,0.0,0.0,-1.2128,0.0,-1.1674,-1.1443,-1.1335,-1.124,-1.109,-1.1179,-1.133,-1.1248,-1.1241,-1.1227,-1.1077,-1.0934,-1.0772,-1.0772,-1.0772,-1.0717,-1.0717,-1.0582,-1.0466,-1.0399,-1.0256,-1.0168,-1.0168,-1.0025,-0.9909,-0.9984,-0.9842,-0.9652,-0.9503,-0.9571,-0.9578,-0.9503,-0.639,-0.4821,-0.4858,-0.1577,-0.1414,-0.4026,-0.4876,-0.5325,-0.5362,-0.4426,-0.3488,-0.2618,-0.168,-0.0807,0.0,0.0,0.0,0.0,0.0,0.0,0.0,0.0,0.0,0.0,0.0,0.0,0.0,0.0,0.0,0.0,0.0,0.0,0.0,0.0,0.0,-1.2562,0.0,0.0,0.0,0.0,0.0,0.0,-1.9968,-2.0475,-2.1739,-2.4081,-2.1825,-1.9741,-1.8086,-1.5186,-1.3995,-1.4309,-1.4105,-1.3926,-1.381,-1.3939,-1.3844,-1.3566,-1.3268,-1.2983,-1.2718,-1.2562,-1.2515,-1.2556,-1.2684,-1.284,-1.301,-1.3105,-1.3247,-1.3397,-1.337,0.0,0.0,0.0,0.0,-1.337,-1.322,-1.3071,-1.2929,-1.2773,0.0,-1.2223,-1.1938,-1.1762,0.0,-1.143,-1.1274,-1.1124,-1.0914,-1.1111,-1.1186,-1.1159,-1.1152,-1.1083,-1.0914,-1.0806,-1.0717,-1.0717,-1.0717,-1.0711,-1.0683,-1.0548,-1.0399,-1.0256,-1.01,-0.995,-0.995,-0.989,-0.9876,-0.9943,-0.9781,-0.9578,-0.9422,-0.9442,-0.9325,-0.9007,-0.6158,-0.4673,-0.4429,-0.2064,-0.2494,-0.545,-0.6043,-0.6285,-0.6297,-0.5964,-0.5028,-0.3622,-0.3287,-0.2283,-0.0874,-0.0606,-0.0672,-0.0874,-0.0202,-0.0202,-0.0404,0.0,0.0,0.0,0.0,0.0,0.0,0.0,0.0,0.0,0.0,-1.1891,-1.2121,0.0,0.0,0.0,-1.2718,-1.2874,0.0,0.0,0.0,0.0,-1.7628,-1.8078,-1.9315,-2.1653,-1.9401,-1.8963,-2.0387,-1.5949,-1.4699,-1.6475,-1.4506,-1.3675,-1.3661,-1.3682,-1.3593,-1.341,-1.3119,-1.2888,-1.2718,-1.2562,-1.2583,-1.2705,-1.2725,-1.2901,-1.3132,-1.3024,-1.3166,-1.3376,-1.3247,-1.3295,0.0,0.0,0.0,-1.337,-1.322,-1.3071,-1.2929,0.0,0.0,-1.225,0.0,-1.1918,-1.1728,0.0,0.0,-1.1124,0.0,-1.0894,-1.0934,-1.0806,-1.0873,-1.0907,-1.0772,-1.0731,-1.0717,-1.0717,-1.0717,-1.067,-1.0534,-1.0399,-1.0249,-1.0031,-0.9883,-0.9849,-0.9849,-0.9836,-0.9829,-0.9849,-0.9815,-0.9727,-0.9585,-0.97,-0.8973,-0.7417,-0.5714,-0.4171,-0.2831,-0.3932,-0.4785,-0.5512,-0.8475,-0.9861,-0.9915,-0.8302,-0.7498,-0.716,-0.5696,-0.4894,-0.4492,-0.2954,-0.3289,-0.4292,-0.1142,-0.1009,-0.2081,0.0,0.0,0.0,0.0,0.0,0.0,0.0,0.0,0.0,0.0,0.0,-1.2244,0.0,0.0,0.0,0.0,0.0,0.0,0.0,0.0,0.0,-1.7272,-1.7518,-1.8174,-1.9228,-1.8279,-1.7533,-1.6905,-1.48,-1.4224,-1.4893,-1.3909,-1.3498,-1.3498,-1.3498,-1.337,-1.3132,-1.2834,-1.2664,-1.2589,-1.244,-1.2372,-1.2372,-1.2535,-1.2637,-1.2691,-1.2793,-1.3024,-1.3261,-1.3193,-1.3275,-1.3403,-1.3403,0.0,0.0,0.0,-1.3071,-1.2908,-1.2664,-1.2386,-1.2169,0.0,-1.1952,-1.1681,-1.1552,-1.1402,-1.1226,-1.0927,-1.088,-1.0833,-1.0751,-1.0772,-1.0799,-1.0731,-1.0717,-1.0717,-1.0717,-1.0717,-1.0663,-1.0507,-1.0365,-1.0222,-1.0004,-0.9849,-0.9856,-0.9883,-0.9869,-0.9856,-0.9883,-0.9795,-0.9673,-0.9612,-0.9585,-0.9222,-0.8522,-0.6043,-0.4024,-0.2525,-0.4241,-0.5649,-0.6808,-0.934,-1.0575,-1.0651,-0.9842,-0.8967,-0.7964,-0.7165,-0.6297,-0.5295,-0.4492,-0.4693,-0.5228,-0.3622,-0.2887,-0.2618,0.0,0.0,0.0,0.0,0.0,0.0,0.0,0.0,0.0,0.0,0.0,0.0,0.0,0.0,0.0,0.0,0.0,0.0,0.0,0.0,0.0,-1.6473,-1.6655,-1.6768,-1.6896,-1.6856,-1.6167,-1.46,-1.406,-1.3901,-1.421,-1.3645,-1.3376,-1.3342,-1.3383,-1.3234,-1.2942,-1.2678,-1.2515,-1.2433,-1.225,-1.2128,-1.2155,-1.2264,-1.2311,-1.2318,-1.2542,-1.2834,-1.3119,-1.3119,-1.3247,-1.3403,-1.3403,-1.3403,0.0,0.0,0.0,0.0,0.0,0.0,-1.2149,-1.2264,-1.1979,-1.1681,0.0,0.0,-1.1341,0.0,-1.0988,-1.0955,-1.0806,-1.0744,-1.0717,-1.0717,-1.0717,-1.0717,-1.0717,-1.0717,-1.0663,-1.0507,-1.0399,-1.0256,-1.0004,-0.9883,-0.9862,-0.9977,-0.9883,-0.9869,-0.9984,-0.9842,-0.97,-0.9666,-0.9551,-0.9367,-0.9055,-0.6215,-0.4012,-0.2524,-0.4657,-0.6428,-0.7837,-0.9671,-1.0541,-1.0717,-1.0717,-0.9915,-0.8701,-0.8701,-0.7902,-0.6702,-0.6231,-0.6364,-0.6631,-0.5763,-0.4827,-0.389,0.0,0.0,0.0,0.0,0.0,0.0,0.0,0.0,0.0,0.0,0.0,0.0,-1.2488,-1.2501,-1.2562,-1.2718,-1.2874,0.0,0.0,0.0,0.0,-1.4022,-1.4304,0.0,-1.4476,-1.4331,-1.5204,-1.6968,-1.4711,-1.4543,-1.6401,-1.4375,-1.3322,-1.3193,-1.3336,-1.3234,-1.2949,-1.2786,-1.2556,-1.2277,-1.1979,-1.1938,-1.2047,-1.1918,-1.204,-1.2291,-1.2311,-1.2596,-1.2969,-1.2969,-1.3166,-1.3403,-1.3403,-1.3403,-1.3342,0.0,0.0,0.0,0.0,-1.2393,0.0,-1.2291,-1.2054,0.0,0.0,0.0,-1.143,-1.1558,-1.1355,-1.1104,-1.0962,-1.0819,-1.0717,-1.0717,-1.0717,-1.0717,-1.0717,-1.0717,-1.0663,-1.0507,-1.0487,-1.0365,-1.0017,-0.9977,-0.9977,-0.9984,-0.9977,-0.9977,-0.9984,-0.997,-0.9896,-0.9815,-0.9802,-0.9061,-0.7535,-0.5766,-0.4055,-0.2524,-0.5774,-0.7485,-0.7832,-0.9513,-1.0446,-1.0717,-1.0717,-1.0651,-1.0585,-1.0585,-1.0518,-1.0246,-0.8568,-0.8906,-1.0047,-0.6631,-0.6364,-0.7227,0.0,0.0,0.0,0.0,0.0,0.0,0.0,0.0,0.0,0.0,0.0,0.0,0.0,-1.2589,-1.2712,-1.2868,-1.3105,0.0,0.0,0.0,0.0,-1.4122,-1.415,-1.4197,-1.4299,-1.4245,-1.4437,-1.4942,-1.4124,-1.3971,-1.4541,-1.3728,-1.337,-1.3315,-1.3275,-1.3091,-1.2793,-1.2549,-1.2386,-1.2257,-1.1857,-1.1667,-1.1633,-1.1681,-1.1701,-1.1728,-1.1823,-1.1365,-1.0919,-1.2266,-1.2035,-1.1441,-1.2949,-1.3403,-1.3342,-1.3051,0.0,0.0,0.0,0.0,0.0,-1.2264,-1.1993,-1.1762,-1.2006,-1.1857,-1.1633,-1.1497,-1.1463,-1.1355,-1.0941,-1.0833,-1.0766,-1.0738,-1.0717,-1.0717,-1.0717,-1.0717,-1.0663,-1.0507,-1.0493,-1.0412,-1.0215,-1.0195,-1.0236,-1.0324,-1.0249,-1.0236,-1.0331,-1.0092,-0.9963,-0.9909,-0.9869,-0.8532,-0.5835,-0.6263,-0.5647,-0.4057,-0.632,-0.8105,-0.9443,-1.0022,-1.0439,-1.0717,-1.0717,-1.0717,-1.0717,-1.0717,-1.0717,-1.0651,-0.9981,-1.0114,-1.0518,-0.9244,-0.8435,-0.7831,0.0,0.0,0.0,0.0,0.0,0.0,0.0,0.0,-1.2121,-1.2142,0.0,0.0,0.0,0.0,-1.2813,-1.3017,-1.3261,-1.3485,-1.3682,-1.3695,-1.3831,-1.4129,-1.415,-1.4197,-1.4299,-1.415,-1.4,-1.3838,-1.3688,-1.3512,-1.3322,-1.3322,-1.3302,-1.3247,-1.3146,-1.299,-1.2793,-1.2542,-1.2352,-1.2176,-1.1721,-1.1484,-1.1325,-1.0657,-1.0386,-1.0327,-0.9839,-0.9096,-0.8645,-1.0727,-1.0742,-1.019,-1.2437,-1.3173,-1.3125,-1.2881,-1.263,0.0,-1.225,0.0,0.0,0.0,0.0,-1.1755,-1.2006,0.0,-1.1735,-1.1633,-1.1619,-1.1525,-1.1157,-1.109,-1.0955,-1.0751,-1.0717,-1.0717,-1.0717,-1.0717,-1.0683,-1.0582,-1.0568,-1.0514,-1.0365,-1.0351,-1.0392,-1.0487,-1.0405,-1.0392,-1.0487,-1.0263,-1.008,-0.9916,-0.9876,-0.8471,-0.5774,-0.7362,-0.7362,-0.5774,-0.7465,-0.8963,-1.0283,-1.0331,-1.0487,-1.0717,-1.0717,-1.0717,-1.0717,-1.0717,-1.0717,-1.0717,-1.0717,-1.0717,-1.0717,-1.0717,-0.9915,-0.8834,0.0,0.0,0.0,0.0,0.0,0.0,0.0,0.0,-1.2237,-1.2094,0.0,0.0,0.0,0.0,0.0,-1.3152,-1.3315,-1.3403,-1.341,-1.3675,-1.3838,-1.3844,0.0,0.0,-1.4299,-1.3871,-1.3709,-1.3838,-1.3403,-1.3186,-1.318,-1.3173,-1.3098,-1.305,-1.2963,-1.3043,-1.2942,-1.2786,-1.2467,-1.202,-1.1507,-1.1318,-1.108,-0.8756,-0.8142,-0.8179,-0.6444,-0.5967,-0.6544,-0.8646,-0.9329,-0.9709,-1.1959,-1.2732,-1.2698,-1.2549,-1.24,-1.2257,0.0,0.0,0.0,0.0,0.0,0.0,-1.2026,0.0,-1.1714,-1.1999,-1.1823,-1.1626,-1.1619,-1.1375,-1.1077,-1.0778,-1.0724,-1.0717,-1.0717,-1.0717,-1.0717,-1.0717,-1.0717,-1.0663,-1.0514,-1.05,-1.05,-1.05,-1.05,-1.05,-1.05,-1.0358,-1.0141,-0.9836,-0.9822,-0.9019,-0.7423,-0.9025,-0.9025,-0.7423,-0.9168,-1.0134,-1.0283,-1.0426,-1.0575,-1.0717,-1.0717,-1.0717,-1.0717,-1.0717,-1.0717,-1.0717,-1.0717,-1.0717,-1.0717,-1.0717,-1.0717,-1.0452,0.0,0.0,0.0,0.0,0.0,-1.221,-1.2169,-1.2237,-1.2311,0.0,0.0,0.0,-1.282,-1.2963,-1.3125,-1.3322,-1.3376,-1.3451,-1.3559,-1.3641,-1.3783,-1.4,-1.4089,-1.4183,-1.4299,-1.4177,-1.4027,-1.3838,-1.3715,-1.3546,-1.3336,-1.3227,-1.3152,-1.3112,-1.301,-1.2901,-1.2786,-1.263,-1.2372,-1.1952,-1.0148,-0.9417,-0.904,-0.6915,-0.6218,-0.6318,-0.5711,-0.4777,-0.4343,-0.7733,-0.815,-0.7991,-1.1713,-1.282,-1.2698,-1.2549,-1.24,-1.2257,-1.2101,0.0,0.0,0.0,0.0,0.0,-1.2054,-1.1999,-1.1932,-1.1898,-1.183,-1.1742,-1.164,-1.1457,-1.1267,-1.107,-1.086,-1.0717,-1.0717,-1.0717,-1.0717,-1.0717,-1.0717,-1.0704,-1.0663,-1.0656,-1.0656,0.0,-1.0656,-1.0656,-1.0656,-1.0419,-1.0188,-0.993,-0.9876,-0.9019,-0.7423,-0.9118,-0.9057,-0.7423,-0.9331,-1.0243,-1.0283,-1.0426,-1.0575,-1.0717,-1.0717,-1.0717,-1.0717,-1.0717,-1.0717,-1.0717,-1.0717,-1.0717,-1.0717,-1.0717,-1.0717,-1.0651,0.0,0.0,0.0,0.0,0.0,-1.2359,-1.2298,-1.2393,-1.2481,0.0,0.0,0.0,-1.303,-1.3125,-1.3234,-1.339,-1.3403,-1.3437,-1.3526,-1.3648,-1.3797,-1.3966,-1.4095,-1.4211,-1.4299,-1.4177,-1.4021,-1.3838,-1.3715,-1.3539,-1.3302,-1.3214,-1.3105,-1.2983,-1.2901,-1.2779,-1.263,-1.2542,-1.1867,-1.0748,-0.9378,-0.824,-0.7165,-0.5065,-0.4364,-0.4375,-0.3499,-0.2506,-0.2279,-0.6111,-0.7944,-0.9035,-1.1625,-1.2467,-1.2515,-1.2366,-1.2305,-1.2244,-1.2026,-1.206,-1.2176,-1.2271,0.0,0.0,-1.1993,-1.1965,-1.1925,-1.1775,-1.1742,-1.1735,-1.1714,-1.1531,-1.1382,-1.1355,-1.1151,-1.0975,-1.0914,-1.0907,-1.0907,-1.0907,-1.0907,-1.0907,-1.0907,-1.0907,-1.0907,-1.0907,-1.0907,-1.0853,-1.0724,-1.0439,-1.0209,-0.999,-0.9897,-0.9355,-0.8485,-0.9503,-0.9535,-0.8635,-0.9805,-1.0371,-1.0371,-1.0521,-1.0636,-1.0717,-1.0717,-1.0717,-1.0717,-1.0717,-1.0717,-1.0717,-1.0717,-1.0717,-1.0717,-1.0717,-1.0717,-1.0717,0.0,0.0,-1.2501,-1.2501,-1.2501,-1.2467,-1.2352,-1.2562,-1.2691,0.0,-1.2827,-1.3057,-1.3186,-1.32,-1.3254,-1.339,-1.3403,-1.3403,-1.3403,-1.3661,-1.3738,-1.3838,-1.4122,-1.4285,-1.4299,-1.4034,-1.3871,-1.3838,-1.358,-1.3363,-1.32,-1.318,-1.303,-1.2779,-1.2745,-1.2644,-1.2501,-1.2481,-1.106,-0.883,-0.8649,-0.7347,-0.5251,-0.3157,-0.2459,-0.2334,-0.063,-0.0141,-0.0849,-0.4627,-0.8418,-1.1579,-1.1647,-1.1932,-1.2216,-1.2115,-1.2169,-1.221,-1.1952,-1.2081,-1.2291,-1.2311,-1.2311,0.0,-1.1945,-1.1884,-1.1843,-1.1721,-1.1681,-1.1708,-1.183,-1.1626,-1.1477,-1.1599,-1.1518,-1.1389,-1.1233,-1.1199,-1.1185,-1.1185,-1.1241,-1.1234,-1.1234,-1.1234,-1.1234,-1.1234,-1.1234,-1.1043,-1.0758,-1.0466,-1.0236,-1.0017,-0.991,-0.9897,-0.9984,-1.0004,-1.0141,-1.0283,-1.0439,-1.0507,-1.0493,-1.0649,-1.0717,-1.0717,-1.0717,-1.0717,-1.0717,-1.0717,-1.0717,-1.0717,-1.0717,-1.0717,-1.0717,-1.0717,-1.0717,-1.0717,-1.2494,-1.2501,-1.2501,-1.2501,-1.2501,-1.2535,-1.263,-1.2691,-1.2807,-1.3017,-1.32,-1.3322,-1.3356,-1.3356,-1.337,-1.3397,-1.3403,-1.3403,-1.3403,-1.3566,-1.3722,-1.3838,-1.4021,-1.4177,-1.4299,-1.4245,-1.4089,-1.3838,-1.3783,-1.362,-1.3356,-1.3227,-1.3146,-1.3078,-1.2834,-1.2644,-1.2494,-1.2379,-1.0116,-0.6658,-0.6763,-0.5493,-0.3225,-0.1247,-0.0549,-0.0544,-0.0136,-0.0951,-0.2793,-0.6635,-0.9429,-1.1335,-1.1823,-1.1952,-1.1965,-1.2182,-1.2182,-1.2121,-1.2182,-1.2244,-1.2318,-1.2433,-1.2461,0.0,-1.2244,-1.2203,-1.2196,-1.2162,-1.206,-1.1986,-1.2013,-1.187,-1.1721,-1.1633,-1.1687,-1.1694,-1.1552,-1.1423,-1.1348,-1.1348,-1.124,-1.1234,-1.1234,-1.1234,-1.1234,-1.1234,-1.1234,-1.1084,-1.0847,-1.0616,-1.0385,-1.0243,-0.9964,-0.9897,-0.9984,-1.0175,-1.0249,-1.0283,-1.0548,-1.0609,-1.0493,-1.0649,-1.0717,-1.0717,-1.0717,-1.0717,-1.0717,-1.0717,-1.0717,-1.0717,-1.0717,-1.0717,-1.0717,-1.0717,-1.0717,-1.0717,-1.2501,-1.2501,-1.2501,-1.2501,-1.2501,-1.2556,-1.2705,-1.2793,-1.2922,-1.3146,-1.3308,-1.3431,-1.3505,-1.3444,-1.3403,-1.3403,-1.3403,-1.3403,-1.3403,-1.3607,-1.377,-1.3838,-1.4061,-1.4224,-1.4299,-1.4224,-1.4075,-1.3838,-1.377,-1.362,-1.3397,-1.3322,-1.3166,-1.2949,-1.2874,-1.2678,-1.2393,-1.2318,-0.9913,-0.6135,-0.613,-0.4274,-0.1454,-0.1365,-0.1352,-0.1478,-0.235,-0.3823,-0.5644,-0.7615,-0.9572,-1.1226,-1.1606,-1.1775,-1.1877,-1.2108,-1.2176,-1.2189,-1.2271,-1.2338,-1.2413,-1.2481,-1.2501,0.0,0.0,-1.2237,-1.2244,-1.2094,-1.206,-1.204,-1.1959,-1.1945,-1.1925,-1.185,-1.1965,-1.206,-1.206,-1.187,-1.1694,-1.1619,-1.1613,-1.1579,-1.1504,-1.1565,-1.1579,-1.1504,-1.143,-1.1294,-1.107,-1.0772,-1.0534,-1.0392,-1.0168,-1.012,-1.027,-1.0344,-1.0426,-1.05,-1.0649,-1.0677,-1.0609,-1.0683,-1.0717,-1.0717,-1.0717,-1.0717,-1.0717,-1.0717,-1.0717,-1.0717,-1.0717,-1.0717,-1.0717,-1.0717,-1.0717,-1.0717,-1.2501,-1.2501,-1.2501,-1.2501,-1.2501,-1.2562,-1.2745,-1.2881,-1.303,-1.3234,-1.3342,-1.3451,-1.3573,-1.3451,-1.3349,-1.3315,-1.3315,-1.3329,-1.3356,-1.3634,-1.3783,-1.3756,-1.4109,-1.4258,-1.417,-1.4102,-1.398,-1.3797,-1.3688,-1.3553,-1.3403,-1.3403,-1.3207,-1.2861,-1.2901,-1.2476,-1.1747,-1.1713,-0.9296,-0.5651,-0.5467,-0.3227,-0.0138,-0.1623,-0.2417,-0.2954,-0.5162,-0.6831,-0.8046,-0.8407,-0.9689,-1.1151,-1.1335,-1.1552,-1.1796,-1.2033,-1.2176,-1.2257,-1.2318,-1.2413,-1.2501,-1.2501,-1.2501,-1.244,0.0,0.0,0.0,-1.2013,0.0,0.0,0.0,0.0,0.0,-1.1993,0.0,0.0,0.0,-1.2244,0.0,-1.1898,-1.1986,-1.1999,-1.1843,-1.1945,-1.1965,-1.1837,-1.1701,-1.1497,-1.1219,-1.0928,-1.0697,-1.0541,-1.0371,-1.0351,-1.0487,-1.0493,-1.0568,-1.0717,-1.0717,-1.0717,-1.0717,-1.0717,-1.0717,-1.0717,-1.0717,-1.0717,-1.0717,-1.0717,-1.0717,-1.0717,-1.0717,-1.0717,-1.0717,-1.0717,-1.0717,-1.0717,-1.2501,-1.2501,-1.2501,-1.2501,-1.2501,-1.2596,-1.2888,-1.2949,-1.3112,-1.3526,-1.3471,-1.341,-1.3424,-1.3288,-1.3146,-1.3024,-1.301,-1.3064,-1.3193,-1.3485,-1.3593,-1.3458,-1.3994,-1.4116,-1.3715,-1.3946,-1.3933,-1.3654,-1.3634,-1.3553,-1.3403,-1.3403,-1.3376,-1.3308,-1.2929,-1.1694,-0.9876,-0.9462,-0.6958,0.0,-0.3245,-0.1961,0.0,-0.0204,-0.1277,-0.3153,-0.6494,-0.7831,-0.8235,-0.9861,-1.0645,-1.1023,-1.1301,-1.1416,-1.1552,-1.2101,-1.2182,-1.2142,-1.2406,-1.2488,-1.2501,-1.2501,-1.2501,-1.2494,-1.2461,0.0,-1.2467,-1.2433,0.0,0.0,0.0,0.0,0.0,0.0,0.0,0.0,-1.1945,-1.2223,-1.2345,-1.2067,-1.2128,-1.1999,-1.1843,-1.1843,-1.185,-1.183,-1.1701,-1.1545,-1.1375,-1.1084,-1.0853,-1.0697,-1.0426,-1.0351,-1.0487,-1.0493,-1.0568,-1.0717,-1.0717,-1.0717,-1.0717,-1.0717,-1.0717,-1.0717,-1.0717,-1.0717,-1.0717,-1.0717,-1.0717,-1.0717,-1.0717,-1.0717,-1.0717,-1.0717,-1.0717,-1.0717,-1.2501,-1.2501,-1.2501,-1.2501,-1.2501,-1.2603,-1.2915,-1.3105,-1.3315,-1.3593,-1.3498,-1.3403,-1.3403,-1.3261,-1.2667,-1.1231,-1.2179,-1.2364,-1.129,-1.2533,-1.3417,-1.3532,-1.3939,-1.4082,-1.3892,-1.3919,-1.3838,-1.3627,-1.3539,-1.3464,-1.3403,-1.3403,-1.3308,-1.3132,-1.2854,-1.1522,-0.948,-0.9084,-0.6616,0.0,0.0,-0.238,0.0,-0.2714,-0.4894,-0.7569,-0.9039,-0.9576,-0.9709,-1.0452,-1.0819,-1.09,-1.1097,-1.1253,-1.1457,-1.1803,-1.1911,-1.1972,-1.2189,-1.146,-1.0898,-1.2066,-1.1503,-1.1011,-1.2269,-1.2501,-1.2501,-1.2501,0.0,0.0,0.0,0.0,0.0,0.0,-1.2169,0.0,0.0,0.0,-1.2427,-1.2216,0.0,0.0,-1.2223,-1.2149,-1.206,-1.1972,-1.1823,-1.164,-1.1402,-1.1185,-1.1002,-1.0793,-1.0643,-1.0561,-1.0622,-1.0622,-1.0656,-1.0717,-1.0717,-1.0717,-1.0717,-1.0717,-1.0717,-1.0717,-1.0717,-1.0717,-1.0717,-1.0717,-1.0717,-1.0717,-1.0717,-1.0717,-1.0717,-1.0717,-1.0717,-1.0717,-1.244,-1.2474,-1.2501,-1.2501,-1.2501,-1.2603,-1.2915,-1.3214,-1.3444,-1.3553,-1.3431,-1.3322,-1.3281,-1.2651,-1.1549,-0.986,-1.047,-1.0392,-0.8973,-1.1056,-1.2351,-1.2478,-1.3501,-1.3933,-1.377,-1.3777,-1.3709,-1.3566,-1.3458,-1.3403,-1.3403,-1.3403,-1.3261,-1.301,-1.282,-1.1479,-0.931,-0.8458,-0.6407,-0.3729,-0.3119,-0.3343,-0.4274,-0.5605,-0.7702,-1.0047,-1.0518,-1.0717,-1.0717,-1.0717,-1.0819,0.0,-1.088,-1.1124,-1.1285,0.0,0.0,0.0,-1.0595,0.0,0.0,0.0,0.0,-0.996,-1.2024,-1.2501,-1.2501,-1.2501,-1.2501,0.0,0.0,0.0,-1.2325,-1.2244,0.0,-1.2352,0.0,-1.2447,0.0,0.0,0.0,0.0,0.0,-1.2311,-1.2162,-1.2013,-1.1857,-1.1681,-1.1463,-1.1267,-1.1118,-1.1009,-1.0819,-1.0717,-1.0717,-1.0717,-1.0717,-1.0717,-1.0717,-1.0717,-1.0717,-1.0717,-1.0717,-1.0717,-1.0717,-1.0717,-1.0717,-1.0717,-1.0717,-1.0717,-1.0717,-1.0717,-1.0717,-1.0717,-1.0717,-1.0717,-1.2298,-1.2406,-1.2501,-1.2501,-1.2501,-1.2603,-1.2915,-1.3214,-1.3403,-1.341,-1.3275,-1.3125,-1.299,-1.1072,-0.962,-0.9463,-0.7604,-0.6535,-0.6612,-0.8814,-1.002,-0.9724,-1.2376,-1.358,-1.309,-1.3417,-1.3559,-1.341,-1.3403,-1.3403,-1.3403,-1.3403,-1.3315,-1.3152,-1.2861,-1.1456,-0.9268,-0.7061,-0.5905,-0.5341,-0.3446,-0.4744,-0.7841,0.0,-0.7964,-0.8302,-1.0047,0.0,0.0,-1.0717,-1.0819,0.0,0.0,0.0,0.0,0.0,0.0,0.0,0.0,0.0,0.0,-0.8995,0.0,0.0,0.0,0.0,-1.2501,0.0,0.0,-1.2501,-1.2494,-1.2494,-1.24,-1.2115,-1.2311,0.0,0.0,0.0,0.0,0.0,0.0,0.0,0.0,-1.2155,-1.2006,0.0,-1.1708,-1.1619,-1.1613,-1.1328,-1.1227,-1.1158,-1.0873,-1.0717,-1.0717,-1.0717,-1.0717,-1.0717,-1.0717,-1.0717,-1.0717,-1.0717,-1.0717,-1.0717,-1.0717,-1.0717,-1.0717,-1.0717,-1.0717,-1.0717,-1.0717,-1.0717,-1.0717,-1.0717,-1.0717,-1.0717,-1.2291,-1.2406,-1.2501,-1.2501,-1.2501,-1.2603,-1.2915,-1.3125,-1.3247,-1.3247,-1.3125,-1.2448,-1.0937,-1.0014,-0.8306,-0.5484,-0.5768,-0.5544,-0.4349,-0.7616,-0.9061,-0.7734,-0.9967,-1.0557,-0.9006,-1.0594,-1.1349,-1.1131,-1.2644,-1.3403,-1.3397,-1.3295,-1.322,-1.3152,-1.2657,-1.1268,0.0,0.0,0.0,0.0,0.0,-0.6983,-0.834,0.0,-0.9775,-0.9842,-1.0452,-1.0717,0.0,-1.0717,-1.0758,-1.0525,-0.9369,-0.912,-0.8955,-0.7195,-0.6692,-0.6625,0.0,0.0,-0.4548,-0.6638,0.0,0.0,0.0,0.0,0.0,0.0,0.0,0.0,-1.2501,-1.2427,-1.2359,-1.2352,-1.2359,-1.2359,0.0,-1.244,0.0,0.0,0.0,0.0,0.0,0.0,0.0,0.0,-1.1647,0.0,-1.147,-1.1369,-1.1314,-1.1314,-1.1023,-1.0806,-1.0806,-1.0772,-1.0717,-1.0717,-1.0717,-1.0717,-1.0717,-1.0717,-1.0717,-1.0717,-1.0717,-1.0717,-1.0717,-1.0717,-1.0717,-1.0717,-1.0717,-1.0717,-1.0717,-1.0717,-1.0717,-1.0731,-1.2291,-1.2406,-1.2501,-1.2501,-1.2549,-1.2671,-1.2922,-1.3037,-1.3098,-1.3098,-1.2922,-1.1984,-0.98,-0.875,-0.6808,-0.3415,-0.3555,-0.3335,-0.2078,-0.5283,-0.667,-0.5435,-0.7568,-0.8165,-0.6795,-0.8259,-0.9289,-0.9943,-1.1388,-1.2496,-1.3241,-1.3146,-1.3037,-1.2915,-1.2535,-1.1529,-1.0088,-0.9191,-0.825,0.0,0.0,-0.9024,0.0,0.0,-1.0751,-1.0725,0.0,-1.0717,-1.0717,-1.0717,-1.0246,-0.951,-0.8363,-0.7679,-0.6922,-0.5092,-0.4646,-0.4558,-0.392,-0.284,0.0,-0.4465,-0.4036,0.0,-0.8421,0.0,-1.0026,0.0,0.0,0.0,0.0,-1.2386,-1.2338,-1.2481,-1.2379,-1.2325,0.0,-1.2467,-1.2501,0.0,0.0,0.0,0.0,0.0,0.0,0.0,0.0,0.0,0.0,-1.1389,-1.1389,-1.1389,-1.1151,-1.1023,-1.1023,-1.088,-1.0799,-1.0799,-1.0744,-1.0717,-1.0717,-1.0717,-1.0717,-1.0717,-1.0717,-1.0717,-1.0717,-1.0717,-1.0717,-1.0717,-1.0717,-1.0751,-1.0799,-1.0799,-1.0833,-1.0894,-1.2291,-1.2413,-1.2515,-1.2522,-1.2644,-1.2793,-1.2949,-1.2969,-1.3036,-1.2949,-1.2599,-1.1574,-0.9584,-0.7272,-0.5092,-0.3261,-0.1188,0.0,0.0,-0.2101,-0.3186,-0.2992,-0.5274,-0.64,-0.6169,-0.6398,-0.7544,-0.9608,-0.9716,-1.0907,-1.2949,-1.2935,-1.2773,-1.2501,-1.2481,0.0,-1.167,-0.9826,-0.9905,-1.1138,-1.0846,-1.0731,-1.0731,-1.0724,-1.0745,-1.086,-1.0772,-1.0651,-1.0585,-1.0585,-0.9371,-0.7831,-0.7764,-0.6631,-0.4894,-0.3088,-0.2551,-0.2224,-0.0479,0.0,-0.0494,-0.2458,-0.2937,0.0,0.0,0.0,-0.984,0.0,0.0,0.0,0.0,-1.2379,-1.2332,-1.2461,-1.2372,-1.2291,-1.2298,-1.242,-1.2501,-1.2501,0.0,0.0,0.0,0.0,0.0,0.0,0.0,0.0,0.0,-1.1389,-1.1396,-1.1402,-1.1253,-1.1241,-1.1241,-1.1023,-1.088,-1.088,-1.0725,-1.0717,-1.0717,-1.0717,-1.0717,-1.0717,-1.0717,-1.0717,-1.0717,-1.0717,-1.0717,-1.0717,-1.0731,-1.0826,-1.09,-1.0887,-1.1043,-1.1241,-1.2291,-1.2494,-1.2705,-1.282,-1.2874,-1.2949,-1.3098,-1.303,-1.2922,-1.2807,-1.1268,-0.9862,-0.9128,-0.5833,-0.3518,-0.2997,-0.1172,0.0,0.0,-0.1999,-0.2453,-0.0888,-0.2891,-0.3308,-0.1679,-0.3344,-0.5184,-0.7224,-0.8816,-1.0695,-1.2786,-1.2562,-1.2474,-1.2488,0.0,-1.1877,-1.1602,-1.1089,-1.1044,-1.1145,-1.0962,-1.0826,-1.0813,0.0,-1.0745,-1.086,-1.0772,-0.9842,-0.8701,-0.8701,-0.7498,-0.583,-0.449,-0.3756,-0.3021,-0.121,-0.0672,-0.0609,-0.0139,0.0,-0.0141,-0.0652,-0.081,-0.1488,0.0,0.0,0.0,0.0,0.0,0.0,0.0,0.0,-1.2264,-1.2189,-1.2237,-1.2325,-1.2433,-1.2481,-1.2501,-1.2501,0.0,0.0,0.0,0.0,0.0,0.0,0.0,0.0,-1.1396,-1.1389,-1.1443,-1.1558,-1.1409,-1.1335,-1.1335,-1.1077,-1.088,-1.088,-1.0725,-1.0717,-1.0717,-1.0717,-1.0717,-1.0717,-1.0717,-1.0717,-1.0717,-1.0717,-1.0717,-1.0731,-1.0779,-1.105,-1.1253,-1.0961,-1.1111,-1.1314,-1.2291,-1.2583,-1.2874,-1.303,-1.3051,-1.3057,-1.3078,-1.2895,-1.2732,-1.2644,-1.144,-1.0127,-0.9039,-0.6071,-0.3851,-0.2979,-0.1093,0.0,0.0,-0.1104,-0.1254,-0.0074,-0.1122,-0.1203,0.0,-0.1217,-0.3288,-0.6184,-0.7442,-0.9566,-1.2433,0.0,0.0,0.0,0.0,-1.1748,-1.1613,-1.1477,-1.1321,-1.1214,-1.0934,-1.0779,0.0,-1.0751,-1.0232,-0.9612,-0.9534,-0.8834,-0.7897,-0.7098,-0.5696,-0.4024,-0.3021,-0.2148,-0.1344,-0.0269,0.0,0.0,0.0,0.0,0.0,0.0,0.0,-0.0517,-0.2593,-0.4614,-0.6586,0.0,-1.0649,-1.1979,0.0,0.0,0.0,-1.2067,-1.2244,-1.2386,-1.2406,-1.2461,-1.2501,-1.2501,-1.2318,0.0,0.0,0.0,0.0,0.0,0.0,0.0,0.0,-1.1355,-1.1463,-1.1613,-1.1538,-1.1525,-1.1586,-1.1287,-1.1111,-1.1036,-1.0894,-1.0785,-1.0717,-1.0717,-1.0717,-1.0717,-1.0717,-1.0717,-1.0717,-1.0717,-1.0758,-1.0839,-1.1056,-1.1246,-1.1369,-1.1206,-1.1287,-1.1477,-1.1924,-1.2252,-1.2568,-1.2706,-1.2963,-1.3064,-1.2922,-1.2671,-1.2488,-1.2447,-1.1976,-1.1076,-0.9454,-0.6942,-0.4866,-0.3415,-0.1239,0.0,0.0,0.0,0.0,0.0,0.0,0.0,0.0,0.0,-0.1998,-0.5974,-0.5958,-0.809,-1.2033,0.0,0.0,0.0,0.0,0.0,0.0,-1.1307,-1.1172,-1.1111,-1.0853,-1.0738,-1.0651,-1.0452,-0.9371,-0.7964,-0.7498,-0.7298,-0.7093,-0.5563,-0.3823,-0.235,-0.235,-0.1277,0.0,0.0,0.0,0.0,0.0,0.0,0.0,0.0,0.0,-0.0438,-0.2282,-0.4199,-0.6128,-0.7997,-0.9957,-1.147,-1.1602,0.0,0.0,0.0,-1.2305,-1.2447,-1.2359,-1.2454,-1.2528,-1.2528,-1.2271,0.0,0.0,0.0,0.0,0.0,0.0,0.0,0.0,0.0,-1.1443,-1.1613,-1.1619,-1.1687,-1.183,-1.1538,-1.1314,-1.1227,-1.1016,-1.0799,-1.0717,-1.0717,-1.0717,-1.0717,-1.0717,-1.0717,-1.0717,-1.0717,-1.0812,-1.0907,-1.1274,-1.1389,-1.1396,-1.1416,-1.1504,-1.1613,-0.985,-1.0022,-1.0248,-1.0362,-1.1758,-1.2759,-1.2603,-1.2535,-1.2413,-1.2169,-1.0557,-0.9894,-1.1017,-0.654,-0.3923,-0.5156,-0.2039,0.0,0.0,0.0,0.0,0.0,0.0,0.0,0.0,0.0,-0.19,-0.5829,-0.5849,-0.7919,-1.187,0.0,0.0,0.0,0.0,0.0,-1.143,-1.1375,0.0,-1.0982,-1.086,-1.0833,-1.0518,-0.9039,-0.8296,-0.7631,-0.469,-0.3622,-0.3555,-0.3287,-0.1947,-0.0471,-0.0471,-0.0269,0.0,0.0,0.0,0.0,0.0,0.0,0.0,0.0,0.0,-0.0072,-0.0432,-0.2012,-0.3529,-0.3939,-0.6781,-0.9246,-0.9267,0.0,0.0,0.0,0.0,-1.24,-1.2623,-1.2671,-1.2691,-1.2691,-1.2427,-1.2203,-1.2074,0.0,0.0,0.0,-1.1348,-1.1246,-1.1348,0.0,-1.1335,0.0,-1.1619,-1.1687,0.0,-1.1538,-1.1314,-1.1227,-1.1016,-1.0799,-1.0717,-1.0717,-1.0717,-1.0717,-1.0717,-1.0717,-1.0717,-1.0717,-1.0812,-1.0907,-1.1274,-1.1389,-1.1409,-1.1531,-1.1599,-1.1599,-0.7855,-0.7967,-0.8362,-0.9531,-1.0403,-1.128,-1.2152,-1.2203,-1.2101,-1.1959,-1.0224,-0.9339,-1.0035,-0.5805,-0.327,-0.4213,-0.1675,0.0,0.0,0.0,0.0,0.0,0.0,0.0,0.0,0.0,-0.188,-0.5808,-0.5805,-0.7831,-1.1721,-1.1653,0.0,0.0,0.0,-1.1457,0.0,0.0,0.0,-1.0873,-1.0793,-1.0178,-0.9172,-0.8302,-0.6827,-0.5025,-0.3287,-0.2081,-0.1277,-0.1277,-0.074,0.0,0.0,0.0,0.0,0.0,0.0,0.0,0.0,0.0,0.0,0.0,0.0,0.0,0.0,-0.1507,-0.2927,-0.2874,-0.5962,-0.8902,-0.9912,-1.0966,0.0,0.0,0.0,-1.2474,-1.2698,-1.28,-1.282,-1.2739,-1.2467,-1.223,-1.2074,-1.1796,0.0,0.0,-1.1335,-1.1261,-1.1267,0.0,-1.1267,0.0,0.0,0.0,-1.183,0.0,-1.1396,-1.1234,-1.109,-1.0941,-1.0717,-1.0717,-1.0717,-1.0717,-1.0717,-1.0717,-1.0731,-1.0887,-1.0995,-1.109,-1.1396,-1.1511,-1.1518,-1.1592,-1.1619,-1.1606,-0.5624,-0.6085,-0.6919,-0.8572,-0.9439,-1.0315,-1.1301,-1.1334,-1.1183,-1.1126,-0.9951,-0.8834,-0.8174,-0.5017,-0.291,-0.2919,-0.1095,0.0,0.0,0.0,0.0,0.0,0.0,0.0,0.0,0.0,-0.1713,-0.5207,-0.5567,-0.7553,-1.0947,-1.137,-1.1619,0.0,0.0,0.0,0.0,0.0,-1.0927,-1.0914,-1.0417,-0.9346,-0.7994,-0.7169,-0.5158,-0.2618,-0.2283,-0.121,0.0,0.0,0.0,0.0,0.0,0.0,0.0,0.0,0.0,0.0,0.0,0.0,-0.0073,-0.0507,-0.0574,-0.0642,-0.1078,-0.2358,-0.3477,-0.3406,-0.6092,-0.9063,-1.0984,-1.1497,0.0,0.0,0.0,0.0,0.0,-1.2813,-1.2854,-1.2698,-1.2447,-1.2203,-1.1986,-1.1755,0.0,0.0,-1.1314,-1.1234,-1.1234,-1.1234,-1.1219,-1.1341,-1.1525,-1.1674,-1.1782,0.0,-1.1484,-1.1212,-1.1179,-1.1043,-1.0812,-1.0778,-1.0772,-1.0772,-1.0799,-1.0799,-1.0792,-1.109,-1.1172,-1.1151,-1.1491,-1.1599,-1.1572,-1.1606,-1.1599,-1.1572,-0.2906,-0.4734,-0.6136,-0.6287,-0.9382,-1.122,-0.9503,-0.9335,-0.9319,-0.9034,-0.8874,-0.8033,-0.6271,-0.417,-0.2922,-0.2882,-0.1101,0.0,0.0,0.0,0.0,0.0,0.0,0.0,0.0,0.0,-0.1046,-0.3141,-0.4929,-0.6856,-0.8831,-1.0702,-1.1619,0.0,0.0,0.0,0.0,-1.1212,-1.1145,-1.0993,-0.9262,-0.8392,-0.7902,-0.4512,-0.3019,-0.2484,-0.0874,-0.0135,0.0,0.0,0.0,0.0,0.0,0.0,0.0,0.0,0.0,0.0,0.0,0.0,-0.0363,-0.205,-0.2456,-0.2866,-0.4489,-0.5137,-0.5315,-0.5172,-0.6848,-0.8943,-1.0833,-1.1423,-1.1626,0.0,0.0,0.0,0.0,0.0,-1.2698,-1.2542,0.0,-1.2121,-1.1701,-1.1633,0.0,0.0,-1.126,-1.1234,-1.1234,-1.1234,-1.1241,-1.1255,-1.1463,-1.1626,-1.164,-1.1626,-1.1538,-1.1369,-1.1226,-1.1151,-1.1118,-1.0989,-1.086,-1.0867,-1.1063,-1.105,-1.088,-1.1246,-1.1212,-1.0941,-1.145,-1.1538,-1.143,-1.1565,-1.1531,-1.143,-0.104,-0.2771,-0.4514,-0.5674,-0.7228,-0.846,-0.8717,-0.7856,-0.6682,-0.5377,-0.5296,-0.5034,-0.4177,-0.2352,-0.1178,-0.1175,-0.0439,0.0,0.0,0.0,0.0,0.0,0.0,0.0,0.0,0.0,-0.1472,0.0,0.0,-0.7388,-1.0367,-1.1201,-1.1572,0.0,0.0,-1.0191,-1.1246,-1.1097,-1.0391,-0.9411,-0.8602,-0.6958,-0.4789,-0.3269,-0.203,-0.1009,-0.0269,0.0,0.0,0.0,0.0,0.0,0.0,0.0,0.0,0.0,0.0,0.0,0.0,-0.0871,-0.1888,-0.2657,-0.3701,-0.4729,-0.5404,-0.5594,-0.557,-0.5457,-0.6847,-0.8736,-1.0668,-1.1206,-1.1402,-1.1592,0.0,0.0,0.0,0.0,0.0,-1.2277,0.0,-1.2013,-1.1653,-1.1619,-1.1592,0.0,0.0,-1.1301,-1.1301,-1.1301,-1.1301,-1.1301,0.0,-1.1619,-1.1619,-1.1619,-1.1545,-1.1389,-1.1328,-1.1253,-1.1227,-1.1104,-1.1077,-1.1077,-1.105,-1.105,-1.1084,-1.1206,-1.124,-1.124,-1.1511,-1.1586,-1.1525,-1.1491,-1.1443,-1.1402,0.0,-0.1561,-0.335,-0.4719,-0.5446,-0.6089,-0.6902,-0.5808,-0.4213,-0.2328,-0.2151,-0.2166,-0.2053,-0.081,0.0,0.0,0.0,0.0,0.0,0.0,0.0,0.0,0.0,0.0,0.0,0.0,-0.155,-0.4772,-0.5501,0.0,0.0,0.0,0.0,0.0,-0.8179,-0.8293,-0.959,-0.9394,-0.8649,-0.7481,-0.696,-0.5156,-0.2688,-0.2129,-0.1089,0.0,0.0,0.0,0.0,0.0,0.0,0.0,0.0,0.0,0.0,0.0,0.0,-0.0141,-0.0724,-0.1819,-0.3195,-0.4263,-0.5574,-0.6645,-0.7042,-0.7191,-0.7126,-0.706,-0.8008,-0.9113,-0.9912,-1.0721,-1.1127,-1.0684,0.0,0.0,0.0,-1.2311,0.0,-1.1972,-1.1932,-1.1796,-1.1457,-1.1504,0.0,0.0,0.0,-1.1341,-1.1389,-1.1389,-1.1369,0.0,0.0,0.0,-1.1552,-1.1599,-1.1565,-1.1457,-1.1409,-1.1355,-1.1294,-1.1253,-1.1253,-1.1287,-1.1145,-1.1138,-1.1233,-1.128,-1.1335,-1.1409,-1.1558,-1.1619,-1.1606,-1.1497,-1.143,-1.1396,0.0,-0.1603,-0.2909,-0.2909,-0.4504,-0.5156,-0.327,-0.2981,-0.2256,-0.0292,0.0,0.0,0.0,0.0,0.0,0.0,0.0,0.0,0.0,0.0,0.0,0.0,0.0,0.0,0.0,0.0,-0.0987,-0.2922,0.0,0.0,-0.8521,0.0,-0.7594,-0.5877,-0.5726,-0.5733,-0.5874,-0.5723,-0.5737,-0.5653,-0.3723,-0.2972,-0.2655,-0.0759,0.0,0.0,0.0,0.0,0.0,0.0,0.0,0.0,0.0,0.0,0.0,0.0,0.0,-0.0423,-0.2311,-0.2909,-0.3765,-0.7491,-0.8384,-0.8692,-1.0438,-1.0819,-1.0812,-1.0812,-1.088,-1.0287,-0.839,-0.9904,-1.0728,-0.866,0.0,0.0,0.0,-1.1748,0.0,-1.164,-1.1626,-1.145,-1.0934,-1.1219,0.0,0.0,0.0,0.0,0.0,0.0,0.0,-1.1241,-1.1463,0.0,-1.1396,-1.1545,-1.1619,-1.1613,-1.1463,-1.147,-1.1606,-1.1457,-1.147,-1.1606,-1.145,-1.1389,-1.1402,-1.1552,-1.1525,-1.1409,-1.1558,-1.1619,-1.1619,-1.1619,-1.1518,-1.1409,0.0,-0.1602,-0.2909,-0.2909,-0.3415,-0.3633,-0.2979,-0.1748,-0.0729,-0.0073,0.0,0.0,0.0,0.0,0.0,0.0,0.0,0.0,0.0,0.0,0.0,0.0,0.0,0.0,0.0,-0.1289,-0.2911,-0.4772,0.0,0.0,0.0,-0.6048,-0.5111,-0.5584,-0.4244,-0.439,-0.5658,-0.5635,-0.4881,-0.3774,-0.3152,-0.2136,-0.085,-0.0208,0.0,0.0,0.0,0.0,0.0,0.0,0.0,0.0,0.0,0.0,0.0,0.0,-0.0923,-0.2136,-0.275,-0.4863,-0.7174,-0.8366,-0.9632,-1.0651,-1.1141,-1.109,-1.0853,-1.0745,-0.9777,-0.8706,-0.8137,-0.7677,-0.7627,-0.8193,-0.9062,0.0,-1.1201,0.0,-1.1443,-1.1192,-1.1246,-1.1212,-1.09,-1.1124,0.0,0.0,0.0,0.0,0.0,0.0,0.0,0.0,-1.1565,0.0,-1.1545,-1.1592,-1.1619,-1.1619,-1.1572,-1.1572,-1.1619,-1.1565,-1.1572,-1.1613,-1.1457,-1.145,-1.1545,-1.1484,-1.1497,-1.1552,-1.1599,-1.1619,-1.1606,-1.1504,-1.1436,-1.1396,0.0,-0.0947,-0.1819,-0.1819,-0.1819,-0.1819,-0.1819,-0.0802,0.0,0.0,0.0,0.0,0.0,0.0,0.0,0.0,0.0,0.0,0.0,0.0,0.0,0.0,0.0,-0.0365,-0.1093,-0.2309,0.0,-0.6737,-0.8098,-0.7983,-0.6456,-0.4119,-0.3169,-0.3445,-0.2199,-0.2344,-0.3519,-0.3519,-0.2816,-0.1818,-0.1803,-0.1076,0.0,0.0,0.0,0.0,0.0,0.0,0.0,0.0,0.0,-0.014,-0.0837,-0.1055,-0.1067,-0.1071,-0.1927,-0.3216,-0.4702,-0.6817,-0.8848,-0.9574,-1.0628,-1.1491,-1.1341,-1.1118,-1.0853,-1.0759,-0.9381,-0.79,-0.7184,-0.6271,-0.5983,-0.7022,-0.8014,-0.9225,-1.0836,-1.1165,-1.1158,-1.09,-1.1029,-1.105,-1.0887,-1.1029,-1.1084,0.0,0.0,0.0,0.0,0.0,-1.1518,-1.1613,-1.1619,-1.1619,-1.1619,-1.1619,-1.1619,-1.1619,-1.1619,-1.1619,-1.1619,-1.1619,-1.1619,-1.1613,-1.1518,-1.1531,-1.1613,-1.1518,-1.1531,-1.1619,-1.1619,-1.1619,-1.1606,-1.1511,-1.1477,-1.1477,0.0,0.0,0.0,0.0,0.0,0.0,0.0,0.0,0.0,0.0,0.0,0.0,0.0,0.0,0.0,0.0,0.0,0.0,0.0,0.0,0.0,0.0,-0.0146,-0.102,-0.2836,-0.3197,-0.5081,-0.8703,-0.8559,-0.66,-0.2907,-0.2728,-0.1727,0.0,0.0,0.0,0.0,0.0,0.0,0.0,0.0,0.0,0.0,0.0,0.0,0.0,0.0,0.0,0.0,0.0,0.0,-0.0358,-0.2282,-0.2878,-0.2902,-0.3081,-0.321,-0.4075,-0.7733,-0.8776,-0.9357,-1.1181,-1.1511,-1.1369,-1.1212,-1.1063,-1.0894,-1.088,-0.9431,-0.7549,-0.5718,-0.5485,-0.5532,-0.5393,-0.7128,-0.9015,-1.0677,-1.0867,-1.0867,-1.0867,0.0,0.0,-1.088,-1.0887,-1.0894,0.0,0.0,0.0,0.0,0.0,-1.1606,-1.1619,-1.1619,-1.1619,-1.1619,-1.1619,-1.1619,-1.1619,-1.1619,-1.1619,-1.1619,-1.1619,-1.1619,-1.1619,-1.1619,-1.1619,-1.1619,-1.1619,-1.1619,-1.1619,-1.1619,-1.1619,-1.1619,-1.1619,-1.1619,-1.1619,0.0,0.0,0.0,0.0,0.0,0.0,0.0,0.0,0.0,0.0,0.0,0.0,0.0,0.0,0.0,0.0,0.0,0.0,0.0,0.0,0.0,0.0,-0.1456,-0.24,-0.2909,-0.5805,-0.7761,-0.8703,-0.7183,-0.5229,-0.2836,-0.1379,-0.0436,0.0,0.0,0.0,0.0,0.0,0.0,0.0,0.0,0.0,0.0,0.0,0.0,0.0,0.0,0.0,0.0,0.0,0.0,-0.0358,-0.2282,-0.2878,-0.3195,-0.4705,-0.6141,-0.7513,-0.8477,-0.9795,-1.1031,-1.1476,-1.1592,-1.1525,-1.1369,-1.1219,-1.1084,-1.09,-0.834,-0.5942,-0.5508,-0.4316,-0.3847,-0.5182,-0.6911,-0.8747,-1.0525,-1.0772,-1.0772,0.0,-1.0813,-1.088,-1.088,-1.105,-1.1063,0.0,0.0,-1.109,-1.1227,-1.1341,-1.1497,-1.1613,-1.1619,-1.1619,-1.1619,-1.1619,-1.1619,-1.1619,-1.1619,-1.1619,-1.1619,-1.1619,-1.1619,-1.1619,-1.1619,-1.1619,-1.1619,-1.1619,-1.1619,-1.1619,-1.1619,-1.1619,-1.1619,-1.1619,-1.1619,-1.1619,0.0,0.0,0.0,0.0,0.0,0.0,0.0,0.0,0.0,0.0,0.0,0.0,0.0,0.0,0.0,0.0,0.0,0.0,0.0,0.0,-0.0365,-0.1311,-0.2328,-0.3705,-0.5515,-0.7616,-0.8271,-0.7399,-0.6315,-0.4361,-0.1529,-0.0507,0.0,0.0,0.0,0.0,0.0,0.0,0.0,0.0,0.0,0.0,0.0,0.0,0.0,0.0,0.0,0.0,0.0,0.0,-0.0574,-0.1657,-0.3597,-0.4838,-0.5949,-0.791,-0.8559,-0.892,-0.9795,-1.0815,-1.1619,-1.1619,-1.1619,-1.1599,-1.1511,-1.1375,-1.1246,-1.1165,-0.8774,-0.6711,-0.6694,-0.5176,-0.4544,-0.6302,-0.7381,-0.8644,-1.0465,-1.0717,-1.0717,-1.0717,-1.0725,-1.0806,-1.0873,-1.1023,-1.1029,-1.0887,-1.1023,0.0,-1.1227,-1.124,-1.1389,-1.1613,-1.1619,-1.1619,-1.1619,-1.1619,-1.1619,-1.1619,-1.1619,-1.1619,-1.1619,-1.1619,-1.1619,-1.1619,-1.1619,-1.1619,-1.1619,-1.1619,-1.1619,-1.1619,-1.1619,-1.1619,-1.1619,-1.1619,-1.1619,-1.1619,0.0,0.0,0.0,0.0,0.0,0.0,0.0,0.0,0.0,0.0,0.0,0.0,0.0,0.0,0.0,0.0,0.0,0.0,0.0,0.0,-0.0874,-0.2836,-0.3197,-0.5008,-0.8631,-0.8703,-0.7761,-0.5808,-0.5518,-0.349,0.0,0.0,0.0,0.0,0.0,0.0,0.0,0.0,0.0,0.0,0.0,0.0,0.0,0.0,0.0,0.0,0.0,-0.0219,-0.0437,-0.0437,-0.1748,-0.3705,-0.5591,-0.7399,-0.9064,-1.1038,-1.0449,-0.9502,-1.1181,-1.1619,-1.1619,-1.1619,-1.1619,-1.1619,-1.1619,-1.1504,-1.1389,-1.1389,-0.9751,-0.8272,-0.8272,-0.6896,-0.6297,-0.7764,-0.823,-0.8972,-1.0452,0.0,-1.0731,-1.0751,-1.0772,-1.0846,-1.0934,-1.0948,-1.0948,-1.0948,-1.0927,-1.1043,-1.1192,-1.1199,-1.1328,-1.1613,-1.1619,-1.1619,-1.1619,-1.1619,-1.1619,-1.1619,-1.1619,-1.1619,-1.1619,-1.1619,-1.1619,-1.1619,-1.1619,-1.1619,-1.1619,-1.1619,-1.1619,-1.1619,-1.1619,-1.1619,-1.1619,-1.1619,-1.1619,-1.1619,0.0,0.0,0.0,0.0,0.0,0.0,0.0,0.0,0.0,0.0,0.0,0.0,0.0,0.0,0.0,0.0,0.0,0.0,0.0,0.0,-0.0874,-0.2836,-0.4504,-0.6387,-0.8631,-0.8703,-0.7761,-0.5808,-0.4141,-0.2183,0.0,0.0,0.0,0.0,0.0,0.0,0.0,0.0,0.0,0.0,0.0,0.0,0.0,0.0,0.0,0.0,0.0,-0.102,-0.2472,-0.2472,-0.3705,-0.5663,-0.7616,-0.8487,-0.9064,-1.1038,-1.1397,-1.1253,-1.1548,-1.1619,-1.1619,-1.1619,-1.1619,-1.1619,-1.1619,-1.1504,-1.1389,-1.1389,-0.9751,-0.8272,-0.8272,-0.7905,-0.7698,-0.7964,-0.9305,-1.0386,-1.0651,0.0,-1.0765,-1.0833,-1.1023,-1.1151,-1.1307,-1.1321,-1.1321,-1.1321,-1.1206,-1.1199,-1.1348,-1.1355,-1.1436,-1.1613,-1.1619,-1.1619,-1.1619,-1.1619,-1.1619,-1.1619,-1.1619,-1.1619,-1.1619,-1.1619,-1.1619,-1.1619,-1.1619,-1.1619,-1.1619,-1.1619,-1.1619,-1.1619,-1.1619,-1.1619,-1.1619,-1.1619,-1.1619,-1.1619,0.0,0.0,0.0,0.0,0.0,0.0,0.0,0.0,0.0,0.0,0.0,0.0,0.0,0.0,0.0,0.0,0.0,-0.0437,-0.1529,-0.1529,-0.2401,-0.4358,-0.6315,-0.7761,-0.8703,-0.8703,-0.7255,-0.4213,-0.3342,-0.1892,0.0,-0.1093,-0.1529,-0.1529,-0.1529,-0.1529,-0.1529,-0.0437,0.0,0.0,0.0,0.0,0.0,0.0,0.0,0.0,0.0,-0.1239,-0.2909,-0.2909,-0.4863,-0.7544,-0.8415,-0.943,-1.0449,-1.1325,-1.1619,-1.1619,-1.1619,-1.1619,-1.1619,-1.1619,-1.1619,-1.1619,-1.1619,-1.1565,-1.1511,-1.1511,-1.0697,-0.9971,-0.9898,-0.9709,-0.9527,-0.9455,-1.018,-1.0717,-1.0717,-1.0717,-1.0744,-1.0752,-1.0887,-1.0982,-1.1138,-1.1226,-1.1233,-1.1158,-1.1233,-1.128,-1.1267,-1.1348,-1.1463,-1.1613,-1.1619,-1.1619,-1.1619,-1.1619,-1.1619,-1.1619,-1.1619,-1.1619,-1.1619,-1.1619,-1.166,-1.1728,-1.1653,-1.166,-1.1728,-1.1653,-1.1619,-1.1619,-1.1619,-1.1619,-1.1619,-1.1619,-1.1619,-1.1619,0.0,0.0,0.0,0.0,0.0,0.0,0.0,0.0,0.0,0.0,0.0,0.0,0.0,0.0,0.0,0.0,0.0,-0.0801,-0.2763,-0.3342,-0.4431,-0.6387,-0.7905,-0.8703,-0.8703,-0.7833,-0.5877,-0.2909,-0.2472,-0.1456,-0.0073,-0.1965,-0.2909,-0.2909,-0.3342,-0.3342,-0.2836,-0.1311,-0.0438,0.0,0.0,0.0,0.0,0.0,-0.0292,-0.0656,-0.0656,-0.2183,-0.4211,-0.4211,-0.6528,-0.9357,-0.9357,-1.0377,-1.1619,-1.1619,-1.1619,-1.1619,-1.1619,-1.1619,-1.1619,-1.1619,-1.1619,-1.1619,-1.1619,-1.1619,-1.1619,-1.1619,-1.1497,-1.1355,-1.124,-1.1097,-1.0962,-1.0839,0.0,-1.0826,-1.0826,-1.0826,-1.0839,-1.0873,-1.0873,-1.0934,-1.1022,-1.1172,-1.1185,-1.1042,-1.128,-1.1355,-1.1274,-1.1382,-1.1497,-1.1613,-1.1619,-1.1619,-1.1619,-1.1619,-1.1619,-1.1619,-1.1619,-1.1619,-1.1619,-1.1653,-1.1728,-1.1823,-1.1714,-1.1728,-1.1823,-1.1681,-1.1619,-1.1619,-1.1619,-1.1619,-1.1619,-1.1619,-1.1619,-1.1619,0.0,0.0,0.0,0.0,0.0,0.0,0.0,0.0,0.0,0.0,0.0,0.0,0.0,0.0,0.0,0.0,0.0,-0.0801,-0.2763,-0.4576,-0.646,-0.8415,-0.8631,-0.8703,-0.8703,-0.5153,-0.3197,-0.2909,-0.1093,-0.0146,-0.0073,-0.1965,-0.2909,-0.2979,-0.4794,-0.4576,-0.2909,-0.2763,-0.1675,0.0,0.0,0.0,0.0,0.0,-0.1093,-0.2691,-0.2691,-0.5081,-0.8266,-0.8266,-0.9651,-1.1397,-1.1397,-1.1476,-1.1619,-1.1619,-1.1619,-1.1619,-1.1619,-1.1619,-1.1619,-1.1619,-1.1619,-1.1619,-1.1619,-1.1619,-1.1619,-1.1619,-1.1497,-1.1389,-1.1375,-1.1253,-1.1145,-1.1131,0.0,0.0,-1.1131,-1.1131,-1.1185,-1.1321,-1.1341,-1.1402,-1.1558,-1.145,-1.143,-1.1558,-1.1457,-1.145,-1.1579,-1.1599,-1.1606,-1.1619,-1.1619,-1.1619,-1.1619,-1.1619,-1.1619,-1.1619,-1.1619,-1.1619,-1.1626,-1.1755,-1.1823,-1.183,-1.1823,-1.1823,-1.1823,-1.1681,-1.1619,-1.1619,-1.1619,-1.1619,-1.1619,-1.1619,-1.1619,-1.1619,0.0,0.0,0.0,0.0,0.0,0.0,0.0,0.0,0.0,0.0,0.0,0.0,0.0,0.0,0.0,0.0,0.0,-0.1388,-0.4627,-0.4304,-0.537,-0.8559,-0.8703,-0.7544,-0.5153,-0.3633,-0.2328,-0.1093,-0.0365,-0.0583,-0.1819,-0.3778,-0.5373,-0.6456,-0.6025,-0.5373,-0.4504,-0.211,-0.0659,0.0,0.0,0.0,0.0,0.0,-0.1171,-0.2943,-0.3016,-0.5481,-0.8714,-0.8785,-1.0082,-1.1619,-1.1619,-1.1619,-1.164,-1.1728,-1.1687,-1.164,-1.1728,-1.1687,-1.1619,-1.1619,-1.1619,-1.1619,-1.1619,-1.1619,-1.1619,-1.1619,-1.1572,-1.1504,-1.1409,-1.1341,-1.1274,-1.1179,0.0,-1.1234,-1.1234,-1.1234,-1.1255,-1.124,-1.1246,-1.1307,-1.1463,-1.1423,-1.1416,-1.147,-1.1511,-1.1518,-1.1477,-1.1565,-1.1619,-1.1619,-1.1619,-1.1619,-1.1619,-1.1619,-1.1619,-1.1619,-1.1619,-1.1619,-1.1619,-1.1674,-1.1748,-1.1823,-1.1735,-1.1748,-1.1823,-1.1681,-1.1619,-1.1619,-1.1619,-1.1619,-1.1619,-1.1619,-1.1619,-1.1619,0.0,0.0,0.0,0.0,0.0,0.0,0.0,0.0,0.0,0.0,0.0,0.0,0.0,0.0,0.0,0.0,0.0,-0.1397,-0.4807,-0.4258,-0.5032,-0.7693,-0.7178,-0.566,-0.2979,-0.2337,-0.1317,0.0,0.0,-0.1024,-0.2909,-0.4866,-0.6821,-0.8631,-0.7327,-0.6387,-0.5594,-0.2266,-0.059,0.0,0.0,0.0,-0.0076,-0.0743,-0.2147,-0.3945,-0.467,-0.7003,-0.977,-0.9821,-1.0694,-1.1762,-1.1762,-1.1728,-1.1694,-1.1748,-1.1694,-1.164,-1.1735,-1.1694,-1.1619,-1.1619,-1.1619,-1.1619,-1.1619,-1.1619,-1.1619,-1.1619,-1.1619,-1.1586,-1.1484,-1.1463,-1.143,-1.1321,-1.1307,-1.1307,-1.1307,-1.1307,-1.1287,-1.124,-1.1274,-1.1328,-1.1389,-1.1436,-1.1463,-1.1463,-1.1558,-1.1572,-1.147,-1.1565,-1.1619,-1.1619,-1.1619,-1.164,-1.1687,-1.164,-1.1619,-1.1619,-1.1619,-1.164,-1.1687,-1.1687,-1.1769,-1.1898,-1.1748,-1.1742,-1.1823,-1.1681,-1.1619,-1.1619,-1.1619,-1.1619,-1.1619,-1.1619,-1.1619,-1.1619,0.0,0.0,0.0,0.0,0.0,0.0,0.0,0.0,0.0,0.0,0.0,0.0,0.0,0.0,0.0,0.0,0.0,-0.0817,-0.2743,-0.4667,-0.5743,-0.5742,-0.3923,-0.2909,-0.2909,-0.0959,0.0,0.0,0.0,-0.1033,-0.2981,-0.4939,-0.6821,-0.8703,-0.8703,-0.7616,-0.567,-0.3684,-0.1781,0.0,0.0,0.0,-0.0227,-0.2344,-0.4301,-0.6244,-0.8247,-1.0293,-1.204,-1.1884,-1.1938,-1.2135,-1.2135,-1.1959,-1.1803,-1.166,-1.1619,-1.1619,-1.1619,-1.1619,-1.1619,-1.1619,-1.1619,-1.1619,-1.1619,-1.1619,-1.1619,-1.1619,-1.1619,-1.1619,-1.1619,-1.1619,-1.1619,-1.1619,-1.1619,-1.1619,-1.1619,-1.1619,-1.1565,-1.1409,-1.1525,-1.1558,-1.1409,-1.1531,-1.1619,-1.1619,-1.1619,-1.1619,-1.1619,-1.1619,-1.1619,-1.1619,-1.1619,-1.1687,-1.183,-1.1694,-1.1619,-1.1619,-1.1619,-1.1694,-1.183,-1.183,-1.1918,-1.2054,-1.1898,-1.183,-1.1823,-1.1681,-1.1619,-1.1619,-1.1619,-1.1619,-1.1619,-1.1619,-1.1619,-1.1619,0.0,0.0,0.0,0.0,0.0,0.0,0.0,0.0,0.0,0.0,0.0,0.0,0.0,0.0,0.0,0.0,0.0,-0.0224,-0.0828,-0.2804,-0.3255,-0.1795,-0.2497,-0.2256,-0.0874,-0.0296,0.0,0.0,-0.1334,-0.3034,-0.5005,-0.6922,-0.8121,-0.8631,-0.7255,-0.562,-0.361,-0.1704,-0.0526,0.0,0.0,-0.0841,-0.2244,-0.2889,-0.5231,-0.8308,-0.9041,-1.0514,-1.2149,-1.2135,-1.2115,-1.2135,-1.2135,-1.2033,-1.1986,-1.1938,-1.185,-1.1769,-1.1769,-1.1694,-1.1619,-1.1619,-1.1619,-1.1619,-1.1619,-1.1619,-1.1619,-1.1619,-1.1619,-1.1619,-1.1619,-1.1619,-1.1619,-1.1619,-1.1619,-1.1619,-1.1619,-1.1619,-1.1599,-1.1558,-1.1592,-1.1599,-1.1558,-1.1592,-1.1619,-1.1619,-1.1619,-1.1619,-1.1619,-1.1714,-1.1769,-1.1769,-1.1877,-1.1952,-1.1993,-1.1742,-1.1721,-1.1932,-1.1816,-1.185,-1.1993,-1.1993,-1.202,-1.2054,-1.1898,-1.183,-1.1823,-1.1681,-1.1619,-1.1619,-1.1619,-1.1619,-1.1619,-1.1619,-1.1619,-1.1619,0.0,0.0,0.0,0.0,0.0,0.0,0.0,0.0,0.0,0.0,0.0,0.0,0.0,0.0,0.0,0.0,0.0,0.0,0.0,-0.1151,-0.1305,-0.0076,-0.1121,-0.1183,0.0,0.0,0.0,0.0,-0.1939,-0.386,-0.5876,-0.7792,-0.8703,-0.8631,-0.6639,-0.4706,-0.2744,-0.0826,0.0,-0.0077,-0.0922,-0.2011,-0.3281,-0.4924,-0.7145,-0.9418,-1.0222,-1.1264,-1.2244,-1.2277,-1.2264,-1.2223,-1.2169,-1.2149,-1.2128,-1.2006,-1.1945,-1.1898,-1.1782,-1.1728,-1.1687,-1.1633,-1.1619,-1.1619,-1.1619,-1.1619,-1.1619,-1.1619,-1.1619,-1.1619,-1.1619,-1.1619,-1.1619,-1.1619,-1.1619,-1.1619,-1.1619,-1.1619,-1.1599,-1.1538,-1.1586,-1.1592,-1.1538,-1.1586,-1.1619,-1.1619,-1.1674,-1.1701,-1.1701,-1.1843,-1.1925,-1.1925,-1.2013,-1.2169,-1.2149,-1.1918,-1.1884,-1.2135,-1.1965,-1.2006,-1.2149,-1.2088,-1.2094,-1.2142,-1.1925,-1.183,-1.1823,-1.1681,-1.1619,-1.1619,-1.1619,-1.1619,-1.1619,-1.1619,-1.1619,-1.1619,0.0,0.0,0.0,0.0,0.0,0.0,0.0,0.0,0.0,0.0,0.0,0.0,0.0,0.0,0.0,0.0,0.0,0.0,0.0,0.0,0.0,0.0,0.0,0.0,0.0,0.0,0.0,0.0,-0.2104,-0.4101,-0.5818,-0.7765,-0.8631,-0.8343,-0.64,-0.4445,-0.2529,-0.0763,0.0,-0.0155,-0.2261,-0.3208,-0.3834,-0.789,-0.9532,-0.9904,-1.1657,-1.2393,-1.2481,-1.2352,-1.2393,-1.2481,-1.2352,-1.2311,-1.225,-1.1959,-1.1965,-1.1999,-1.1714,-1.1721,-1.1782,-1.1667,-1.164,-1.164,-1.164,-1.164,-1.164,-1.1653,-1.166,-1.166,-1.166,-1.1647,-1.164,-1.164,-1.1626,-1.1619,-1.1619,-1.1619,-1.1565,-1.143,-1.1545,-1.1586,-1.1443,-1.1565,-1.166,-1.166,-1.1775,-1.185,-1.185,-1.1999,-1.2081,-1.2081,-1.2094,-1.2169,-1.2311,-1.2169,-1.2176,-1.2176,-1.2088,-1.2162,-1.2305,-1.2169,-1.2176,-1.2291,-1.1986,-1.185,-1.1837,-1.1681,-1.1619,-1.1619,-1.1619,-1.1619,-1.1619,-1.1619,-1.1619,-1.1619,0.0,0.0,0.0,0.0,0.0,0.0,0.0,0.0,0.0,0.0,0.0,0.0,0.0,0.0,0.0,0.0,0.0,0.0,0.0,0.0,0.0,0.0,0.0,0.0,0.0,0.0,0.0,0.0,-0.3468,-0.5385,-0.5823,-0.7797,-0.7905,-0.6319,-0.4417,-0.2462,-0.0604,-0.0153,0.0,-0.0156,-0.2268,-0.4068,-0.5864,-0.8443,-1.0397,-1.1869,-1.2313,-1.2474,-1.2494,-1.2467,-1.2474,-1.2494,-1.2467,-1.2454,-1.242,-1.2244,-1.2128,-1.202,-1.1837,-1.1728,-1.1687,-1.1769,-1.1782,-1.1782,-1.1782,-1.1782,-1.1816,-1.1938,-1.1965,-1.1965,-1.1965,-1.1864,-1.1782,-1.1782,-1.1694,-1.1619,-1.1619,-1.1619,-1.1606,-1.1572,-1.1694,-1.1775,-1.1742,-1.1877,-1.1965,-1.1965,-1.1993,-1.2013,-1.2013,-1.2155,-1.2244,-1.2244,-1.2345,-1.242,-1.2454,-1.242,-1.2406,-1.2406,-1.2291,-1.2318,-1.2454,-1.242,-1.2427,-1.244,-1.2142,-1.2013,-1.1993,-1.1728,-1.1619,-1.1619,-1.1619,-1.1619,-1.1619,-1.1619,-1.1619,-1.1619,0.0,0.0,0.0,0.0,0.0,0.0,0.0,0.0,0.0,0.0,0.0,0.0,0.0,0.0,0.0,0.0,0.0,0.0,0.0,0.0,0.0,0.0,0.0,0.0,0.0,0.0,0.0,0.0,-0.386,-0.5316,-0.4517,-0.737,-0.7183,-0.4361,-0.3337,-0.1804,0.0,0.0,-0.0549,-0.1647,-0.378,-0.5893,-0.7972,-1.0081,-1.1566,-1.2501,-1.2501,-1.2501,-1.2501,-1.2501,-1.2501,-1.2501,-1.2501,-1.2501,-1.2474,-1.2332,-1.2237,-1.2135,-1.1986,-1.1884,-1.185,-1.1925,-1.1938,-1.1938,-1.1938,-1.1938,-1.1965,-1.2047,-1.2135,-1.2135,-1.2135,-1.1993,-1.1918,-1.1843,-1.183,-1.1782,-1.164,-1.1681,-1.1694,-1.1626,-1.1742,-1.1857,-1.1932,-1.2013,-1.2135,-1.2135,-1.2128,-1.2169,-1.2169,-1.2311,-1.2393,-1.2393,-1.2461,-1.2501,-1.2501,-1.2501,-1.2501,-1.2501,-1.2427,-1.2427,-1.2501,-1.2501,-1.2467,-1.2386,-1.2162,-1.202,-1.1932,-1.1714,-1.1619,-1.1619,-1.1619,-1.1619,-1.1619,-1.1619,-1.1619,-1.1619,0.0,0.0,0.0,0.0,0.0,0.0,0.0,0.0,0.0,0.0,0.0,0.0,0.0,0.0,0.0,0.0,0.0,0.0,0.0,0.0,0.0,0.0,0.0,0.0,0.0,0.0,-0.0156,-0.054,-0.3727,-0.4654,-0.3481,-0.6363,-0.5963,-0.2912,-0.2541,-0.1513,0.0,-0.0393,-0.1503,-0.329,-0.5862,-0.791,-0.9641,-1.1765,-1.2549,-1.2542,-1.2549,-1.2528,-1.2501,-1.2501,-1.2501,-1.2501,-1.2501,-1.2501,-1.2481,-1.2359,-1.2311,-1.2264,-1.2135,-1.2155,-1.2142,-1.2094,-1.2101,-1.2108,-1.2135,-1.2121,-1.2108,-1.2135,-1.2135,-1.2135,-1.2135,-1.2115,-1.206,-1.1932,-1.1993,-1.1972,-1.1728,-1.1796,-1.1823,-1.1708,-1.1823,-1.1965,-1.2121,-1.2135,-1.2135,-1.2135,-1.2257,-1.2325,-1.2325,-1.244,-1.2501,-1.2501,-1.2501,-1.2501,-1.2501,-1.2501,-1.2501,-1.2501,-1.2501,-1.2501,-1.2501,-1.2501,-1.2427,-1.2284,-1.2128,-1.1972,-1.1823,-1.1681,-1.1633,-1.1653,-1.1653,-1.1653,-1.1653,-1.1626,-1.1619,-1.1619,0.0,0.0,0.0,0.0,0.0,0.0,0.0,0.0,0.0,0.0,0.0,0.0,0.0,0.0,0.0,0.0,0.0,0.0,0.0,0.0,0.0,0.0,0.0,0.0,0.0,0.0,-0.0858,-0.2694,-0.3072,-0.4091,-0.5545,-0.4285,-0.338,-0.2839,-0.1122,-0.0227,-0.0152,-0.1942,-0.2822,-0.3447,-0.752,-0.9297,-0.9845,-1.2108,-1.2817,-1.2705,-1.2667,-1.2572,-1.2501,-1.2501,-1.2501,-1.2501,-1.2501,-1.2501,-1.2501,-1.2481,-1.2386,-1.2284,-1.2264,-1.2162,-1.2094,-1.223,-1.2257,-1.2291,-1.2413,-1.2345,-1.2291,-1.242,-1.244,-1.244,-1.244,-1.2338,-1.225,-1.223,-1.2135,-1.2047,-1.2006,-1.202,-1.202,-1.2006,-1.2135,-1.2284,-1.2427,-1.244,-1.244,-1.244,-1.2461,-1.2474,-1.2474,-1.2488,-1.2501,-1.2501,-1.2501,-1.2501,-1.2501,-1.2501,-1.2501,-1.2501,-1.2501,-1.2501,-1.2501,-1.2501,-1.2427,-1.2284,-1.2128,-1.1972,-1.1823,-1.1681,-1.1694,-1.1803,-1.1803,-1.1803,-1.1789,-1.1667,-1.1619,-1.1619,0.0,0.0,0.0,0.0,0.0,0.0,0.0,0.0,0.0,0.0,0.0,0.0,0.0,0.0,0.0,0.0,0.0,0.0,0.0,0.0,0.0,0.0,0.0,0.0,0.0,0.0,-0.1017,-0.3108,-0.2933,-0.2821,-0.2623,-0.2847,-0.2307,-0.1253,-0.0378,0.0,-0.0153,-0.2193,-0.3778,-0.517,-0.8291,-1.0322,-1.1464,-1.2609,-1.2961,-1.2854,-1.2707,-1.2626,-1.263,-1.263,-1.2684,-1.2759,-1.2759,-1.2698,-1.263,-1.263,-1.2467,-1.2311,-1.2386,-1.2298,-1.2223,-1.2372,-1.2406,-1.2427,-1.2488,-1.2454,-1.2427,-1.2488,-1.2501,-1.2501,-1.2501,-1.2447,-1.2379,-1.2305,-1.2298,-1.225,-1.2088,-1.2135,-1.2189,-1.2189,-1.225,-1.2345,-1.2488,-1.2501,-1.2501,-1.2501,-1.2501,-1.2501,-1.2501,-1.2501,-1.2501,-1.2501,-1.2501,-1.2501,-1.2501,-1.2501,-1.2501,-1.2501,-1.2501,-1.2501,-1.2501,-1.2501,-1.2427,-1.2284,-1.2216,-1.2101,-1.1952,-1.1891,-1.1904,-1.1959,-1.1959,-1.1904,-1.1816,-1.1674,-1.1667,-1.1735]}]]